[[{"header":{"parameterUnit":"m.s-1","parameterCategory":1,"la1":30.6,"la2":29.2853,"lo1":-89.7004,"lo2":-87.6739,"dy":0.0162,"dx":0.0183,"nx":112,"ny":82,"refTime":"2024-04-25T06:00:00:Z","depth":0,"parameterNumber":2,"parameterNumberName":"U-component_of_WINDS"},"data":[0.0,0.0,0.0,0.0,0.0,0.0,0.0,0.0,0.0,0.0,0.0,0.0,0.0,0.0,0.0,0.0,0.0,0.0,0.0,0.0,0.0,0.0,0.0,0.0,0.0,0.0,0.0,0.0,0.0,0.0,0.0,0.0,0.0,0.0,0.0,0.0,0.0,0.0,0.0,0.0,0.0,0.0,0.0,0.0,0.0,0.0,0.0,0.0,0.0,0.0,0.0,0.0,0.0,0.0,0.0,0.0,0.0,0.0,0.0,0.0,0.0,0.0,0.0,0.0,0.0,0.0,0.0,0.0,0.0,0.0,0.0,0.0,0.0,0.0,0.0,0.0,0.0,0.0,0.0,0.0,0.0,0.0,0.0,0.0,0.0,0.0,0.0,0.0,0.0,0.0,0.0,-3.8691,-4.294,-4.5185,-4.4526,-4.1343,-3.7855,-3.425,0.0,0.0,0.0,0.0,0.0,0.0,0.0,0.0,0.0,0.0,0.0,0.0,0.0,0.0,0.0,0.0,0.0,0.0,0.0,0.0,0.0,0.0,0.0,0.0,0.0,0.0,0.0,0.0,0.0,0.0,0.0,0.0,0.0,0.0,0.0,0.0,0.0,0.0,0.0,0.0,0.0,0.0,0.0,0.0,0.0,0.0,0.0,0.0,0.0,0.0,0.0,0.0,0.0,0.0,0.0,0.0,0.0,0.0,0.0,0.0,0.0,0.0,0.0,0.0,0.0,0.0,0.0,0.0,0.0,0.0,0.0,0.0,0.0,0.0,0.0,0.0,0.0,0.0,0.0,0.0,0.0,0.0,0.0,0.0,0.0,0.0,0.0,0.0,0.0,0.0,0.0,0.0,0.0,0.0,0.0,0.0,0.0,0.0,0.0,0.0,0.0,0.0,0.0,0.0,-3.6327,-4.1944,-4.4695,-4.5903,-4.5214,-4.2485,-3.9046,-3.4923,0.0,0.0,0.0,0.0,0.0,0.0,0.0,0.0,0.0,0.0,0.0,0.0,0.0,0.0,0.0,0.0,0.0,0.0,0.0,0.0,0.0,0.0,0.0,0.0,0.0,0.0,0.0,0.0,0.0,0.0,0.0,0.0,0.0,0.0,0.0,0.0,0.0,0.0,0.0,0.0,0.0,0.0,0.0,0.0,0.0,0.0,0.0,0.0,0.0,0.0,0.0,0.0,0.0,0.0,0.0,0.0,0.0,0.0,0.0,0.0,0.0,0.0,0.0,0.0,0.0,0.0,0.0,0.0,0.0,0.0,0.0,0.0,0.0,0.0,0.0,0.0,0.0,0.0,0.0,0.0,0.0,0.0,0.0,0.0,0.0,0.0,0.0,0.0,0.0,0.0,0.0,0.0,0.0,0.0,0.0,0.0,0.0,0.0,0.0,0.0,0.0,0.0,0.0,-3.5941,-3.9679,-4.3449,-4.5334,-4.5861,-4.4661,-4.1665,-3.8069,-3.4047,-2.9332,0.0,0.0,0.0,0.0,0.0,0.0,0.0,0.0,0.0,0.0,0.0,0.0,0.0,0.0,0.0,0.0,0.0,0.0,0.0,0.0,0.0,0.0,0.0,0.0,0.0,0.0,0.0,0.0,0.0,0.0,0.0,0.0,0.0,0.0,0.0,0.0,0.0,0.0,0.0,0.0,0.0,0.0,0.0,0.0,0.0,0.0,0.0,0.0,0.0,0.0,0.0,0.0,0.0,0.0,0.0,0.0,0.0,0.0,0.0,0.0,0.0,0.0,0.0,0.0,0.0,0.0,0.0,0.0,0.0,0.0,0.0,0.0,0.0,0.0,0.0,0.0,0.0,0.0,0.0,0.0,0.0,0.0,0.0,0.0,0.0,0.0,0.0,0.0,0.0,0.0,0.0,0.0,0.0,0.0,0.0,0.0,0.0,0.0,0.0,0.0,0.0,0.0,-3.8811,-4.2192,-4.4317,-4.5562,-4.5585,-4.408,-4.0645,-3.691,-3.3082,-2.8675,0.0,0.0,0.0,0.0,0.0,0.0,0.0,0.0,0.0,0.0,0.0,0.0,0.0,0.0,0.0,0.0,0.0,0.0,0.0,0.0,0.0,0.0,0.0,0.0,0.0,0.0,0.0,0.0,0.0,0.0,0.0,0.0,0.0,0.0,0.0,0.0,0.0,0.0,0.0,0.0,0.0,0.0,0.0,0.0,0.0,0.0,0.0,0.0,0.0,0.0,0.0,0.0,0.0,0.0,0.0,0.0,0.0,0.0,0.0,0.0,0.0,0.0,0.0,0.0,0.0,0.0,0.0,0.0,0.0,0.0,0.0,0.0,0.0,0.0,0.0,0.0,0.0,0.0,0.0,0.0,0.0,0.0,0.0,0.0,0.0,0.0,0.0,0.0,0.0,0.0,0.0,0.0,0.0,0.0,0.0,0.0,0.0,0.0,0.0,0.0,0.0,0.0,-3.9649,-4.2372,-4.4945,-4.5704,-4.5374,-4.3862,-4.0266,-3.6583,-3.2846,-2.8398,0.0,0.0,0.0,0.0,0.0,0.0,0.0,0.0,0.0,0.0,0.0,0.0,0.0,0.0,0.0,0.0,0.0,0.0,0.0,0.0,0.0,0.0,0.0,0.0,0.0,0.0,0.0,0.0,0.0,0.0,0.0,0.0,0.0,0.0,0.0,0.0,0.0,0.0,0.0,0.0,0.0,0.0,0.0,0.0,0.0,0.0,0.0,0.0,0.0,0.0,0.0,0.0,0.0,0.0,0.0,0.0,0.0,0.0,0.0,0.0,0.0,0.0,0.0,0.0,0.0,0.0,0.0,0.0,0.0,0.0,0.0,0.0,0.0,0.0,0.0,0.0,0.0,0.0,0.0,0.0,0.0,0.0,0.0,0.0,0.0,0.0,0.0,0.0,0.0,0.0,0.0,0.0,0.0,0.0,0.0,0.0,0.0,0.0,0.0,0.0,0.0,0.0,-3.9361,-4.2028,0.0,-4.4418,-4.3524,-4.147,-3.7929,-3.4306,-3.0798,0.0,0.0,0.0,0.0,0.0,0.0,0.0,0.0,0.0,0.0,0.0,0.0,0.0,0.0,0.0,0.0,0.0,0.0,0.0,0.0,0.0,0.0,0.0,0.0,0.0,0.0,0.0,0.0,0.0,0.0,0.0,0.0,0.0,0.0,0.0,0.0,0.0,0.0,0.0,0.0,0.0,0.0,0.0,0.0,0.0,0.0,0.0,0.0,0.0,0.0,0.0,0.0,0.0,0.0,0.0,0.0,0.0,0.0,0.0,0.0,0.0,0.0,0.0,0.0,0.0,0.0,0.0,0.0,0.0,0.0,0.0,0.0,0.0,0.0,0.0,0.0,0.0,0.0,0.0,0.0,0.0,0.0,0.0,0.0,0.0,0.0,0.0,0.0,0.0,0.0,0.0,0.0,0.0,0.0,0.0,0.0,0.0,0.0,0.0,0.0,0.0,0.0,-3.6148,-3.899,-4.1457,0.0,-4.3201,-4.2017,-3.9917,-3.6231,-3.2636,-2.941,0.0,0.0,0.0,0.0,0.0,0.0,0.0,0.0,0.0,0.0,0.0,0.0,0.0,0.0,0.0,0.0,0.0,0.0,0.0,0.0,0.0,0.0,0.0,0.0,0.0,0.0,0.0,0.0,0.0,0.0,0.0,0.0,0.0,0.0,0.0,0.0,0.0,0.0,0.0,0.0,0.0,0.0,0.0,0.0,0.0,0.0,0.0,0.0,0.0,0.0,0.0,0.0,0.0,0.0,0.0,0.0,0.0,0.0,0.0,0.0,0.0,0.0,0.0,0.0,0.0,0.0,0.0,0.0,0.0,0.0,0.0,0.0,0.0,0.0,0.0,0.0,0.0,0.0,0.0,0.0,0.0,0.0,0.0,0.0,0.0,0.0,0.0,0.0,0.0,0.0,0.0,0.0,0.0,0.0,0.0,0.0,0.0,0.0,0.0,0.0,0.0,0.0,-3.6148,-3.8603,-4.0842,-4.2773,-4.2252,-4.1085,-3.9361,-3.5492,-3.1893,0.0,0.0,0.0,0.0,0.0,0.0,0.0,0.0,0.0,0.0,0.0,0.0,0.0,0.0,0.0,0.0,0.0,0.0,0.0,0.0,0.0,0.0,0.0,0.0,0.0,0.0,0.0,0.0,0.0,0.0,0.0,0.0,0.0,0.0,0.0,0.0,0.0,0.0,0.0,0.0,0.0,0.0,0.0,0.0,0.0,0.0,0.0,0.0,0.0,0.0,0.0,0.0,0.0,0.0,0.0,0.0,0.0,0.0,0.0,0.0,0.0,0.0,0.0,0.0,0.0,0.0,0.0,0.0,0.0,0.0,0.0,0.0,0.0,0.0,0.0,0.0,0.0,0.0,0.0,0.0,0.0,0.0,0.0,0.0,0.0,0.0,0.0,0.0,0.0,0.0,0.0,0.0,0.0,0.0,0.0,0.0,0.0,0.0,0.0,0.0,0.0,0.0,0.0,-3.6207,-3.8044,-3.9681,-4.1106,-4.0094,-3.8445,-3.6245,-3.3256,-3.0254,-2.7347,0.0,0.0,0.0,0.0,0.0,0.0,0.0,0.0,0.0,0.0,0.0,0.0,0.0,0.0,0.0,0.0,0.0,0.0,0.0,0.0,0.0,0.0,0.0,0.0,0.0,0.0,0.0,0.0,0.0,0.0,0.0,0.0,0.0,0.0,0.0,0.0,0.0,0.0,0.0,0.0,0.0,0.0,0.0,0.0,0.0,0.0,0.0,0.0,0.0,0.0,0.0,0.0,0.0,0.0,0.0,0.0,0.0,0.0,0.0,0.0,0.0,0.0,0.0,0.0,0.0,0.0,0.0,0.0,0.0,0.0,0.0,0.0,0.0,0.0,0.0,0.0,0.0,0.0,0.0,0.0,0.0,0.0,0.0,0.0,0.0,0.0,0.0,0.0,0.0,0.0,0.0,0.0,0.0,0.0,0.0,0.0,0.0,0.0,0.0,0.0,0.0,0.0,-3.5878,-3.7475,-3.8745,-3.9622,-3.8513,-3.6704,-3.4296,-3.1836,-2.9258,-2.6425,0.0,0.0,0.0,0.0,0.0,0.0,0.0,0.0,0.0,0.0,0.0,0.0,0.0,0.0,0.0,0.0,0.0,0.0,0.0,0.0,0.0,0.0,0.0,0.0,0.0,0.0,0.0,0.0,0.0,0.0,0.0,0.0,0.0,0.0,0.0,0.0,0.0,0.0,0.0,0.0,0.0,0.0,0.0,0.0,0.0,0.0,0.0,0.0,0.0,0.0,0.0,0.0,0.0,0.0,0.0,0.0,0.0,0.0,0.0,0.0,0.0,0.0,0.0,0.0,0.0,0.0,0.0,0.0,0.0,0.0,0.0,0.0,0.0,0.0,0.0,0.0,0.0,0.0,0.0,0.0,0.0,0.0,0.0,0.0,0.0,0.0,0.0,0.0,0.0,0.0,0.0,0.0,0.0,0.0,0.0,0.0,0.0,0.0,0.0,0.0,0.0,0.0,-3.534,-3.6729,-3.7768,-3.8238,-3.7225,-3.5575,-3.3264,-3.1066,-2.8711,-2.6062,0.0,0.0,0.0,0.0,0.0,0.0,0.0,0.0,0.0,0.0,0.0,0.0,0.0,0.0,0.0,0.0,0.0,0.0,0.0,0.0,0.0,0.0,0.0,0.0,0.0,0.0,0.0,0.0,0.0,0.0,0.0,0.0,0.0,0.0,0.0,0.0,0.0,0.0,0.0,0.0,0.0,0.0,0.0,0.0,0.0,0.0,0.0,0.0,0.0,0.0,0.0,0.0,0.0,0.0,0.0,0.0,0.0,0.0,0.0,0.0,-4.4246,0.0,0.0,0.0,0.0,0.0,0.0,0.0,0.0,0.0,0.0,0.0,0.0,0.0,0.0,0.0,0.0,0.0,0.0,0.0,0.0,0.0,0.0,0.0,0.0,0.0,0.0,0.0,0.0,0.0,0.0,0.0,0.0,0.0,0.0,0.0,0.0,0.0,0.0,0.0,0.0,0.0,-3.534,-3.5963,-3.6347,-3.6526,-3.5325,-3.3836,-3.2105,-3.0266,-2.8263,-2.6036,0.0,0.0,0.0,0.0,0.0,0.0,0.0,0.0,0.0,0.0,0.0,0.0,0.0,0.0,0.0,0.0,0.0,0.0,0.0,0.0,0.0,0.0,0.0,0.0,0.0,0.0,0.0,0.0,0.0,0.0,0.0,0.0,0.0,0.0,0.0,0.0,0.0,0.0,0.0,0.0,0.0,0.0,0.0,0.0,0.0,0.0,0.0,0.0,0.0,0.0,0.0,0.0,0.0,0.0,0.0,0.0,0.0,0.0,0.0,0.0,0.0,-4.6501,0.0,0.0,0.0,0.0,0.0,0.0,0.0,0.0,0.0,0.0,0.0,0.0,0.0,0.0,0.0,0.0,0.0,0.0,0.0,0.0,0.0,0.0,0.0,0.0,0.0,0.0,0.0,0.0,0.0,0.0,0.0,0.0,0.0,0.0,0.0,0.0,0.0,0.0,0.0,0.0,-3.524,-3.5558,-3.5613,-3.5439,-3.4256,-3.2827,-3.116,-2.96,-2.7991,-2.6316,-2.5577,0.0,0.0,0.0,0.0,0.0,0.0,0.0,0.0,0.0,0.0,0.0,0.0,0.0,0.0,0.0,0.0,0.0,0.0,0.0,0.0,0.0,0.0,0.0,0.0,0.0,0.0,0.0,0.0,0.0,0.0,0.0,0.0,0.0,0.0,0.0,0.0,0.0,0.0,0.0,0.0,0.0,0.0,0.0,0.0,0.0,0.0,0.0,0.0,0.0,0.0,0.0,0.0,0.0,-6.0057,-6.0475,-6.1613,-6.1074,-6.1134,-6.1343,-5.5748,-5.2067,-4.9912,0.0,0.0,0.0,0.0,0.0,0.0,0.0,0.0,0.0,0.0,0.0,0.0,0.0,0.0,0.0,0.0,0.0,0.0,0.0,0.0,0.0,0.0,0.0,0.0,0.0,-4.0061,-3.9762,0.0,0.0,0.0,0.0,0.0,0.0,0.0,0.0,0.0,0.0,0.0,0.0,-3.5073,-3.517,-3.501,-3.4526,-3.3522,-3.2233,-3.0613,-2.9181,-2.7921,-2.67,-2.5963,-2.5159,0.0,0.0,0.0,0.0,0.0,0.0,0.0,0.0,0.0,0.0,0.0,0.0,0.0,0.0,0.0,0.0,0.0,0.0,0.0,0.0,0.0,0.0,0.0,0.0,0.0,0.0,0.0,0.0,0.0,0.0,0.0,0.0,-4.716,-4.7818,0.0,0.0,0.0,0.0,0.0,0.0,0.0,0.0,0.0,0.0,0.0,0.0,0.0,-5.9877,-6.1882,-6.3109,-6.4485,-6.5951,-6.643,-6.7089,-6.7807,-6.7747,-6.7747,-6.7747,-6.6281,0.0,-5.6645,-5.4281,0.0,0.0,0.0,0.0,0.0,0.0,0.0,0.0,0.0,0.0,0.0,0.0,0.0,0.0,0.0,0.0,0.0,0.0,0.0,0.0,0.0,0.0,-4.2051,-4.2632,-4.2781,-4.2722,0.0,-4.0217,-3.8153,-3.8153,-3.7105,0.0,0.0,0.0,0.0,0.0,0.0,0.0,-3.4879,-3.4525,-3.4002,-3.3311,-3.2463,-3.1606,-3.0745,-2.9292,-2.8073,-2.7253,-2.6189,-2.5335,-2.47,-2.4675,0.0,0.0,0.0,0.0,0.0,0.0,0.0,0.0,0.0,0.0,0.0,0.0,0.0,0.0,0.0,0.0,0.0,0.0,0.0,0.0,0.0,0.0,0.0,0.0,0.0,0.0,0.0,0.0,0.0,-4.8566,-5.0301,-5.096,-5.078,-5.0212,0.0,0.0,0.0,0.0,0.0,0.0,0.0,0.0,0.0,-6.2151,-6.4425,-6.6759,-6.9123,-7.0081,-7.1398,-7.3073,-7.2984,-7.3313,-7.3941,-7.3582,-7.3223,-7.2864,-7.2565,-6.9931,-6.5443,-6.0236,-5.6316,-5.3384,0.0,0.0,0.0,0.0,-4.9224,-5.0062,-5.0062,-5.0481,0.0,0.0,0.0,0.0,0.0,0.0,0.0,0.0,0.0,0.0,0.0,0.0,0.0,-4.5424,-4.5233,-4.4964,-4.4964,-4.3269,-4.1294,0.0,-3.8153,-3.6806,-3.6178,0.0,0.0,0.0,0.0,0.0,-3.4606,-3.3928,-3.3269,-3.2739,-3.1982,-3.1283,-3.0736,-2.9306,-2.8214,-2.7806,-2.6725,-2.5871,-2.5285,-2.5259,-2.5134,0.0,0.0,0.0,0.0,0.0,0.0,0.0,0.0,0.0,0.0,0.0,0.0,0.0,0.0,0.0,0.0,0.0,0.0,0.0,0.0,0.0,0.0,0.0,0.0,0.0,0.0,0.0,0.0,-5.1648,-5.3713,-5.5059,-5.491,-5.4311,0.0,0.0,0.0,0.0,0.0,0.0,-6.0924,-6.3348,-6.5951,-6.8914,-7.1248,-7.3492,-7.5647,-7.6485,-7.7622,-7.9058,-7.8579,-7.8519,-7.8819,-7.831,-7.7741,-7.7143,-7.6784,-7.5407,-7.2864,-6.5981,-6.1283,-5.8231,-5.6047,-5.4491,-5.3473,-5.3294,-5.3653,-5.4221,-5.4221,-5.4551,-5.473,-5.3414,0.0,-4.9956,-4.7326,0.0,0.0,0.0,0.0,-4.4665,-4.6172,-4.683,-4.7249,-4.7908,-4.7429,-4.683,-4.683,-4.5783,-4.4107,0.0,-3.9529,-3.7973,-3.7345,0.0,0.0,0.0,0.0,-3.4597,-3.4366,-3.3514,-3.2775,-3.2309,-3.1643,-3.1048,-3.066,-2.9397,-2.8467,-2.8122,-2.7228,-2.6449,-2.5837,-2.5812,-2.5636,-2.5234,0.0,0.0,0.0,0.0,0.0,0.0,0.0,0.0,0.0,0.0,0.0,0.0,0.0,0.0,0.0,0.0,0.0,0.0,0.0,0.0,0.0,0.0,0.0,0.0,0.0,0.0,0.0,0.0,0.0,-6.0326,-5.9578,0.0,0.0,0.0,0.0,-5.9548,-6.1493,-6.3737,-6.646,-6.9662,-7.2385,-7.442,-7.7622,-7.9686,-8.0434,-8.1721,-8.2409,-8.2575,-8.2469,-8.214,-8.1572,-8.1542,-8.1183,-8.0494,-7.9208,-7.822,-7.7053,-7.1068,-6.7029,-6.4336,-6.1732,-6.0266,-5.9578,-5.8949,-5.9129,-5.9697,-5.9697,-5.9697,-5.9518,-5.8201,-5.479,-5.069,-4.8057,-4.6711,0.0,0.0,-4.707,-4.7549,-4.9448,-4.9553,-4.9284,-4.9897,-4.9105,-4.8177,-4.8177,-4.716,-4.5592,0.0,-4.1594,-4.0038,-3.9379,0.0,-3.6447,-3.6447,-3.5477,-3.4534,-3.4167,-3.3276,-3.2489,-3.2,-3.1373,-3.0861,-3.0444,-2.9617,-2.8872,-2.8147,-2.757,-2.7027,-2.6474,-2.6449,-2.6449,-2.6424,-2.6399,0.0,0.0,0.0,0.0,0.0,0.0,0.0,0.0,0.0,0.0,0.0,0.0,0.0,0.0,0.0,0.0,0.0,0.0,0.0,0.0,0.0,0.0,0.0,0.0,0.0,0.0,0.0,0.0,-6.4545,-6.4455,0.0,-6.4784,-6.3617,-6.3827,-6.6251,-6.8286,-7.056,-7.3193,-7.6066,-7.8549,-8.0524,-8.2559,-8.4145,-8.5222,-8.5701,-8.594,-8.594,-8.5492,-8.4714,-8.3666,-8.3217,-8.223,-8.0764,-8.0285,-7.9208,-7.7592,-7.4659,-7.1607,-6.8555,-6.5922,-6.4485,-6.3767,-6.266,-6.2391,-6.254,-6.2151,-6.1732,-6.1074,-5.9338,-5.6795,-5.4162,-5.2785,-5.1319,-5.0152,-5.0391,-5.0451,-5.0631,-5.1319,-5.1319,-5.1199,-5.1439,-5.0182,-4.897,-4.897,-4.7878,-4.6501,-4.4915,-4.3,-4.1175,-3.9679,-3.8376,-3.7377,-3.696,-3.5658,-3.4628,-3.4214,-3.3024,-3.2009,-3.1569,-3.1198,-3.0823,-3.0444,-2.9781,-2.9186,-2.8649,-2.8122,-2.757,-2.7052,-2.7027,-2.6851,-2.6499,-2.6499,-2.6399,0.0,0.0,0.0,0.0,0.0,0.0,0.0,0.0,0.0,0.0,0.0,0.0,0.0,0.0,0.0,0.0,0.0,0.0,0.0,0.0,0.0,0.0,0.0,0.0,0.0,0.0,-6.6311,-6.9602,-7.0171,-7.056,-7.1218,-7.029,-7.0649,-7.3073,-7.4899,-7.6963,-7.9357,-8.1572,-8.3487,-8.5013,-8.6359,-8.7467,-8.8364,-8.8155,-8.8035,-8.8035,-8.7107,-8.6,-8.4684,-8.4265,-8.3008,-8.1123,-8.0883,-7.9776,-7.8041,-7.6754,-7.4779,-7.2295,-6.9423,-6.8046,-6.7478,-6.5922,-6.5323,-6.5173,-6.4126,-6.3288,-6.2421,-6.0416,-5.874,-5.7274,-5.6166,-5.476,-5.3503,-5.3264,-5.3054,-5.2935,-5.3144,-5.2875,-5.2546,-5.2546,-5.087,-4.9254,-4.9164,-4.8118,-4.6761,-4.5335,-4.3886,-4.2384,-4.0584,-3.9142,-3.8102,-3.7624,-3.5919,-3.4555,-3.4161,-3.2764,-3.1643,-3.1235,-3.0973,-3.0672,-3.033,-2.9922,-2.9466,-2.895,-2.8574,-2.8147,-2.7595,-2.7394,-2.7153,-2.6776,-2.66,-2.6499,-2.6499,0.0,0.0,0.0,0.0,0.0,0.0,0.0,0.0,0.0,0.0,0.0,0.0,0.0,0.0,0.0,0.0,0.0,0.0,0.0,0.0,0.0,0.0,0.0,-6.2869,-6.667,-7.0889,-7.5527,-7.6634,-7.7293,-7.7951,-7.7442,-7.7891,-7.9866,-8.1212,-8.2798,-8.4714,-8.606,-8.7077,-8.7736,-8.9023,-8.9711,-8.9711,-8.9052,-8.8693,-8.8663,-8.7317,-8.6,-8.4714,-8.4684,-8.3576,-8.1721,-8.1033,-7.9986,-7.8639,-7.7352,-7.6455,-7.5587,-7.2265,-7.0949,-7.0709,-6.8734,-6.7956,-6.7627,-6.5712,-6.4575,-6.3677,-6.1792,-6.0715,-5.9787,-5.7812,-5.6765,-5.6107,-5.5448,-5.476,-5.4371,-5.4999,-5.4162,-5.3174,-5.3144,-5.1139,-4.9209,-4.8923,-4.7822,-4.6429,-4.4912,-4.43,-4.3564,-4.2199,-4.0047,-3.8522,-3.8522,-3.6207,0.0,-3.3935,-3.2572,-3.1447,-3.1037,-3.0634,-3.033,-3.0126,-3.0126,-2.9758,-2.9001,-2.8913,-2.8662,-2.8147,-2.762,-2.7318,-2.7354,-2.6826,-2.6549,-2.6549,0.0,0.0,0.0,0.0,0.0,0.0,0.0,0.0,0.0,0.0,0.0,0.0,0.0,0.0,0.0,0.0,0.0,0.0,0.0,0.0,0.0,0.0,-6.5233,-6.646,-7.047,-7.4809,-7.8968,-8.0434,-8.1572,-8.2709,-8.2649,-8.2978,-8.3995,-8.5312,-8.6299,-8.6868,-8.8125,-8.8933,-8.9112,-8.992,-9.0369,-9.0369,-8.9711,-8.9142,-8.8663,-8.7317,-8.6,-8.4684,-8.3726,-8.2469,-8.1003,-7.9836,-7.8849,-7.7981,-7.6694,-7.6066,-7.5677,-7.3283,-7.2355,-7.2056,-6.9602,-6.7807,-6.64,-6.5383,-6.4575,-6.3827,-6.2869,-6.2091,-6.1343,-6.0326,-5.889,-5.7453,-5.6765,-5.5777,-5.485,-5.4551,-5.3832,-5.2935,-5.1977,-5.0481,-4.9089,-4.8313,-4.7496,-4.6429,-4.4912,-4.4275,-4.3474,-4.184,-4.0392,-3.9188,-3.8378,-3.6378,0.0,-3.3598,-3.2452,-3.1444,-3.0648,-3.0482,-3.033,-3.0126,-3.0126,-2.9935,-2.9553,-2.9553,-2.9302,-2.8687,-2.8549,-2.8298,-2.7896,-2.772,-2.7645,0.0,0.0,0.0,0.0,0.0,0.0,0.0,0.0,0.0,0.0,0.0,0.0,0.0,0.0,0.0,0.0,0.0,0.0,0.0,0.0,0.0,0.0,-6.6011,-7.038,-7.2984,-7.5886,-7.9028,-8.2439,-8.4265,-8.5551,-8.6299,-8.6389,-8.6659,-8.7317,-8.8095,-8.8634,-8.8903,-8.9651,-9.007,-9.007,-9.0429,-9.0519,-9.0249,-8.9591,-8.8933,-8.8245,-8.6898,-8.5731,-8.4684,-8.3367,-8.205,0.0,-7.9357,-7.825,-7.7322,-7.6305,-7.5736,0.0,0.0,0.0,0.0,0.0,-6.7478,-6.5862,-6.4934,-6.4336,-6.3887,-6.3288,-6.263,-6.1972,-6.1313,-5.9727,-5.7992,-5.7304,-5.5987,-5.47,-5.4311,-5.3503,-5.2516,-5.1468,-5.0212,-4.903,-4.8015,-4.7274,-4.6343,-4.4879,-4.4124,0.0,-4.1621,-4.0183,-3.8977,-3.8165,-3.6218,-3.4414,-3.3315,-3.2292,-3.1293,-3.0343,-3.0177,-3.0126,-2.9972,-2.9972,0.0,0.0,0.0,-2.9528,-2.8913,-2.8888,0.0,0.0,0.0,-2.8097,-2.8097,0.0,0.0,0.0,-2.67,-2.6499,0.0,0.0,0.0,0.0,0.0,0.0,0.0,0.0,0.0,0.0,0.0,0.0,0.0,0.0,0.0,0.0,-7.035,-7.5527,-8.0554,-8.1991,-8.3427,-8.5761,-8.7676,-8.8813,-8.8903,-8.8903,-8.9142,-8.9741,-8.9771,-9.004,-9.0608,0.0,0.0,0.0,0.0,-9.0369,-8.9771,-8.9052,-8.8394,-8.7796,-8.6299,-8.5252,-8.4564,-8.3187,-8.1871,-8.0614,-7.9178,-7.7921,-7.6784,-7.6066,-7.5347,-7.454,-7.3283,-7.2654,-7.2086,-6.9004,-6.7029,-6.5712,-6.4425,0.0,0.0,-6.3258,-6.263,-6.1972,-6.1313,-5.9727,-5.7992,-5.7304,-5.5688,-5.4192,-5.4132,-5.3084,-5.1917,-5.1169,-5.0062,-4.885,-4.7717,-4.6992,-4.6138,-4.4876,-4.3814,-4.2789,-4.1435,-3.9673,-3.8311,-3.7754,-3.5885,-3.4153,-3.3093,-3.2098,-3.1203,-3.0278,0.0,0.0,-2.9804,-2.9804,-2.9804,-2.9804,-2.9804,-2.9553,-2.9013,-2.8988,-2.88,-2.8298,-2.8298,-2.8298,-2.8298,-2.8222,-2.8197,-2.8172,-2.7153,-2.6675,0.0,0.0,0.0,0.0,0.0,0.0,0.0,0.0,0.0,0.0,0.0,0.0,0.0,0.0,0.0,-7.062,-7.5826,-8.0375,-8.3517,-8.591,-8.7526,-8.8035,-8.8903,-8.9681,-9.0219,-9.0249,-9.0309,-9.0429,-9.0459,-9.0519,-9.0638,-9.0638,-9.0638,-9.0638,-9.0638,-9.0579,-9.0459,-8.9292,-8.8634,-8.8454,0.0,0.0,-8.3846,-8.202,-8.0764,-7.9896,-7.8011,-7.7053,-7.6724,-7.5557,-7.436,-7.3223,-7.2415,-7.1128,-6.9542,-6.7807,-6.634,-6.5114,-6.4276,-6.3677,-6.3228,-6.3109,-6.263,-6.1972,-6.1313,-5.9727,0.0,-5.7304,-5.5688,-5.4072,-5.3533,-5.2396,-5.1109,-4.9912,-4.891,-4.7911,-4.6993,-4.6357,-4.5737,-4.4787,-4.3576,-4.2301,-4.0873,-3.9399,-3.8043,-3.694,-3.5657,-3.4302,-3.2854,-3.2118,-3.1396,-3.0586,-3.0094,-2.9804,-2.9804,-2.9804,-2.9804,-2.9804,-2.9804,-2.9754,-2.9628,-2.9628,-2.9578,-2.9478,-2.9453,-2.9453,-2.9453,-2.9001,-2.8737,-2.8712,-2.8097,-2.7795,0.0,0.0,0.0,0.0,0.0,0.0,0.0,0.0,0.0,0.0,0.0,-6.0027,-6.2989,0.0,-7.1368,-7.5677,-7.9956,-8.3696,-8.6329,-8.8125,-8.9172,-8.9172,-8.9741,-9.0279,-9.0608,-9.0638,-9.0638,-9.0638,-9.0638,-9.0638,-9.0638,-9.0638,-9.0638,-9.0638,-9.0638,-9.0309,-8.9681,-8.9023,-8.8334,-8.7646,-8.5671,-8.4384,-8.3666,-8.1691,-8.0434,-7.9716,-7.7711,-7.6814,-7.6724,-7.5407,-7.4091,-7.2804,-7.1787,-7.041,-6.8794,-6.7119,-6.5862,-6.4874,-6.3887,-6.3318,-6.3019,-6.269,-6.2151,-6.1403,-6.0416,-5.8949,-5.7483,-5.6825,-5.5209,-5.3623,-5.3264,-5.1947,-5.0481,-4.9494,-4.8567,-4.7689,-4.6771,-4.6254,-4.5689,-4.501,-4.3551,-4.2025,-4.0968,-3.9438,-3.783,-3.6385,-3.5436,-3.4332,-3.2784,-3.2107,-3.1493,-3.0683,-3.0131,-2.9804,-2.9804,-2.9804,-2.9804,-2.9804,-2.9804,-2.9804,-2.9804,-2.9804,-2.9804,-2.9804,-2.9804,-2.9804,-2.9804,-2.9503,-2.9352,-2.9352,-2.9076,-2.8649,0.0,0.0,0.0,0.0,0.0,0.0,0.0,0.0,-5.8919,-6.0685,-6.3528,-6.658,-6.9363,-7.2924,-7.6634,-8.0345,-8.3517,-8.627,-8.8544,-8.9322,-8.9681,-8.9681,-9.0249,-9.0638,-9.0638,-9.0638,-9.0638,-9.0638,-9.0638,-9.0638,-9.0638,-9.0638,-9.0638,-9.0638,-9.0638,-9.007,-8.8903,-8.8753,-8.8005,-8.6659,-8.5342,-8.4235,-8.3307,-8.1572,-8.0285,-7.9327,-7.7472,-7.6574,-7.6365,-7.5318,-7.4091,-7.2774,-7.1427,-7.0051,-6.8555,-6.655,-6.5413,-6.4665,-6.3498,-6.3079,-6.2959,-6.2301,-6.1642,-6.0864,-5.9518,-5.8171,-5.6974,-5.6346,-5.473,-5.3174,-5.3174,-5.1618,-4.9912,-4.9449,-4.8477,-4.7422,-4.6698,-4.609,-4.5595,-4.5092,-4.3515,-4.2048,-4.1175,-3.9593,-3.7859,-3.5997,-3.5295,-3.4384,-3.2878,-3.2143,-3.1478,-3.0809,-3.0181,-2.9804,-2.9804,-2.9804,-2.9804,-2.9804,-2.9804,-2.9804,-2.9804,-2.9804,-2.9804,-2.9804,-2.9804,-2.9804,-2.9804,-2.9804,-2.9804,-2.9804,-2.9804,-2.9302,-5.3384,-5.2785,-5.3054,-5.4311,-5.5598,-5.7184,0.0,0.0,-6.4126,-6.7238,-7.0051,-7.2894,-7.6125,-7.8998,-8.1811,-8.4594,-8.6838,-8.8544,-8.9441,-8.9621,-8.9681,-8.9681,-9.0249,-9.0638,-9.0638,-9.0638,-9.0638,-9.0638,-9.0638,-9.0638,-9.0638,-9.0638,-9.0638,-9.0638,-9.0638,-9.0279,-8.9561,-8.8993,-8.8005,-8.6659,-8.5342,-8.3756,-8.1961,-8.1153,-7.9776,-7.7951,-7.6604,-7.5647,-7.5078,-7.4929,-7.4091,-7.2774,-7.1427,-6.9752,-6.7837,-6.5862,-6.4695,-6.4006,-6.3318,-6.3079,-6.2959,-6.2301,-6.1642,-6.0864,-5.9518,-5.8171,-5.6974,-5.6346,-5.473,-5.3174,-5.3174,-5.1289,-4.9389,-4.9329,-4.7986,-4.6624,-4.6314,-4.5656,-4.5046,-4.4583,-4.351,-4.2315,-4.1071,-4.0033,-3.847,-3.5941,-3.5258,-3.4603,-3.3205,-3.2106,-3.1402,-3.1311,-3.0407,-2.9804,-2.9804,-2.9804,-2.9804,-2.9804,-2.9804,-2.9804,-2.9804,-2.9804,-2.9804,-2.9804,-2.9804,-2.9804,-2.9804,-2.9804,-2.9804,-2.9804,-2.9804,-2.9729,-5.3832,-5.3743,-5.476,0.0,-5.9009,-6.1822,-6.4485,-6.7208,-7.0021,-7.2954,-7.5347,-7.7831,-8.0734,-8.2798,-8.4803,0.0,-8.8454,-8.9352,-8.9621,-8.9322,-8.8813,-8.8005,-8.7826,-8.8215,-8.9382,-8.986,-9.007,-9.007,-9.0429,-9.0638,-9.0638,-9.0638,-9.0638,-9.0638,-9.0279,-8.9771,-8.9112,-8.8454,-8.7437,-8.609,-8.4773,-8.3307,-8.1751,-8.0704,-7.9148,-7.7203,-7.6305,-7.5527,-7.4839,-7.445,-7.3762,-7.2744,-7.1009,-6.9123,-6.7208,-6.5622,-6.4605,-6.3917,-6.3288,-6.3079,-6.2899,-6.1852,-6.1343,-6.0715,-5.859,-5.7543,-5.6885,-5.5897,-5.4431,-5.3174,-5.3174,-5.1276,-4.9299,-4.9299,-4.7911,-4.6535,-4.6447,-4.573,-4.5,-4.4676,-4.35,-4.2117,-4.0817,-3.9714,-3.8286,-3.6063,-3.5513,-3.4895,-3.369,-3.2566,-3.1637,-3.1009,-3.0256,-2.9804,-2.9804,-2.9804,-2.9804,-2.9804,-2.9804,-2.9804,-2.9804,-2.9804,-2.9804,-2.9804,-2.9804,-2.9804,-2.9804,-2.9804,-2.9804,-2.9804,-2.9804,-2.9804,-5.491,0.0,0.0,-5.9727,-6.3109,-6.661,-6.9273,-7.2295,-7.5168,-7.7472,-7.9507,-8.1542,-8.3606,-8.5073,-8.6569,-8.8394,-8.9232,-8.9681,-8.9681,-8.8933,-8.7856,-8.6329,-8.5402,-8.5372,-8.6659,-8.8035,-8.8993,-8.9382,-9.001,-9.0429,-9.0638,-9.0638,-9.0638,-9.0638,-9.001,-8.9352,-8.8693,-8.7856,-8.6748,-8.5402,-8.4085,-8.2769,-8.1452,-7.9746,-7.81,-7.6544,-7.5886,-7.5347,-7.4839,-7.418,-7.3492,-7.2714,-7.0709,-6.8734,-6.6819,-6.5503,-6.4485,-6.3677,-6.3228,-6.3079,-6.2869,-6.1553,-6.1104,-6.0595,-5.7902,-5.7094,-5.6825,-5.5538,-5.4221,-5.3174,-5.3174,-5.1349,-4.9494,-4.9359,-4.8075,-4.686,-4.655,-4.5821,-4.5092,-4.4658,-4.3518,-4.2249,-4.087,-3.9764,-3.8465,-3.6739,-3.6044,-3.5283,-3.4086,-3.2918,-3.1813,-3.0693,-3.0256,-2.9955,-2.9804,-2.9804,-2.9804,-2.9804,-2.9804,-2.9804,-2.9804,-2.9804,-2.9804,-2.9804,-2.9804,-2.9804,-2.9804,-2.9804,-2.9804,-2.9804,-2.9804,-2.9804,0.0,0.0,-6.1702,-6.4964,-6.8256,-7.1398,-7.4061,-7.6724,-7.8998,-8.0405,-8.226,-8.3846,-8.4564,-8.5761,-8.7107,-8.8454,-8.9232,-8.9681,-8.9681,-8.8544,-8.6988,-8.5013,-8.3636,-8.2619,0.0,-8.4893,-8.7317,-8.8604,-8.9322,-8.998,-9.0608,-9.0638,-9.0638,-9.0638,-9.001,-8.9352,-8.8693,-8.7377,-8.606,-8.4714,-8.3427,-8.211,-8.0734,-7.813,-7.6544,-7.5886,-7.5198,-7.4899,-7.4839,-7.418,-7.3492,-7.2714,-7.0739,-6.8764,-6.6819,-6.5503,-6.4216,-6.3109,-6.3079,-6.3079,-6.2869,-6.1553,-6.1104,-6.0595,-5.7902,-5.7094,-5.6825,-5.5538,-5.4221,-5.3174,-5.3174,-5.1708,-5.0016,-4.9404,-4.8537,-4.757,-4.6431,-4.5821,-4.5184,-4.4209,-4.3642,-4.2849,-4.1437,-4.0516,-3.9506,-3.8126,-3.698,-3.5717,-3.4092,-3.2918,-3.1813,-3.0693,-3.0608,-3.0382,-2.9829,-2.9804,-2.9804,-2.9804,-2.9804,-2.9804,-2.9804,-2.9804,-2.9804,-2.9804,-2.9804,-2.9804,-2.9804,-2.9804,-2.9804,-2.9804,-2.9804,-2.9804,0.0,0.0,-6.5144,-6.8435,-7.2086,-7.5407,-7.7652,-7.9507,-8.0913,-8.1362,-8.1961,-8.238,-8.214,-8.3187,-8.4354,-8.5252,-8.6689,-8.7676,-8.7676,-8.6928,-8.5641,-8.3666,-8.1871,0.0,0.0,0.0,0.0,-8.6599,-8.8125,-8.9292,-8.995,-9.0399,-9.0429,-9.001,-8.9352,-8.8484,-8.7347,-8.6479,-8.5372,-8.4055,-8.229,-8.0524,-7.8759,-7.7442,-7.6485,-7.5856,-7.5168,-7.4629,-7.418,-7.3522,-7.2595,-7.1427,-6.9931,-6.8106,-6.6221,-6.5353,-6.4186,-6.3079,-6.3079,-6.3079,-6.2869,-6.1553,-6.1104,-6.0595,-5.7902,-5.7094,-5.6825,-5.5538,-5.4551,-5.3743,-5.3294,-5.2037,-5.0674,-5.0062,-4.8759,-4.7583,-4.7242,-4.6049,-4.4815,-4.4134,-4.3355,-4.2372,-4.098,-4.0013,-3.8925,-3.7402,-3.6333,-3.5335,-3.4048,-3.3244,-3.2365,-3.126,-3.0809,-3.0382,-2.9854,-2.9804,-2.9804,-2.9804,-2.9804,-2.9804,-2.9804,-2.9804,-2.9804,-2.9804,-2.9804,-2.9804,-2.9804,-2.9804,-2.9804,-2.9804,-2.9804,-2.9804,0.0,-6.6311,-6.9901,-7.2954,-7.6185,-7.8938,-8.0225,-8.1183,-8.1512,-8.0554,-8.0016,-7.9417,-7.8489,-7.9208,-8.0375,-8.1751,-8.4025,-8.5791,-8.627,-8.615,-8.5222,-8.3008,-8.1452,-8.0345,0.0,0.0,0.0,-8.5222,-8.7197,-8.8723,-8.9621,-9.007,-9.01,-8.9681,-8.8813,-8.7796,-8.6689,-8.5791,-8.4444,-8.2649,-8.0913,-7.9178,-7.7442,-7.6784,-7.6155,-7.5497,-7.4809,-7.43,-7.3821,-7.2924,-7.1906,-7.0769,-6.9512,-6.7777,-6.5922,-6.5263,-6.4186,-6.3079,-6.3079,-6.3079,-6.2869,-6.1553,-6.1104,-6.0595,-5.7902,-5.7094,-5.6825,-5.5538,-5.473,-5.4102,-5.3653,-5.2479,-5.1267,-5.0581,-4.9258,-4.8005,-4.7444,-4.6062,-4.4744,-4.3974,-4.3039,-4.2035,-4.1074,-3.9901,-3.8637,-3.7355,-3.637,-3.5454,-3.4349,-3.3721,-3.2943,-3.1813,-3.121,-3.0683,-3.0131,-2.9905,-2.9804,-2.9804,-2.9804,-2.9804,-2.9804,-2.9804,-2.9804,-2.9804,-2.9804,-2.9804,-2.9804,-2.9804,-2.9804,-2.9804,-2.9804,-2.9804,-6.7238,-7.1697,-7.5796,-7.837,-8.0434,-8.1811,-8.1751,-8.1631,-8.0764,-7.8011,-7.6425,-7.5078,0.0,0.0,-7.5377,-7.8011,-8.1302,-8.4025,-8.5402,-8.618,-8.5701,0.0,0.0,0.0,0.0,0.0,0.0,-8.4534,0.0,-8.8185,-8.9501,-8.9591,-8.9591,-8.9561,-8.8334,-8.7317,-8.6569,-8.5252,-8.3307,-8.0794,-7.9417,-7.81,-7.6814,-7.6185,-7.5527,-7.4839,-7.418,-7.3881,-7.3732,-7.2385,-7.1427,-7.0679,-6.9423,-6.7717,-6.5892,-6.5263,-6.4186,-6.3079,-6.3079,-6.3079,-6.2869,-6.1553,-6.1104,-6.0625,-5.7962,-5.7124,-5.6825,-5.5598,-5.476,-5.4251,-5.4221,-5.3039,-5.1665,-5.103,-4.9923,-4.8628,-4.7143,-4.5987,-4.4909,-4.3772,-4.2701,-4.1918,-4.1644,-4.0037,-3.8646,-3.8082,-3.7093,-3.6006,-3.4876,-3.4274,-3.3495,-3.234,-3.1738,-3.121,-3.0708,-3.0181,-2.988,-2.988,-2.9854,-2.9829,-2.9829,-2.9804,-2.9804,-2.9804,-2.9804,-2.9804,-2.9804,-2.9804,-2.9804,-2.9804,-2.9804,-2.9804,-7.2056,-7.6125,-7.9686,-8.1332,-8.214,-8.226,-8.1272,-7.9507,-7.7053,-7.3402,-7.1248,-6.9273,0.0,0.0,0.0,-7.3223,-7.7682,0.0,-8.3906,-8.5222,0.0,-8.4354,0.0,-8.238,-8.205,-8.217,0.0,0.0,-8.5641,-8.6778,-8.8125,-8.8663,-8.8723,-8.8215,-8.7377,-8.6389,-8.5222,-8.3427,-8.1931,-8.0794,-7.9417,-7.81,-7.6814,-7.6185,-7.5527,-7.4839,-7.418,-7.3612,-7.3073,-7.1697,-7.05,-6.9393,-6.8555,-6.7029,-6.5263,-6.5084,-6.4186,-6.3079,-6.3079,-6.3079,-6.2869,-6.1553,-6.1104,-6.0715,-5.853,-5.7513,-5.6944,-5.6137,-5.5448,-5.482,-5.4341,-5.3396,-5.2397,-5.1713,-5.0007,-4.8269,-4.7413,-4.5605,-4.3819,-4.2879,-4.1743,-4.0767,-4.0227,-3.957,-3.8837,-3.7845,-3.7301,-3.6433,-3.4926,-3.46,-3.3922,-3.2365,-3.2089,-3.1788,-3.1235,-3.106,-3.0984,-3.0984,-3.0608,-3.0407,-3.0407,-3.0005,-2.9804,-2.9804,-2.9804,-2.9804,-2.9804,-2.9804,-2.9804,-2.9804,-2.9804,-2.9804,-7.6993,-8.0375,-8.3128,-8.3876,-8.3187,-8.1751,-7.9567,-7.6335,-7.2624,-6.8345,-6.5443,0.0,-6.1702,-6.3348,0.0,0.0,0.0,0.0,-8.3726,-8.5821,-8.6778,0.0,-8.5372,0.0,-8.4504,-8.4474,-8.4773,0.0,-8.591,-8.6599,-8.7646,-8.8065,-8.8095,-8.7706,-8.6748,-8.5492,-8.3876,-8.22,-8.1003,-8.0345,-7.8699,-7.7532,-7.6784,-7.5886,-7.5258,-7.4839,0.0,-7.3253,-7.2804,-7.1158,-6.9901,-6.8944,-6.8256,-6.6759,-6.5024,-6.5024,-6.4186,-6.3079,-6.3079,-6.3079,-6.2899,-6.1882,-6.1343,-6.0805,-5.9069,-5.7872,-5.6974,-5.6346,-5.5637,-5.4878,-5.4221,-5.3138,-5.2141,-5.1444,-4.9725,-4.7934,-4.7099,-4.5281,-4.3352,-4.1852,-4.0971,-4.0389,-4.0055,-3.9624,-3.8992,-3.8079,-3.7531,-3.6684,-3.5232,-3.4831,-3.4274,-3.3068,-3.2516,-3.2089,-3.1788,-3.1537,-3.1386,-3.1386,-3.111,-3.0959,-3.0959,-3.0658,-3.0382,-3.0156,-3.0156,-3.003,-2.9804,-2.9804,-2.9804,-2.9804,-2.9804,-2.9804,-8.1721,-8.4145,-8.591,-8.5731,-8.3517,-8.0464,-7.6963,-7.2415,-6.7627,-6.2989,0.0,-5.7042,-5.7184,-5.8919,-6.2271,-6.8166,0.0,-7.9447,-8.3606,-8.6569,-8.8155,-8.7766,-8.7796,-8.7586,-8.6988,-8.6958,-8.6898,-8.6808,-8.6808,-8.7048,-8.7556,-8.7556,-8.7496,-8.7317,-8.618,-8.4624,-8.2649,-8.1422,-8.0464,-7.9806,-7.7771,-7.6814,-7.6784,-7.5467,-7.4869,-7.4809,0.0,0.0,-7.2774,-7.0799,-6.9602,-6.8944,-6.8256,-6.6759,-6.5024,-6.5024,-6.4186,-6.3079,-6.3079,-6.3079,-6.2959,-6.2301,-6.1642,-6.0894,-5.9608,-5.8231,-5.6974,-5.6436,-5.5573,-5.4654,-5.3941,-5.2658,-5.141,-5.083,-4.9316,-4.7617,-4.6567,-4.4861,-4.2963,-4.0798,-4.0389,-4.0389,-4.0389,-3.9804,-3.9145,-3.8562,-3.781,-3.691,-3.5859,-3.5182,-3.46,-3.3972,-3.3018,-3.2416,-3.234,-3.1888,-3.1612,-3.1612,-3.1537,-3.1486,-3.1486,-3.1436,-3.1185,-3.0733,-3.0658,-3.0382,-2.9905,-2.9829,-2.9804,-2.9804,-2.9804,-2.9804,-8.5252,-8.6569,-8.7077,-8.597,-8.2469,-7.816,-7.3791,-6.7956,0.0,0.0,-5.3922,-5.172,-5.2306,-5.4491,-5.8141,-6.4066,-7.0051,-7.5707,-8.0764,-8.4205,-8.6599,0.0,0.0,0.0,0.0,0.0,0.0,0.0,0.0,-8.7317,-8.6868,-8.6868,-8.6359,-8.5282,-8.5013,-8.3936,-8.1961,-8.1183,-8.0464,-7.9806,-7.7771,-7.6814,-7.6784,-7.5467,-7.4869,-7.4809,-7.3492,0.0,-7.2774,-7.0799,-6.9602,-6.8944,-6.8256,-6.6759,-6.5024,-6.5024,-6.4186,-6.3079,-6.3079,-6.3079,-6.2959,-6.2301,-6.1642,-6.0954,-6.0146,-5.859,-5.7064,-5.6974,-5.5901,-5.4654,-5.3941,-5.2557,-5.1157,-5.0801,-4.8833,-4.6912,-4.65,-4.4127,-4.1621,-4.0107,-3.9852,-3.9852,-3.9852,-3.9725,-3.9422,-3.8919,-3.829,-3.7638,-3.6985,-3.6031,-3.4981,-3.3997,-3.3721,-3.342,-3.2968,-3.2842,-3.2835,-3.2835,-3.234,-3.2064,-3.2064,-3.1637,-3.1361,-3.126,-3.0834,-3.0557,-3.0482,-3.0005,-2.9804,-2.9804,-2.9804,-2.9804,-8.7287,-8.7975,-8.7736,-8.5701,-8.1452,-7.6215,-7.0201,0.0,0.0,0.0,-4.9793,-4.8252,-4.8581,-5.1678,0.0,-6.1104,-6.7537,-7.3582,-7.8549,-8.2978,0.0,0.0,0.0,0.0,0.0,0.0,0.0,0.0,0.0,-8.7766,-8.6718,-8.6359,-8.5731,-8.4743,-8.4055,-8.2918,-8.1302,-8.0614,-7.9956,-7.9267,-7.7622,-7.6814,-7.6784,-7.5467,-7.4869,-7.4809,-7.3851,0.0,-7.2774,-7.1128,-6.9901,-6.8944,-6.8256,-6.6759,-6.5024,-6.5024,-6.4186,-6.3079,-6.3079,-6.3079,-6.2959,-6.2301,-6.153,-6.082,-6.0492,-5.8624,-5.6674,-5.6674,-5.544,-5.4009,-5.3334,-5.1741,-5.0205,-4.9915,-4.7917,-4.5885,-4.5069,-4.3204,-4.1389,-4.0331,-3.9898,-3.9697,-3.9697,-3.9697,-3.9496,-3.8994,-3.8642,-3.814,-3.7287,-3.6734,-3.5981,-3.4831,-3.4248,-3.3796,-3.352,-3.3244,-3.3111,-3.3111,-3.2817,-3.2667,-3.2667,-3.2416,-3.2139,-3.1813,-3.1562,-3.1311,-3.1009,-3.0482,-3.0231,-3.0206,-2.993,-2.9804,-8.8274,-8.8693,-8.8005,-8.5192,-8.0315,-7.43,-6.7029,-6.0535,0.0,-4.8805,-4.6501,-4.5574,-4.5843,-4.9194,-5.3443,0.0,-6.4425,-7.053,-7.5437,-8.0674,0.0,0.0,0.0,0.0,0.0,0.0,0.0,0.0,0.0,0.0,-8.6509,-8.597,-8.5342,-8.4534,-8.3367,-8.214,-8.0823,-8.0165,-7.9387,-7.8579,-7.7382,-7.6754,-7.6604,-7.5407,-7.4869,-7.4839,-7.418,0.0,0.0,-7.1607,-7.029,-6.8944,-6.8405,-6.6909,-6.5024,-6.5024,-6.4186,-6.3079,-6.3079,-6.3079,-6.2959,-6.2244,-6.133,-6.0595,-6.0446,-5.8445,-5.6225,-5.6225,-5.4807,-5.3145,-5.2561,-5.097,-4.9322,-4.8467,-4.6796,-4.502,-4.3591,-4.2523,-4.1619,-4.0656,-4.0174,-3.9823,-3.9722,-3.9697,-3.9546,-3.912,-3.8994,-3.8592,-3.7663,-3.7337,-3.686,-3.5934,-3.4901,-3.4148,-3.3922,-3.3495,-3.3194,-3.3136,-3.3111,-3.3111,-3.3111,-3.3111,-3.2867,-3.2416,-3.2265,-3.1989,-3.1562,-3.1035,-3.0733,-3.0608,-3.0181,-2.9905,-8.8155,-8.8693,-8.7915,-8.4624,-7.8968,-7.2265,-6.4994,0.0,-5.1289,-4.6531,-4.4047,-4.3129,-4.4287,-4.6322,-4.9374,-5.4012,-5.883,-6.4036,-6.9871,-7.5228,0.0,0.0,0.0,0.0,0.0,0.0,0.0,0.0,0.0,0.0,-8.5791,-8.5731,-8.5103,-8.3876,-8.3128,-8.214,-8.0823,-8.0165,-7.9178,-7.7891,-7.7173,-7.6544,-7.5976,-7.5228,-7.4869,-7.4839,-7.418,0.0,0.0,-7.2116,-7.0679,-6.9004,-6.8944,-6.7328,-6.5024,-6.5024,-6.4186,-6.3079,-6.3079,-6.3079,-6.2959,-6.1928,-6.1159,-6.0506,-5.9912,-5.801,-5.5933,-5.5933,-5.438,-5.2534,-5.1957,-5.0696,-4.8954,-4.6482,-4.5523,-4.4702,-4.3022,-4.2573,-4.2109,-4.0754,-4.0475,-4.0275,-3.9772,-3.9697,-3.9672,-3.9622,-3.9195,-3.8894,-3.8768,-3.7814,-3.7136,-3.7036,-3.6056,-3.4931,-3.3972,-3.3847,-3.3621,-3.3119,-3.3111,-3.3111,-3.3111,-3.3111,-3.3043,-3.2993,-3.2491,-3.219,-3.2139,-3.1587,-3.1085,-3.0608,-3.0557,-3.0281,-8.612,-8.7467,-8.7287,-8.3995,-7.8489,-7.1787,-6.3737,0.0,-5.078,-4.5753,-4.3778,-4.3,-4.312,-4.5424,-4.8177,-5.081,-5.5448,-6.0356,-6.5144,0.0,0.0,0.0,0.0,0.0,0.0,0.0,0.0,0.0,0.0,0.0,-8.4564,-8.4504,-8.4085,-8.3187,-8.214,-8.1153,-8.0225,-7.9537,-7.8729,-7.7801,-7.7143,-7.6514,-7.5886,-7.5198,-7.4869,-7.4869,-7.4599,0.0,0.0,-7.2624,-7.1128,-6.9004,-6.9004,-6.7388,-6.5024,-6.5024,-6.4186,-6.3079,-6.2847,-6.2789,-6.2612,-6.1408,-6.0325,-5.9392,-5.8722,-5.6905,-5.4994,-5.4623,-5.3218,-5.1738,-5.1344,-4.9968,-4.815,-4.5649,-4.5096,-4.4759,-4.3369,-4.2848,-4.2359,-4.1634,-4.0978,-4.045,-4.0224,-3.9923,-3.9697,-3.9697,-3.9496,-3.9245,-3.8969,-3.8517,-3.7939,-3.7262,-3.6207,-3.5332,-3.4881,-3.4575,-3.4148,-3.3596,-3.3571,-3.342,-3.3093,-3.3111,-3.3111,-3.3111,-3.2842,-3.2742,-3.2742,-3.2164,-3.1788,-3.1562,-3.1235,-3.0783,-8.2709,-8.4773,-8.5192,-8.208,-7.6844,-7.035,0.0,0.0,-5.0242,-4.5334,-4.3629,-4.291,-4.25,-4.4586,-4.692,-4.8446,-5.2606,-5.7034,-6.1044,-6.655,0.0,0.0,0.0,0.0,0.0,0.0,0.0,0.0,0.0,0.0,0.0,-8.3367,-8.2948,-8.2499,-8.1392,-8.0494,-7.9836,-7.8938,-7.816,-7.7502,-7.6874,-7.6215,-7.5587,-7.5108,-7.4869,-7.4869,0.0,0.0,0.0,-7.2924,-7.1368,-6.8974,-6.8764,-6.7208,-6.4994,-6.4814,-6.4036,-6.3079,-6.2731,-6.2556,-6.2204,-6.0794,-5.9447,-5.8165,-5.7128,-5.5613,-5.4083,-5.3607,-5.2226,-5.0743,-5.0146,-4.8873,-4.7328,-4.5468,-4.5078,-4.4796,-4.3762,-4.3245,-4.2835,-4.2288,-4.153,-4.0953,-4.0802,-4.03,-3.9948,-3.9948,-3.9798,-3.9546,-3.917,-3.902,-3.8567,-3.7764,-3.6684,-3.5859,-3.5533,-3.5132,-3.4726,-3.4173,-3.3997,-3.3721,-3.3345,-3.3169,-3.3111,-3.3111,-3.3111,-3.3111,-3.3111,-3.2667,-3.2365,-3.2215,-3.1813,-3.126,-7.7801,-8.0315,-8.1212,-7.8519,-7.3432,-6.7298,0.0,-5.4521,-4.9089,-4.5125,-4.3269,-4.241,-4.241,-4.3449,-4.5005,-4.701,-5.0092,-5.3623,-5.7633,-6.275,0.0,0.0,0.0,0.0,0.0,0.0,0.0,0.0,0.0,0.0,0.0,-8.2499,-8.1811,-8.1781,-8.1153,-8.0494,-7.9836,-7.8489,-7.7502,-7.6814,-7.6215,-7.5557,-7.4899,-7.4869,-7.4869,0.0,0.0,0.0,0.0,-7.2924,-7.1368,-6.8944,-6.8256,-6.6759,-6.4934,-6.4276,-6.3617,-6.3079,-6.2731,-6.2351,-6.1821,-6.0202,-5.8674,-5.7029,-5.5053,-5.4014,-5.3554,-5.3175,-5.1539,-4.9584,-4.8127,-4.7263,-4.6676,-4.6035,-4.5487,-4.4871,-4.3972,-4.379,-4.3463,-4.2414,-4.2213,-4.1957,-4.1376,-4.0877,-4.0501,-4.0501,-4.0049,-3.9697,-3.9697,-3.922,-3.8919,-3.8894,-3.7839,-3.6734,-3.5583,-3.5483,-3.5257,-3.4751,-3.4198,-3.3897,-3.3897,-3.337,-3.3111,-3.3111,-3.3111,-3.3111,-3.3111,-3.3111,-3.2767,-3.2215,-3.2215,-3.1637,-7.2206,-7.454,-7.5288,-7.3522,-6.9303,-6.3977,-5.7842,-5.2875,-4.8566,-4.5035,-4.3629,-4.303,-4.303,-4.4107,-4.5484,-4.707,-4.9673,-5.2905,0.0,0.0,0.0,0.0,0.0,0.0,0.0,0.0,0.0,0.0,0.0,0.0,0.0,-8.202,-8.1572,-8.1123,-8.0464,-7.9806,-7.9118,-7.825,-7.7472,-7.6814,-7.6215,-7.5557,-7.4869,-7.4869,0.0,0.0,0.0,0.0,0.0,-7.1906,-7.053,-6.8884,-6.7747,-6.6249,-6.4666,-6.3981,-6.3149,-6.2351,-6.185,-6.1404,-6.0865,-5.9447,-5.7824,-5.6046,-5.4548,-5.3352,-5.2364,-5.1172,-4.9923,-4.8718,-4.7846,-4.7232,-4.6603,-4.5809,-4.5523,-4.5187,-4.4493,-4.4066,-4.3689,-4.3338,-4.2715,-4.2162,-4.1932,-4.1455,-4.0899,-4.0576,-4.0375,-4.0124,-3.9747,-3.9546,-3.9295,-3.8969,-3.8592,-3.7889,-3.6759,-3.6332,-3.5881,-3.5282,-3.5082,-3.4806,-3.4474,-3.4299,-3.4022,-3.3646,-3.3646,-3.3445,-3.3111,-3.3111,-3.2993,-3.2792,-3.239,-3.2039,-6.4934,-6.7448,-6.8196,-6.7089,-6.3737,-5.9458,-5.476,-5.081,-4.7429,-4.4855,-4.3738,-4.329,-4.329,-4.4407,-4.5723,-4.707,-4.9494,-5.2606,0.0,0.0,0.0,0.0,0.0,0.0,0.0,0.0,0.0,0.0,0.0,0.0,0.0,-8.1542,-8.1123,-8.0464,-8.0045,-7.9357,-7.843,-7.7771,-7.7113,-7.6485,-7.5826,-7.5288,-7.4869,-7.4869,0.0,0.0,0.0,0.0,0.0,-7.1457,-7.0141,-6.8854,-6.7238,-6.58,-6.4516,-6.3565,-6.2647,-6.1791,-6.1224,-6.0592,-5.983,-5.8522,-5.6496,-5.4303,-5.2862,-5.2045,-5.1242,-4.9948,-4.9066,-4.8359,-4.7582,-4.7005,-4.6465,-4.5933,-4.5799,-4.5648,-4.507,-4.4669,-4.4317,-4.389,-4.3237,-4.2766,-4.2564,-4.2007,-4.153,-4.1178,-4.0777,-4.04,-4.0049,-3.9823,-3.9572,-3.922,-3.9045,-3.8642,-3.7889,-3.7159,-3.6433,-3.5881,-3.5608,-3.5332,-3.5006,-3.4826,-3.455,-3.4223,-3.3997,-3.3721,-3.3395,-3.3212,-3.3111,-3.3111,-3.2692,-3.2416,0.0,-5.9308,-6.0326,-5.9727,-5.7184,-5.4162,-5.1528,-4.8506,0.0,-4.4526,-4.3708,-4.329,-4.3349,-4.4436,-4.5753,-4.716,-4.9553,-5.2606,0.0,0.0,0.0,0.0,0.0,0.0,0.0,0.0,0.0,0.0,0.0,0.0,0.0,-8.1093,-8.0405,-7.9686,-7.9686,-7.9088,-7.7831,-7.7113,-7.6485,-7.5886,-7.5198,-7.4869,-7.4869,-7.4869,0.0,0.0,0.0,0.0,0.0,-7.1338,-7.0081,-6.8794,-6.6729,-6.5322,-6.4337,-6.3031,-6.2057,-6.1375,-6.0684,-5.983,-5.8718,-5.724,-5.4719,-5.2009,-5.0523,-5.0295,-5.0359,-4.9558,-4.8937,-4.8317,-4.7392,-4.6778,-4.6351,-4.6326,-4.6301,-4.6175,-4.5648,-4.5522,-4.5171,-4.4116,-4.3865,-4.3639,-4.3112,-4.264,-4.2263,-4.2213,-4.1279,-4.0601,-4.0526,-4.0074,-3.9747,-3.9697,-3.922,-3.8969,-3.8919,-3.7839,-3.7008,-3.6505,-3.5906,-3.5558,-3.5558,-3.5082,-3.4826,-3.4776,-3.4248,-3.3947,-3.3897,-3.3395,-3.3162,-3.3111,-3.3111,-3.2792,-4.8596,0.0,-5.4371,-5.473,-5.3084,-5.084,0.0,-4.683,-4.5155,-4.3798,-4.3409,-4.3439,-4.3947,-4.4736,-4.5903,-4.7758,-4.9823,-5.2785,0.0,0.0,0.0,0.0,0.0,0.0,0.0,0.0,0.0,0.0,0.0,0.0,0.0,-8.0405,-7.9507,-7.831,-7.828,-7.813,-7.7801,-7.6694,-7.6036,-7.5886,-7.5198,-7.4869,-7.4869,-7.4869,0.0,0.0,0.0,0.0,-7.1996,-7.0201,-6.9273,-6.8764,-6.6251,-6.4664,-6.3642,-6.235,-6.0926,-5.9707,-5.9273,-5.8305,-5.6801,-5.4561,-5.2944,-5.1681,-5.0459,-4.9976,-4.9822,-4.9568,-4.914,-4.8561,-4.7883,-4.733,-4.6828,-4.6401,-4.6301,-4.6276,-4.615,-4.5773,-4.5422,-4.5146,-4.4392,-4.3765,-4.3639,-4.3162,-4.269,-4.2263,-4.1986,-4.148,-4.0626,-4.04,-4.0149,-3.9747,-3.9572,-3.932,-3.8944,-3.7839,-3.7136,-3.6985,-3.6483,-3.6182,-3.6182,-3.6056,-3.578,-3.5307,-3.4781,-3.4324,-3.3897,-3.3771,-3.3495,-3.3111,-3.3111,-3.2993,-4.5963,-4.7878,-4.9673,-5.0331,-4.9224,-4.7698,-4.6621,-4.5364,-4.4197,-4.3439,-4.3529,-4.3858,-4.4257,-4.5364,-4.677,-4.8446,-5.09,0.0,0.0,0.0,0.0,0.0,0.0,0.0,0.0,0.0,0.0,0.0,0.0,0.0,0.0,-7.9716,-7.8878,-7.7831,-7.7233,-7.6933,-7.6933,-7.6245,-7.5736,-7.5437,-7.5048,-7.4869,-7.4869,-7.4569,-7.424,0.0,0.0,0.0,-7.1308,-6.9662,-6.8645,-6.7867,-6.5832,-6.4217,-6.2988,-6.1785,-6.032,-5.8864,-5.8424,-5.7119,-5.5274,-5.3034,-5.1976,-5.1377,-5.0201,-4.9719,-4.959,-4.959,-4.9188,-4.8711,-4.8385,-4.7732,-4.7054,-4.6753,-4.6502,-4.6301,-4.6301,-4.6075,-4.5799,-4.5547,-4.4769,-4.4091,-4.384,-4.3338,-4.2886,-4.264,-4.2363,-4.1986,-4.1354,-4.0827,-4.04,-4.0099,-3.9848,-3.9572,-3.927,-3.8467,-3.7739,-3.7211,-3.6958,-3.6681,-3.6405,-3.6405,-3.6107,-3.5508,-3.5207,-3.4781,-3.4274,-3.4022,-3.3746,-3.3445,-3.3194,-3.3111,-4.5771,-4.619,-4.6488,-4.7399,-4.6591,-4.5603,-4.5603,-4.4586,-4.3589,-4.3589,-4.4077,-4.4556,-4.4855,-4.6381,-4.8177,0.0,0.0,0.0,0.0,0.0,0.0,0.0,0.0,0.0,0.0,0.0,0.0,0.0,0.0,0.0,0.0,-7.9058,-7.834,-7.7682,-7.6514,-7.5856,-7.5736,-7.5736,-7.5467,-7.4869,-7.4869,-7.4839,-7.4719,-7.4151,-7.3791,0.0,0.0,0.0,-7.0649,-6.9273,-6.8016,-6.6849,-6.5413,-6.3921,-6.2431,-6.1399,-5.9953,-5.8325,-5.7431,-5.5973,-5.4128,-5.2435,-5.1589,-5.1096,-5.0042,-4.9665,-4.959,-4.959,-4.9264,-4.8887,-4.8786,-4.8008,-4.723,-4.7093,-4.6702,-4.6301,-4.6301,-4.6301,-4.6175,-4.5698,-4.5146,-4.4568,-4.4016,-4.3463,-4.3062,-4.2986,-4.264,-4.2313,-4.2213,-4.1354,-4.0701,-4.0526,-4.0099,-3.9798,-3.9697,-3.927,-3.8592,-3.7513,-3.7287,-3.6935,-3.643,-3.6405,-3.6132,-3.5633,-3.5633,-3.5357,-3.4806,-3.4374,-3.4098,-3.4022,-3.3545,-3.3294,-4.5095,-4.5873,-4.6741,-4.8506,-4.7967,-4.701,-4.701,-4.5963,-4.4975,-4.4975,-4.5065,-4.5663,-4.7369,-4.8386,-5.0168,0.0,0.0,0.0,0.0,0.0,0.0,0.0,0.0,0.0,0.0,0.0,0.0,0.0,0.0,0.0,0.0,-7.8639,-7.7652,-7.6993,-7.6275,-7.5617,-7.5048,-7.5018,-7.4988,-7.4869,-7.4869,-7.4569,-7.4031,-7.3941,-7.3283,0.0,0.0,-7.0709,-6.9961,-6.8076,-6.7178,-6.6789,-6.4904,-6.3327,-6.2067,-6.1065,-5.9273,-5.7082,-5.5246,-5.4376,-5.3868,-5.2515,-5.1716,-5.1147,-5.0494,-4.9967,-4.959,-4.959,-4.954,-4.9364,-4.8887,-4.8284,-4.7682,-4.723,-4.6702,-4.6301,-4.6301,-4.6301,-4.6276,-4.62,-4.5748,-4.5171,-4.4593,-4.4041,-4.3514,-4.3062,-4.2911,-4.274,-4.2263,-4.2062,-4.1555,-4.0626,-4.045,-4.0199,-3.9747,-3.9622,-3.9295,-3.8693,-3.7713,-3.6935,-3.643,-3.6405,-3.638,-3.6279,-3.6279,-3.5956,-3.5382,-3.5282,-3.5006,-3.46,-3.45,-3.4223,-4.5484,-4.6591,-4.7788,-4.9374,-4.8805,-4.7848,-4.7848,-4.7369,-4.692,-4.692,-4.7489,-4.8356,-4.9643,0.0,-5.4102,-5.9129,0.0,0.0,0.0,0.0,0.0,0.0,0.0,0.0,0.0,0.0,0.0,0.0,0.0,0.0,0.0,0.0,-7.6993,-7.6335,-7.5677,-7.5198,-7.4869,-7.4869,-7.4869,-7.4869,-7.451,-7.418,-7.3881,-7.3133,-7.2295,-7.1308,0.0,-6.9632,-6.8286,-6.7173,-6.6127,-6.4993,-6.3773,-6.2345,-6.0872,-5.9108,-5.7633,-5.6301,-5.4578,-5.3997,-5.3759,-5.248,-5.1925,-5.1574,-5.067,-5.0243,-4.9967,-4.9665,-4.959,-4.954,-4.9289,-4.8786,-4.8234,-4.7682,-4.7154,-4.6677,-4.6376,-4.6301,-4.6301,-4.6301,-4.5874,-4.5296,-4.4719,-4.4166,-4.3614,-4.3062,-4.2986,-4.2886,-4.269,-4.2389,-4.2011,-4.1455,-4.0877,-4.0425,-4.0149,-3.9873,-3.9446,-3.8944,-3.809,-3.7387,-3.6835,-3.6857,-3.6707,-3.6405,-3.6405,-3.6279,-3.5981,-3.5633,-3.5357,-3.5107,-3.4831,-3.4575,-4.5502,-4.683,-4.8147,-4.9464,-4.9374,-4.9015,-4.9164,-4.9464,-4.9733,-4.9883,-5.081,-5.1858,-5.2695,-5.5388,0.0,-6.4336,0.0,0.0,0.0,0.0,0.0,0.0,0.0,0.0,0.0,0.0,0.0,0.0,0.0,0.0,0.0,0.0,-7.6395,-7.5916,-7.5228,-7.4869,-7.4869,-7.4719,-7.4659,-7.4629,-7.4151,-7.3732,-7.3373,-7.2206,-7.1308,-7.0649,-6.9842,-6.8555,-6.6969,-6.6302,-6.5019,-6.3387,-6.2583,-6.1238,-5.955,-5.7377,-5.6367,-5.5908,-5.4469,-5.3997,-5.3784,-5.2631,-5.2201,-5.195,-5.1071,-5.072,-5.0544,-5.0117,-4.9891,-4.9766,-4.9615,-4.9188,-4.8661,-4.8209,-4.7606,-4.7029,-4.6602,-4.6401,-4.6301,-4.6301,-4.5974,-4.5447,-4.4744,-4.4267,-4.3765,-4.3087,-4.2986,-4.2986,-4.2986,-4.2665,-4.2363,-4.2213,-4.1404,-4.0802,-4.0551,-4.0023,-3.9521,-3.9094,-3.8542,-3.7965,-3.7387,-3.7262,-3.6985,-3.6606,-3.648,-3.6405,-3.6405,-3.5956,-3.5683,-3.5683,-3.5303,-3.5027,-4.4257,-4.5424,-4.677,-4.8087,-4.9733,-5.1169,-5.1768,-5.2875,-5.3952,-5.4581,-5.5239,-5.6137,-5.7393,-6.1283,-6.5263,0.0,0.0,0.0,0.0,0.0,0.0,0.0,0.0,0.0,0.0,0.0,0.0,0.0,0.0,0.0,0.0,0.0,0.0,-7.5916,-7.5228,-7.4869,-7.4869,-7.427,-7.3971,-7.3971,-7.3911,-7.3253,-7.1996,-7.1308,-7.062,-6.9961,-6.8675,-6.7687,-6.6909,-6.5381,-6.4128,-6.3,-6.1697,-6.0198,-5.8557,-5.7119,-5.6367,-5.5908,-5.4469,-5.3997,-5.3835,-5.3085,-5.2528,-5.2076,-5.2,-5.1624,-5.1222,-5.1172,-5.077,-5.0243,-4.9715,-4.9188,-4.8761,-4.8711,-4.7908,-4.7068,-4.7018,-4.6677,-4.6301,-4.6301,-4.6276,-4.5899,-4.4819,-4.4593,-4.4192,-4.3137,-4.2986,-4.2986,-4.2986,-4.2936,-4.2766,-4.2263,-4.2137,-4.1685,-4.0601,-4.0023,-3.9672,-3.9647,-3.912,-3.8542,-3.7965,-3.7462,-3.7161,-3.7136,-3.6681,-3.6405,-3.6405,-3.638,-3.6355,-3.6355,-3.6304,-3.5981,-4.4257,-4.5304,-4.6741,-4.8476,-5.099,-5.3264,-5.3892,-5.6047,-5.8171,-5.9249,-6.0326,-6.1313,-6.2241,0.0,-6.7717,0.0,0.0,0.0,0.0,0.0,0.0,0.0,0.0,0.0,0.0,0.0,0.0,0.0,0.0,0.0,0.0,0.0,0.0,-7.5288,-7.5018,-7.4689,-7.427,-7.4031,-7.3462,-7.2654,-7.2654,-7.2176,-7.1248,-7.062,-6.9752,-6.8675,-6.7747,-6.6759,-6.5652,-6.4038,-6.273,-6.1695,-5.973,-5.8333,-5.7248,-5.6301,-5.5934,-5.5604,-5.4402,-5.3997,-5.3861,-5.3136,-5.2779,-5.2553,-5.2201,-5.195,-5.1724,-5.1373,-5.1122,-5.082,-5.0268,-4.969,-4.9188,-4.8862,-4.846,-4.8058,-4.7682,-4.7205,-4.6828,-4.6828,-4.6552,-4.6075,-4.5296,-4.4869,-4.4367,-4.3614,-4.3187,-4.2986,-4.2986,-4.2986,-4.2886,-4.274,-4.2057,-4.1354,-4.0576,-4.0023,-3.9697,-3.9697,-3.9496,-3.912,-3.8567,-3.8341,-3.7889,-3.7186,-3.6985,-3.6757,-3.6405,-3.6405,-3.6405,-3.6405,-3.6405,-3.6304,-4.3977,-4.4975,-4.6531,-4.876,-5.2067,-5.5269,-5.6974,-5.9757,-6.2391,-6.3947,-6.5114,-6.5951,-6.6221,0.0,0.0,0.0,0.0,0.0,0.0,0.0,0.0,0.0,0.0,0.0,0.0,0.0,0.0,0.0,0.0,0.0,0.0,0.0,0.0,0.0,-7.436,-7.4031,-7.3582,-7.3373,-7.2684,-7.1577,-7.1368,-7.1038,-7.059,-6.9722,-6.8734,-6.7627,-6.6969,-6.5922,-6.4546,-6.3176,-6.1626,-6.0014,-5.8234,-5.7044,-5.6236,-5.567,-5.5339,-5.5139,-5.42,-5.3861,-5.3725,-5.3136,-5.2929,-5.2854,-5.2477,-5.2377,-5.2277,-5.19,-5.1674,-5.1448,-5.1046,-5.0419,-4.9766,-4.9389,-4.9038,-4.8661,-4.8259,-4.7757,-4.733,-4.7093,-4.6828,-4.6351,-4.5623,-4.5171,-4.4644,-4.3915,-4.3489,-4.3162,-4.3011,-4.2986,-4.2986,-4.2986,-4.2158,-4.1379,-4.0827,-4.0275,-3.9873,-3.9697,-3.9697,-3.9521,-3.9145,-3.902,-3.8517,-3.7739,-3.7538,-3.7262,-3.6933,-3.6933,-3.6832,-3.6681,-3.6681,-3.6581,-4.329,-4.4287,-4.5933,-4.867,-5.2803,-5.7244,-6.1224,-6.4156,-6.661,-6.8645,-6.9542,-6.9782,-6.9153,-7.0081,0.0,0.0,0.0,0.0,0.0,0.0,0.0,0.0,0.0,0.0,0.0,0.0,0.0,0.0,0.0,0.0,0.0,0.0,0.0,0.0,-7.3253,-7.2924,-7.2894,-7.2235,-7.1547,-7.0889,-7.026,-6.9961,-6.9901,-6.8585,-6.7597,-6.6939,-6.6281,-6.5233,-6.3948,-6.297,-6.0831,-5.8135,-5.7431,-5.6524,-5.5538,-5.5232,-5.4805,-5.4376,-5.3725,-5.3478,-5.341,-5.2998,-5.2929,-5.2929,-5.2929,-5.2929,-5.2929,-5.2929,-5.2528,-5.2126,-5.2126,-5.1272,-5.0444,-5.0419,-4.959,-4.8786,-4.8786,-4.8309,-4.7757,-4.7193,-4.7068,-4.6778,-4.5673,-4.5497,-4.5121,-4.3991,-4.3815,-4.3614,-4.3062,-4.2986,-4.2986,-4.2986,-4.2539,-4.1932,-4.1351,-4.0774,-4.0275,-3.9747,-3.9697,-3.9697,-3.9697,-3.917,-3.8919,-3.8919,-3.8316,-3.8015,-3.8015,-3.8015,-3.7739,-3.7186,-3.7186,-3.6933,-4.3409,-4.4605,-4.677,-4.9853,-5.4132,-5.883,-6.3737,-6.6879,-6.9722,-7.3163,-7.3253,-7.2505,-7.1876,0.0,0.0,0.0,0.0,0.0,0.0,0.0,0.0,0.0,0.0,0.0,0.0,0.0,0.0,0.0,0.0,0.0,0.0,0.0,0.0,0.0,-7.3013,-7.2684,-7.2206,-7.1517,-7.0889,-7.0231,-6.8645,-6.7867,-6.7867,-6.7478,-6.6547,-6.5291,-6.4636,-6.3921,-6.3209,-6.1328,-5.9164,-5.699,-5.6301,-5.5405,-5.4469,-5.4335,-5.4267,-5.4132,-5.3682,-5.3478,-5.341,-5.2998,-5.2929,-5.2929,-5.2929,-5.2929,-5.2929,-5.2929,-5.2804,-5.2678,-5.2678,-5.2151,-5.1398,-5.0594,-5.0167,-4.9816,-4.9439,-4.8912,-4.836,-4.7782,-4.738,-4.6903,-4.6175,-4.5748,-4.5372,-4.5045,-4.4644,-4.4192,-4.3639,-4.3212,-4.2986,-4.2986,-4.2539,-4.2137,-4.1932,-4.1053,-4.045,-4.0275,-3.9898,-3.9697,-3.9697,-3.9546,-3.927,-3.8919,-3.8693,-3.8417,-3.8015,-3.8015,-3.7914,-3.7764,-3.7764,-3.7462,-4.4077,-4.5574,-4.8027,-5.1858,-5.6466,-6.1762,-6.8076,-7.0979,-7.3133,-7.6066,-7.5796,-7.4779,-7.3851,0.0,0.0,0.0,0.0,0.0,0.0,0.0,0.0,0.0,0.0,0.0,0.0,0.0,0.0,0.0,0.0,0.0,0.0,0.0,0.0,0.0,-7.2026,-7.1547,-7.1128,-7.047,-6.9692,-6.8764,-6.7567,-6.658,-6.5802,-6.6071,-6.5472,-6.4129,-6.3358,-6.2706,-6.1989,-6.0279,-5.8404,-5.6509,-5.5842,-5.4872,-5.3793,-5.3793,-5.3725,-5.3521,-5.3341,-5.3273,-5.3204,-5.2998,-5.2929,-5.2929,-5.2929,-5.2929,-5.2929,-5.2929,-5.2929,-5.2929,-5.2929,-5.2528,-5.1875,-5.0971,-5.0569,-5.0268,-4.9715,-4.9339,-4.8862,-4.8058,-4.7657,-4.7205,-4.6451,-4.6024,-4.5748,-4.5522,-4.4995,-4.4418,-4.3865,-4.3514,-4.3212,-4.3011,-4.274,-4.2439,-4.2238,-4.1555,-4.0978,-4.0551,-4.0199,-3.9923,-3.9697,-3.9697,-3.9546,-3.9195,-3.9195,-3.9019,-3.8668,-3.8668,-3.8567,-3.8341,-3.8341,-3.804,-4.5005,-4.695,-4.9673,-5.4311,-5.9668,-6.5742,-7.3193,-7.5407,-7.6275,-7.7622,0.0,-7.6455,-7.5288,0.0,0.0,0.0,0.0,0.0,0.0,0.0,0.0,0.0,0.0,0.0,0.0,0.0,0.0,0.0,0.0,0.0,0.0,0.0,0.0,0.0,-7.05,-6.9871,-6.9812,-6.9153,-6.8166,0.0,-6.6789,-6.5772,-6.4006,-6.4635,-6.4397,-6.3417,-6.244,-6.1523,-6.0621,-5.9891,-5.834,-5.6509,-5.5776,-5.4671,-5.3478,-5.3478,-5.3204,-5.2929,-5.2929,-5.2929,-5.2929,-5.2929,-5.2929,-5.2929,-5.2929,-5.2929,-5.2929,-5.2929,-5.2929,-5.2929,-5.2854,-5.2477,-5.195,-5.1348,-5.0795,-5.0268,-4.9715,-4.959,-4.9264,-4.8134,-4.7908,-4.7581,-4.6502,-4.6301,-4.6125,-4.5648,-4.507,-4.4493,-4.394,-4.384,-4.3589,-4.3037,-4.2986,-4.2816,-4.2313,-4.2238,-4.1785,-4.0727,-4.0576,-4.03,-3.9798,-3.9722,-3.9697,-3.9697,-3.9697,-3.9697,-3.9697,-3.9697,-3.9446,-3.8994,-3.8994,-3.8642,-4.5562,-4.8297,-5.1708,-5.6346,-6.3408,-7.0201,-7.4001,-7.5407,-7.6425,-7.822,-7.7652,0.0,0.0,0.0,0.0,0.0,0.0,0.0,0.0,0.0,0.0,0.0,0.0,0.0,0.0,0.0,0.0,0.0,0.0,0.0,0.0,0.0,0.0,-6.9662,-6.9363,-6.8944,-6.8405,-6.7747,-6.7029,0.0,-6.5144,-6.4425,-6.4006,-6.4156,-6.3564,-6.2381,-6.1701,-6.0984,-6.0226,-5.955,-5.8052,-5.6144,-5.5419,-5.4241,-5.2998,-5.2998,-5.2998,-5.2929,-5.2929,-5.2929,-5.2929,-5.2929,-5.2929,-5.2929,-5.2929,-5.2929,-5.2929,-5.2929,-5.2929,-5.2829,-5.2402,-5.2201,-5.185,-5.0845,-5.0494,-5.0268,-4.9715,-4.959,-4.9264,-4.8134,-4.7908,-4.7581,-4.6502,-4.6301,-4.6276,-4.615,-4.5648,-4.5095,-4.4518,-4.4066,-4.3589,-4.3037,-4.2986,-4.2936,-4.2811,-4.2464,-4.2112,-4.1861,-4.0978,-4.0475,-4.035,-3.9923,-3.9697,-3.9697,-3.9697,-3.9697,-3.9697,-3.9697,-3.9647,-3.9521,-3.9521,-3.922,-4.5327,-4.8655,-5.3356,-6.0984,-6.7148,-7.2086,-7.4749,-7.5647,-7.6275,-7.7592,0.0,0.0,0.0,0.0,0.0,0.0,0.0,0.0,0.0,0.0,0.0,0.0,0.0,0.0,0.0,0.0,0.0,0.0,0.0,0.0,0.0,-7.032,-6.9542,-6.8525,-6.8196,-6.7717,-6.7029,-6.637,-6.5712,-6.5024,-6.4336,-6.3857,-6.3558,-6.3266,-6.2706,-6.2057,-6.1493,-6.0802,-6.0165,-5.9488,-5.8016,-5.6013,-5.5286,-5.4174,-5.2929,-5.2929,-5.2929,-5.2929,-5.2929,-5.2929,-5.2929,-5.2929,-5.2929,-5.2929,-5.2929,-5.2929,-5.2929,-5.2929,-5.2929,-5.2804,-5.2251,-5.19,-5.1498,-5.0619,-5.0419,-5.0268,-4.9715,-4.959,-4.9264,-4.8134,-4.7908,-4.7581,-4.6502,-4.6301,-4.6301,-4.6301,-4.6075,-4.5673,-4.5121,-4.4543,-4.3991,-4.3438,-4.3137,-4.2986,-4.2986,-4.271,-4.2489,-4.2238,-4.163,-4.1078,-4.0551,-4.0249,-3.9973,-3.9697,-3.9697,-3.9697,-3.9697,-3.9697,-3.9697,-3.9697,-3.9697,-3.9546,-4.4827,-4.9347,-5.5611,-6.5353,-6.9782,-7.2355,-7.4839,-7.5377,-7.5527,-7.6036,0.0,0.0,0.0,0.0,0.0,0.0,0.0,0.0,0.0,0.0,0.0,0.0,0.0,0.0,0.0,0.0,0.0,0.0,0.0,0.0,-7.026,-6.9243,-6.8286,-6.7478,-6.6939,-6.634,-6.5652,-6.5114,-6.4515,-6.3827,-6.3827,-6.3558,-6.3079,-6.2351,-6.1998,-6.1998,-6.1373,-6.0681,-6.001,-5.9363,-5.7889,-5.5947,-5.5286,-5.4174,-5.2929,-5.2929,-5.2929,-5.2929,-5.2929,-5.2929,-5.2929,-5.2929,-5.2929,-5.2929,-5.2929,-5.2929,-5.2929,-5.2929,-5.2854,-5.2653,-5.2101,-5.1548,-5.0996,-5.0419,-5.0268,-5.0142,-4.969,-4.959,-4.9264,-4.8134,-4.7757,-4.7355,-4.6451,-4.6301,-4.6301,-4.6301,-4.6301,-4.6125,-4.5573,-4.507,-4.4518,-4.3865,-4.3388,-4.3087,-4.2986,-4.2986,-4.2841,-4.2389,-4.2263,-4.181,-4.0827,-4.0626,-4.03,-3.9848,-3.9747,-3.9697,-3.9697,-3.9697,-3.9697,-3.9697,-3.9697,-3.9697,-4.4656,-5.1856,-6.0019,-6.5712,-6.9093,-7.1427,0.0,0.0,-7.3343,0.0,0.0,0.0,0.0,0.0,0.0,0.0,0.0,0.0,0.0,0.0,0.0,0.0,0.0,0.0,0.0,0.0,0.0,0.0,0.0,0.0,-6.7597,-6.7358,-6.67,-6.5473,-6.5323,-6.4964,-6.4276,-6.4186,-6.3827,-6.3199,-6.3199,-6.3169,-6.3079,-6.2087,-6.1673,-6.1613,-6.1044,-6.0194,-5.9267,-5.8955,-5.7532,-5.5617,-5.5153,-5.4174,-5.2929,-5.2929,-5.2929,-5.2929,-5.2929,-5.2929,-5.2929,-5.2929,-5.2929,-5.2929,-5.2929,-5.2929,-5.2929,-5.2929,-5.2578,-5.2076,-5.1548,-5.0971,-5.0393,-4.9841,-4.9715,-4.969,-4.9615,-4.959,-4.9264,-4.8134,-4.7154,-4.6476,-4.6326,-4.6301,-4.6301,-4.6301,-4.6301,-4.6125,-4.5573,-4.5422,-4.497,-4.3915,-4.374,-4.3489,-4.3011,-4.2986,-4.2936,-4.2861,-4.2464,-4.2137,-4.1986,-4.1028,-4.0475,-4.04,-3.9948,-3.9697,-3.9697,-3.9697,-3.9697,-3.9697,-3.9697,-3.9697,-4.5713,-5.1955,-5.8381,-6.3531,-6.7059,-6.9602,-7.0979,0.0,0.0,0.0,0.0,0.0,0.0,0.0,0.0,0.0,0.0,0.0,0.0,0.0,0.0,0.0,0.0,0.0,0.0,0.0,0.0,0.0,0.0,-6.7777,-6.652,-6.6101,-6.5443,-6.4485,-6.4455,-6.4126,-6.3498,-6.3498,-6.3348,-6.3079,-6.3079,-6.3079,-6.3079,-6.2028,-6.1465,-6.1286,-6.0287,-5.9363,-5.8578,-5.8043,-5.6796,-5.522,-5.4887,-5.3971,-5.2929,-5.2929,-5.2929,-5.2929,-5.2929,-5.2929,-5.2929,-5.2929,-5.2929,-5.2929,-5.2929,-5.2929,-5.2929,-5.2929,-5.2528,-5.1975,-5.1423,-5.0845,-5.0268,-4.9715,-4.959,-4.959,-4.959,-4.9339,-4.8812,-4.7682,-4.6853,-4.6301,-4.6301,-4.6301,-4.6301,-4.6301,-4.6301,-4.6225,-4.5974,-4.5673,-4.5296,-4.4794,-4.4192,-4.3689,-4.3463,-4.3162,-4.2986,-4.2986,-4.2816,-4.2539,-4.2213,-4.1735,-4.1279,-4.0924,-4.0124,-3.9697,-3.9697,-3.9697,-3.9697,-3.9697,-3.9697,-3.9697,-4.6049,-5.073,-5.523,-6.0253,-6.3978,-6.6788,0.0,0.0,0.0,0.0,0.0,0.0,0.0,0.0,0.0,0.0,0.0,0.0,0.0,0.0,0.0,0.0,0.0,0.0,0.0,0.0,0.0,0.0,0.0,-6.6191,-6.5533,-6.5024,-6.4455,-6.3797,-6.3767,-6.3558,-6.3079,-6.3079,-6.3079,-6.3079,-6.3079,-6.3079,-6.3079,-6.1969,-6.1226,-6.0776,-5.9583,-5.8613,-5.788,-5.7211,-5.6144,-5.4887,-5.4619,-5.3835,-5.2929,-5.2929,-5.2929,-5.2929,-5.2929,-5.2929,-5.2929,-5.2929,-5.2929,-5.2929,-5.2929,-5.2929,-5.2929,-5.2929,-5.2427,-5.18,-5.1398,-5.0745,-5.0117,-4.969,-4.959,-4.9565,-4.9414,-4.8937,-4.8259,-4.7305,-4.6702,-4.6301,-4.6301,-4.6301,-4.6301,-4.6301,-4.6301,-4.6301,-4.6301,-4.5949,-4.5648,-4.5497,-4.4744,-4.4116,-4.3815,-4.3413,-4.3137,-4.2986,-4.2986,-4.2785,-4.2439,-4.2288,-4.1957,-4.1555,-4.0601,-4.0049,-3.9898,-3.9898,-3.9823,-3.9697,-3.9697,-3.9697,-4.4631,-4.8226,-5.2017,-5.6117,-5.9577,0.0,0.0,0.0,0.0,0.0,0.0,0.0,0.0,0.0,0.0,0.0,0.0,0.0,0.0,0.0,0.0,0.0,0.0,0.0,0.0,0.0,0.0,0.0,0.0,-6.4814,-6.4126,-6.4066,-6.3767,-6.3139,-6.3139,-6.3109,-6.3079,-6.3079,-6.3079,-6.3079,-6.3079,-6.3079,-6.3079,-6.1703,-6.0776,-6.0137,-5.9114,-5.8198,-5.7238,-5.6758,-5.5815,-5.4511,-5.4511,-5.3835,-5.2929,-5.2929,-5.2929,-5.2929,-5.2929,-5.2929,-5.2929,-5.2929,-5.2929,-5.2929,-5.2929,-5.2929,-5.2929,-5.2929,-5.2151,-5.1322,-5.1297,-5.0469,-4.9615,-4.9615,-4.959,-4.9464,-4.8937,-4.836,-4.7782,-4.723,-4.6702,-4.6301,-4.6301,-4.6301,-4.6301,-4.6301,-4.6301,-4.6301,-4.6301,-4.6276,-4.6075,-4.5547,-4.5447,-4.497,-4.389,-4.3765,-4.3539,-4.3011,-4.2986,-4.2961,-4.2936,-4.2489,-4.2213,-4.2162,-4.1555,-4.1003,-4.0475,-4.0475,-4.0199,-3.9697,-3.9697,-3.9697,-4.176,-4.4627,0.0,-5.1679,-5.5329,-5.8567,0.0,0.0,0.0,0.0,0.0,0.0,0.0,0.0,0.0,0.0,0.0,0.0,0.0,0.0,0.0,0.0,0.0,0.0,0.0,0.0,0.0,0.0,0.0,0.0,-6.3438,-6.3408,-6.3318,-6.3079,-6.3079,-6.3079,-6.3079,-6.3079,-6.3079,-6.3079,-6.3079,-6.2963,-6.2731,-6.1584,-6.0474,-5.9369,-5.7952,-5.6888,-5.6132,-5.5246,-5.4511,-5.3861,-5.3861,-5.3452,-5.2929,-5.2929,-5.2929,-5.2929,-5.2929,-5.2929,-5.2929,-5.2929,-5.2929,-5.2929,-5.2929,-5.2929,-5.2929,-5.2929,-5.2377,-5.1724,-5.1373,-5.0695,-5.0042,-4.9665,-4.959,-4.9439,-4.8887,-4.8309,-4.7657,-4.6778,-4.6451,-4.6301,-4.6301,-4.6301,-4.6301,-4.6301,-4.6301,-4.6301,-4.6301,-4.6301,-4.6225,-4.6024,-4.5698,-4.5321,-4.492,-4.4217,-4.3714,-4.3514,-4.3162,-4.2986,-4.2986,-4.2841,-4.274,-4.274,-4.2484,-4.1957,-4.1,-4.1,-4.0899,-4.0752,-4.0752,-4.0752,-4.0012,-4.2167,0.0,0.0,-5.0874,-5.3896,0.0,0.0,0.0,0.0,0.0,0.0,0.0,0.0,0.0,0.0,0.0,0.0,0.0,0.0,0.0,0.0,0.0,0.0,0.0,0.0,0.0,0.0,0.0,0.0,-6.3109,-6.3079,-6.3079,-6.3079,-6.3079,-6.3079,-6.3079,-6.2869,-6.275,-6.275,-6.254,-6.2249,-6.1903,-6.0997,-5.9976,-5.8687,-5.7011,-5.5973,-5.5339,-5.4402,-5.3793,-5.3478,-5.3478,-5.3273,-5.2929,-5.2929,-5.2929,-5.2929,-5.2929,-5.2929,-5.2929,-5.2929,-5.2929,-5.2929,-5.2929,-5.2929,-5.2929,-5.2929,-5.2528,-5.1975,-5.1423,-5.072,-5.0042,-4.969,-4.959,-4.9439,-4.8887,-4.8309,-4.7657,-4.6753,-4.6426,-4.6301,-4.6301,-4.6301,-4.6301,-4.6301,-4.6301,-4.6301,-4.6301,-4.6301,-4.6301,-4.6301,-4.5974,-4.5698,-4.5497,-4.4794,-4.4217,-4.3815,-4.3463,-4.3162,-4.2986,-4.2986,-4.2986,-4.2986,-4.2986,-4.261,-4.1882,-4.1706,-4.153,-4.1275,-4.1275,-4.1275,0.0,0.0,0.0,0.0,0.0,0.0,-5.1324,0.0,0.0,0.0,0.0,0.0,0.0,0.0,0.0,0.0,0.0,0.0,0.0,0.0,0.0,0.0,0.0,0.0,0.0,0.0,0.0,0.0,0.0,-6.3079,-6.3079,-6.3079,-6.3079,-6.3049,-6.3049,-6.3049,-6.3019,-6.2391,-6.2061,-6.2061,-6.1433,-6.0936,-6.0541,-5.9888,-5.9045,-5.8037,-5.6332,-5.5379,-5.4965,-5.4267,-5.3793,-5.3478,-5.3478,-5.3273,-5.2929,-5.2929,-5.2929,-5.2929,-5.2929,-5.2929,-5.2929,-5.2929,-5.2929,-5.2929,-5.2929,-5.2929,-5.2929,-5.2929,-5.2553,-5.2,-5.1423,-5.0444,-4.959,-4.959,-4.959,-4.9439,-4.8912,-4.8335,-4.7782,-4.723,-4.6702,-4.6326,-4.6301,-4.6301,-4.6301,-4.6301,-4.6301,-4.6301,-4.6301,-4.6301,-4.6301,-4.6301,-4.6301,-4.61,-4.5547,-4.5497,-4.502,-4.3915,-4.384,-4.3589,-4.3062,-4.3037,-4.3011,-4.3011,-4.3011,-4.2986,-4.2986,-4.2489,-4.1907,-4.1326,-4.1326,-4.1326,-3.8699,0.0,0.0,0.0,0.0,0.0,-4.7662,-4.9833,0.0,0.0,0.0,0.0,0.0,0.0,0.0,0.0,0.0,0.0,0.0,0.0,0.0,0.0,0.0,0.0,0.0,0.0,0.0,0.0,-6.3169,-6.3079,-6.3079,-6.3079,-6.2869,-6.2391,-6.2361,-6.2151,-6.1672,-6.1493,-6.1373,-6.1373,-6.0969,-6.0455,-5.9941,-5.9266,-5.8132,-5.6667,-5.5616,-5.4712,-5.3887,-5.341,-5.3136,-5.3067,-5.3067,-5.2998,-5.2929,-5.2929,-5.2929,-5.2929,-5.2929,-5.2929,-5.2929,-5.2929,-5.2929,-5.2929,-5.2929,-5.2929,-5.2929,-5.2929,-5.2829,-5.2477,-5.1523,-5.0444,-4.959,-4.959,-4.959,-4.9565,-4.9389,-4.8937,-4.8259,-4.7305,-4.7004,-4.6778,-4.6376,-4.6301,-4.6301,-4.6301,-4.6301,-4.6301,-4.6301,-4.6301,-4.6301,-4.6301,-4.6301,-4.625,-4.61,-4.5723,-4.5347,-4.5045,-4.4618,-4.4317,-4.4166,-4.4166,-4.3991,-4.3589,-4.3564,-4.3363,-4.2986,-4.2866,-4.266,-4.2534,-4.2534,-4.2534,-3.997,-3.9873,-4.0199,0.0,0.0,0.0,-4.4693,-4.6229,-4.7648,0.0,0.0,0.0,0.0,0.0,0.0,0.0,0.0,0.0,0.0,0.0,0.0,0.0,0.0,0.0,0.0,0.0,0.0,-6.266,-6.2929,-6.2959,-6.269,-6.266,-6.2361,-6.1702,-6.1672,-6.1493,-6.1104,-6.0835,-6.0685,-6.0685,-6.0053,-5.9401,-5.8664,-5.799,-5.6937,-5.5528,-5.4813,-5.3974,-5.3123,-5.2714,-5.2729,-5.2929,-5.2929,-5.2929,-5.2929,-5.2929,-5.2929,-5.2929,-5.2929,-5.2929,-5.2929,-5.2929,-5.2929,-5.2929,-5.2929,-5.2929,-5.2929,-5.2929,-5.2603,-5.2026,-5.1147,-5.0268,-4.959,-4.959,-4.959,-4.959,-4.959,-4.9339,-4.8786,-4.7682,-4.728,-4.6954,-4.6401,-4.6301,-4.6301,-4.6301,-4.6301,-4.6301,-4.6301,-4.6301,-4.6301,-4.6301,-4.6301,-4.6301,-4.6301,-4.6024,-4.5723,-4.5497,-4.5171,-4.4869,-4.4644,-4.4618,-4.4468,-4.4141,-4.4141,-4.3991,-4.3664,-4.3212,-4.2986,-4.2986,-4.2986,-4.2986,-4.2116,-4.1346,-4.0883,0.0,0.0,0.0,-4.2362,-4.2918,-4.3673,0.0,0.0,0.0,0.0,0.0,0.0,0.0,0.0,0.0,0.0,0.0,0.0,0.0,0.0,0.0,0.0,-6.1523,-6.1912,-6.1972,-6.254,-6.26,-6.2032,-6.2002,-6.1672,-6.1014,-6.1014,-6.0954,-6.0894,-6.0296,-5.9967,-5.9967,-5.9071,-5.8114,-5.722,-5.647,-5.5535,-5.4467,-5.3779,-5.3141,-5.2447,-5.2135,-5.2302,-5.2754,-5.2804,-5.2829,-5.2854,-5.2904,-5.2929,-5.2929,-5.2929,-5.2929,-5.2929,-5.2929,-5.2929,-5.2929,-5.2854,-5.2829,-5.2829,-5.2754,-5.2,-5.1071,-5.0544,-5.0017,-4.959,-4.959,-4.959,-4.959,-4.959,-4.959,-4.9264,-4.8134,-4.7531,-4.7029,-4.6426,-4.6301,-4.6301,-4.6301,-4.6301,-4.6301,-4.6301,-4.6301,-4.6301,-4.6301,-4.6301,-4.6301,-4.6301,-4.6301,-4.61,-4.5623,-4.5573,-4.5347,-4.4844,-4.4819,-4.4794,-4.4719,-4.4644,-4.4618,-4.4618,-4.3639,-4.3162,-4.3162,-4.3112,-4.3062,0.0,0.0,0.0,0.0,0.0,0.0,-4.1128,-4.1783,-4.2338,0.0,0.0,0.0,0.0,0.0,0.0,0.0,0.0,0.0,0.0,0.0,0.0,0.0,0.0,0.0,0.0,-6.0386,-6.0715,-6.1253,-6.1433,-6.1433,-6.1313,-6.1313,-6.0984,-6.0296,-6.0296,-6.0027,-5.9518,-5.9368,-5.9308,-5.9308,-5.8394,-5.7584,-5.6851,-5.5404,-5.4213,-5.3187,-5.2464,-5.1956,-5.1556,-5.1515,-5.1498,-5.1649,-5.2101,-5.2277,-5.2327,-5.2754,-5.2929,-5.2929,-5.2929,-5.2929,-5.2929,-5.2929,-5.2929,-5.2854,-5.2402,-5.2277,-5.2176,-5.1724,-5.1122,-5.0569,-5.0444,-5.0017,-4.959,-4.959,-4.959,-4.959,-4.959,-4.959,-4.9264,-4.8134,-4.7832,-4.7456,-4.6476,-4.6301,-4.6301,-4.6301,-4.6301,-4.6301,-4.6301,-4.6301,-4.6301,-4.6301,-4.6301,-4.6301,-4.6301,-4.6301,-4.6276,-4.615,-4.615,-4.61,-4.5999,-4.5974,-4.5773,-4.5321,-4.4869,-4.4618,-4.4618,-4.4418,-4.4292,-4.4292,-4.384,-4.3639,0.0,0.0,0.0,-4.2208,0.0,0.0,0.0,-4.0746,-4.0578,0.0,0.0,0.0,0.0,0.0,0.0,0.0,0.0,0.0,0.0,0.0,0.0,0.0,0.0,0.0,0.0,-5.8022,-5.9009,-6.0027,-6.0116,-6.0116,-6.0116,-6.0116,-5.9967,-5.9608,-5.9608,-5.9428,-5.9099,-5.9099,-5.9045,-5.8882,-5.8169,-5.7191,-5.6078,-5.4593,-5.3396,-5.2331,-5.1676,-5.1175,-5.0845,-5.0845,-5.0695,-5.0519,-5.1373,-5.1875,-5.2126,-5.2427,-5.2678,-5.2929,-5.2929,-5.2929,-5.2879,-5.2603,-5.2528,-5.2427,-5.185,-5.1699,-5.1574,-5.1021,-5.0645,-5.0343,-5.0067,-4.9791,-4.959,-4.959,-4.959,-4.959,-4.959,-4.959,-4.9264,-4.8134,-4.7908,-4.7581,-4.6502,-4.6301,-4.6301,-4.6301,-4.6301,-4.6301,-4.6301,-4.6301,-4.6301,-4.6301,-4.6301,-4.6301,-4.6301,-4.6301,-4.6301,-4.6301,-4.6301,-4.6301,-4.6301,-4.6301,-4.6175,-4.5899,-4.5623,-4.5472,-4.5472,-4.5472,-4.5171,-4.4618,-4.4342,-4.4217,0.0,0.0,0.0,0.0,0.0,-4.1457,0.0,0.0,0.0,0.0,0.0,0.0,0.0,0.0,0.0,0.0,0.0,0.0,0.0,0.0,0.0,0.0,0.0,0.0,0.0,-5.5269,-5.6855,-5.8082,-5.8291,-5.8411,-5.853,-5.865,-5.871,-5.871,-5.871,-5.8716,-5.8811,-5.8811,-5.8709,-5.85,-5.7836,-5.6765,-5.5295,-5.3872,-5.2678,-5.1665,-5.0983,-5.0529,-5.0268,-5.0268,-4.9992,-4.969,-5.072,-5.1448,-5.195,-5.2076,-5.2452,-5.2929,-5.2929,-5.2929,-5.2829,-5.2277,-5.195,-5.1699,-5.1247,-5.1046,-5.0845,-5.0393,-5.0268,-5.0167,-4.9715,-4.959,-4.959,-4.959,-4.959,-4.959,-4.959,-4.959,-4.9289,-4.8284,-4.8083,-4.7707,-4.6502,-4.6301,-4.6301,-4.6301,-4.6301,-4.6301,-4.6301,-4.6301,-4.6301,-4.6301,-4.6301,-4.6301,-4.6301,-4.6301,-4.6301,-4.6301,-4.6301,-4.6301,-4.6301,-4.6301,-4.6301,-4.6301,-4.6301,-4.6301,-4.6301,-4.6301,-4.5849,-4.4945,-4.4844,-4.4794,0.0,0.0,0.0,0.0,-4.3756,0.0,0.0,0.0,0.0,0.0,0.0,0.0,0.0,0.0,0.0,0.0,0.0,0.0,0.0,0.0,0.0,0.0,0.0,0.0,0.0,0.0,-5.3952,-5.47,-5.5299,-5.5897,-5.6466,-5.7034,-5.7334,-5.7334,-5.7334,-5.7527,-5.7856,-5.7856,-5.7883,-5.7892,-5.6964,-5.6049,-5.497,-5.3086,-5.1872,-5.116,-5.0205,-4.9755,-4.969,-4.969,-4.964,-4.9665,-5.0268,-5.087,-5.1448,-5.1925,-5.2452,-5.2929,-5.2929,-5.2929,-5.2829,-5.2277,-5.1423,-5.0594,-5.0544,-5.0167,-4.9766,-4.9715,-4.969,-4.9665,-4.9615,-4.959,-4.959,-4.959,-4.959,-4.959,-4.959,-4.959,-4.9414,-4.8786,-4.8686,-4.8159,-4.6577,-4.6301,-4.6301,-4.6301,-4.6301,-4.6301,-4.6301,-4.6301,-4.6301,-4.6301,-4.6301,-4.6301,-4.6301,-4.6301,-4.6301,-4.6301,-4.6301,-4.6301,-4.6301,-4.6301,-4.6301,-4.6301,-4.6301,-4.6301,-4.6301,-4.6301,-4.625,-4.61,-4.5623,-4.5397,0.0,0.0,0.0,0.0,0.0,0.0,0.0,0.0,-3.9077,0.0,0.0,0.0,0.0,0.0,0.0,0.0,0.0,0.0,0.0,0.0,0.0,0.0,0.0,0.0,0.0,0.0,0.0,0.0,0.0,-5.3354,-5.4371,-5.5418,-5.6166,-5.6555,-5.6915,-5.7139,-5.7119,-5.7345,-5.7042,-5.6416,-5.6022,-5.5001,-5.3537,-5.2377,-5.1346,-5.0487,-4.9847,-4.959,-4.959,-4.959,-4.959,-4.9615,-4.9841,-5.0293,-5.0845,-5.1423,-5.1975,-5.2503,-5.2829,-5.2729,-5.2302,-5.1423,-5.0594,-4.9941,-4.9941,-4.9766,-4.959,-4.959,-4.959,-4.959,-4.959,-4.959,-4.959,-4.959,-4.959,-4.959,-4.959,-4.959,-4.9439,-4.8887,-4.8761,-4.846,-4.7405,-4.6979,-4.6778,-4.6778,-4.6527,-4.6301,-4.6301,-4.6301,-4.6301,-4.6301,-4.6301,-4.6301,-4.6301,-4.6301,-4.6301,-4.6301,-4.6301,-4.6301,-4.6301,-4.6301,-4.6451,-4.6778,-4.6778,-4.6778,-4.6778,-4.6778,-4.6627,-4.6301,-4.6075,-4.5974,-5.5892,0.0,0.0,0.0,0.0,0.0,0.0,0.0,0.0,0.0,0.0,0.0,0.0,0.0,0.0,0.0,0.0,0.0,0.0,0.0,0.0,0.0,0.0,0.0,0.0,0.0,0.0,0.0,0.0,0.0,-5.2306,-5.3653,-5.476,-5.5598,-5.6077,-5.631,-5.6331,-5.6579,-5.6171,-5.514,-5.4986,-5.4052,-5.243,-5.1659,-5.0867,-5.004,-4.9719,-4.959,-4.959,-4.959,-4.959,-4.959,-4.959,-4.9941,-5.0494,-5.1071,-5.1624,-5.2176,-5.2729,-5.2477,-5.1724,-5.0745,-5.0042,-4.959,-4.959,-4.959,-4.959,-4.959,-4.959,-4.959,-4.959,-4.959,-4.959,-4.959,-4.959,-4.959,-4.959,-4.959,-4.9464,-4.9063,-4.8987,-4.8862,-4.8435,-4.7807,-4.7305,-4.7093,-4.6803,-4.6476,-4.6326,-4.6301,-4.6301,-4.6301,-4.6301,-4.6376,-4.6527,-4.6527,-4.6602,-4.6728,-4.6753,-4.6753,-4.6753,-4.6753,-4.6928,-4.733,-4.7355,-4.7355,-4.7355,-4.7355,-4.7154,-4.6728,-4.6451,-4.6301,0.0,0.0,0.0,-5.2225,0.0,0.0,0.0,0.0,-4.0058,0.0,0.0,0.0,0.0,0.0,0.0,-3.8266,0.0,0.0,0.0,0.0,0.0,0.0,0.0,0.0,0.0,0.0,0.0,0.0,0.0,0.0,-5.0226,-5.1588,-5.2905,-5.4221,-5.4281,-5.4658,-5.5335,-5.5367,-5.5101,-5.454,-5.3869,-5.3052,-5.2059,-5.1094,-5.0423,-5.004,-4.9719,-4.959,-4.959,-4.959,-4.959,-4.959,-4.959,-4.9941,-5.0494,-5.1071,-5.1624,-5.2176,-5.2729,-5.2226,-5.1197,-5.0619,-5.0042,-4.959,-4.959,-4.959,-4.959,-4.959,-4.959,-4.959,-4.959,-4.959,-4.959,-4.959,-4.959,-4.959,-4.959,-4.959,-4.959,-4.9565,-4.9565,-4.9565,-4.954,-4.8611,-4.7707,-4.7143,-4.7129,-4.6903,-4.6376,-4.6301,-4.6301,-4.6301,-4.6301,-4.6527,-4.7054,-4.7043,-4.733,-4.7832,-4.7857,-4.7857,-4.7857,-4.7857,-4.7857,-4.7883,-4.7883,-4.7883,-4.7883,-4.7883,-4.7883,-4.7832,-4.6778,-4.6301,0.0,0.0,-5.6276,-5.428,0.0,0.0,0.0,0.0,0.0,0.0,0.0,0.0,0.0,0.0,-4.0723,-3.9814,-3.9555,0.0,0.0,0.0,0.0,0.0,0.0,0.0,0.0,0.0,0.0,0.0,0.0,0.0,0.0,-4.9657,-5.1498,-5.2845,-5.3743,-5.436,-5.4628,-5.4696,-5.4194,-5.3236,-5.2761,-5.2067,-5.1094,-5.055,-5.0104,-4.9783,-4.9654,-4.959,-4.959,-4.959,-4.959,-4.964,-4.9992,-5.0243,-5.0494,-5.1071,-5.1624,-5.2076,-5.19,-5.1599,-5.1122,-5.0167,-4.9741,-4.959,-4.959,-4.959,-4.959,-4.959,-4.959,-4.959,-4.959,-4.959,-4.959,-4.959,-4.959,-4.959,-4.959,-4.959,-4.959,-4.959,-4.959,-4.959,-4.959,-4.9264,-4.8837,-4.8309,-4.7606,-4.6993,-4.6878,-4.6527,-4.6301,-4.6301,-4.6652,-4.6928,-4.7043,-4.7456,-4.7732,-4.7908,-4.7908,-4.7908,-4.7908,-4.7908,-4.8083,-4.846,-4.8485,-4.8485,-4.8485,-4.8485,-4.8284,-4.7908,-4.7531,-4.7179,-6.1985,-6.0574,0.0,-5.6942,-5.3748,0.0,-4.8886,0.0,0.0,0.0,0.0,0.0,0.0,0.0,0.0,-4.0962,-4.0404,0.0,0.0,-3.7662,0.0,0.0,0.0,0.0,0.0,0.0,0.0,0.0,0.0,0.0,0.0,0.0,-5.0269,-5.2157,-5.3166,-5.3902,-5.4304,-5.4057,-5.3495,-5.2586,-5.1928,-5.1268,-5.0588,-5.0104,-4.9783,-4.959,-4.959,-4.959,-4.959,-4.959,-4.959,-4.964,-5.0193,-5.0544,-5.0795,-5.1373,-5.1925,-5.2327,-5.1774,-5.1448,-5.1122,-5.0193,-4.9766,-4.959,-4.959,-4.959,-4.959,-4.959,-4.959,-4.959,-4.959,-4.959,-4.959,-4.959,-4.959,-4.959,-4.959,-4.959,-4.959,-4.959,-4.959,-4.959,-4.959,-4.959,-4.9414,-4.8862,-4.7983,-4.733,-4.7093,-4.6652,-4.6376,-4.6577,-4.6928,-4.728,-4.7682,-4.8209,-4.851,-4.851,-4.851,-4.851,-4.851,-4.851,-4.8686,-4.9063,-4.9063,-4.9063,-4.9063,-4.9063,-4.8862,-4.851,-4.8309,-4.8033]},{"header":{"parameterUnit":"m.s-1","parameterCategory":1,"la1":30.6,"la2":29.2853,"lo1":-89.7004,"lo2":-87.6739,"dy":0.0162,"dx":0.0183,"nx":112,"ny":82,"refTime":"2024-04-25T06:00:00:Z","depth":0,"parameterNumber":3,"parameterNumberName":"V-component_of_WINDS"},"data":[0.0,0.0,0.0,0.0,0.0,0.0,0.0,0.0,0.0,0.0,0.0,0.0,0.0,0.0,0.0,0.0,0.0,0.0,0.0,0.0,0.0,0.0,0.0,0.0,0.0,0.0,0.0,0.0,0.0,0.0,0.0,0.0,0.0,0.0,0.0,0.0,0.0,0.0,0.0,0.0,0.0,0.0,0.0,0.0,0.0,0.0,0.0,0.0,0.0,0.0,0.0,0.0,0.0,0.0,0.0,0.0,0.0,0.0,0.0,0.0,0.0,0.0,0.0,0.0,0.0,0.0,0.0,0.0,0.0,0.0,0.0,0.0,0.0,0.0,0.0,0.0,0.0,0.0,0.0,0.0,0.0,0.0,0.0,0.0,0.0,0.0,0.0,0.0,0.0,0.0,0.0,3.2466,3.6031,3.7914,3.7362,3.5077,3.2546,2.9905,0.0,0.0,0.0,0.0,0.0,0.0,0.0,0.0,0.0,0.0,0.0,0.0,0.0,0.0,0.0,0.0,0.0,0.0,0.0,0.0,0.0,0.0,0.0,0.0,0.0,0.0,0.0,0.0,0.0,0.0,0.0,0.0,0.0,0.0,0.0,0.0,0.0,0.0,0.0,0.0,0.0,0.0,0.0,0.0,0.0,0.0,0.0,0.0,0.0,0.0,0.0,0.0,0.0,0.0,0.0,0.0,0.0,0.0,0.0,0.0,0.0,0.0,0.0,0.0,0.0,0.0,0.0,0.0,0.0,0.0,0.0,0.0,0.0,0.0,0.0,0.0,0.0,0.0,0.0,0.0,0.0,0.0,0.0,0.0,0.0,0.0,0.0,0.0,0.0,0.0,0.0,0.0,0.0,0.0,0.0,0.0,0.0,0.0,0.0,0.0,0.0,0.0,0.0,0.0,3.0482,3.5273,3.7586,3.8517,3.7939,3.5966,3.3496,3.056,0.0,0.0,0.0,0.0,0.0,0.0,0.0,0.0,0.0,0.0,0.0,0.0,0.0,0.0,0.0,0.0,0.0,0.0,0.0,0.0,0.0,0.0,0.0,0.0,0.0,0.0,0.0,0.0,0.0,0.0,0.0,0.0,0.0,0.0,0.0,0.0,0.0,0.0,0.0,0.0,0.0,0.0,0.0,0.0,0.0,0.0,0.0,0.0,0.0,0.0,0.0,0.0,0.0,0.0,0.0,0.0,0.0,0.0,0.0,0.0,0.0,0.0,0.0,0.0,0.0,0.0,0.0,0.0,0.0,0.0,0.0,0.0,0.0,0.0,0.0,0.0,0.0,0.0,0.0,0.0,0.0,0.0,0.0,0.0,0.0,0.0,0.0,0.0,0.0,0.0,0.0,0.0,0.0,0.0,0.0,0.0,0.0,0.0,0.0,0.0,0.0,0.0,0.0,3.0091,3.3294,3.6458,3.804,3.8567,3.7808,3.5664,3.3312,3.0723,2.7653,0.0,0.0,0.0,0.0,0.0,0.0,0.0,0.0,0.0,0.0,0.0,0.0,0.0,0.0,0.0,0.0,0.0,0.0,0.0,0.0,0.0,0.0,0.0,0.0,0.0,0.0,0.0,0.0,0.0,0.0,0.0,0.0,0.0,0.0,0.0,0.0,0.0,0.0,0.0,0.0,0.0,0.0,0.0,0.0,0.0,0.0,0.0,0.0,0.0,0.0,0.0,0.0,0.0,0.0,0.0,0.0,0.0,0.0,0.0,0.0,0.0,0.0,0.0,0.0,0.0,0.0,0.0,0.0,0.0,0.0,0.0,0.0,0.0,0.0,0.0,0.0,0.0,0.0,0.0,0.0,0.0,0.0,0.0,0.0,0.0,0.0,0.0,0.0,0.0,0.0,0.0,0.0,0.0,0.0,0.0,0.0,0.0,0.0,0.0,0.0,0.0,0.0,3.2566,3.5403,3.7186,3.8316,3.8591,3.7648,3.541,3.3088,3.085,2.8056,0.0,0.0,0.0,0.0,0.0,0.0,0.0,0.0,0.0,0.0,0.0,0.0,0.0,0.0,0.0,0.0,0.0,0.0,0.0,0.0,0.0,0.0,0.0,0.0,0.0,0.0,0.0,0.0,0.0,0.0,0.0,0.0,0.0,0.0,0.0,0.0,0.0,0.0,0.0,0.0,0.0,0.0,0.0,0.0,0.0,0.0,0.0,0.0,0.0,0.0,0.0,0.0,0.0,0.0,0.0,0.0,0.0,0.0,0.0,0.0,0.0,0.0,0.0,0.0,0.0,0.0,0.0,0.0,0.0,0.0,0.0,0.0,0.0,0.0,0.0,0.0,0.0,0.0,0.0,0.0,0.0,0.0,0.0,0.0,0.0,0.0,0.0,0.0,0.0,0.0,0.0,0.0,0.0,0.0,0.0,0.0,0.0,0.0,0.0,0.0,0.0,0.0,3.3269,3.5554,3.7713,3.8692,3.8839,3.7961,3.5781,3.3449,3.1101,2.8336,0.0,0.0,0.0,0.0,0.0,0.0,0.0,0.0,0.0,0.0,0.0,0.0,0.0,0.0,0.0,0.0,0.0,0.0,0.0,0.0,0.0,0.0,0.0,0.0,0.0,0.0,0.0,0.0,0.0,0.0,0.0,0.0,0.0,0.0,0.0,0.0,0.0,0.0,0.0,0.0,0.0,0.0,0.0,0.0,0.0,0.0,0.0,0.0,0.0,0.0,0.0,0.0,0.0,0.0,0.0,0.0,0.0,0.0,0.0,0.0,0.0,0.0,0.0,0.0,0.0,0.0,0.0,0.0,0.0,0.0,0.0,0.0,0.0,0.0,0.0,0.0,0.0,0.0,0.0,0.0,0.0,0.0,0.0,0.0,0.0,0.0,0.0,0.0,0.0,0.0,0.0,0.0,0.0,0.0,0.0,0.0,0.0,0.0,0.0,0.0,0.0,0.0,3.3248,3.5658,0.0,3.8273,3.817,3.7014,3.4756,3.2627,3.0798,0.0,0.0,0.0,0.0,0.0,0.0,0.0,0.0,0.0,0.0,0.0,0.0,0.0,0.0,0.0,0.0,0.0,0.0,0.0,0.0,0.0,0.0,0.0,0.0,0.0,0.0,0.0,0.0,0.0,0.0,0.0,0.0,0.0,0.0,0.0,0.0,0.0,0.0,0.0,0.0,0.0,0.0,0.0,0.0,0.0,0.0,0.0,0.0,0.0,0.0,0.0,0.0,0.0,0.0,0.0,0.0,0.0,0.0,0.0,0.0,0.0,0.0,0.0,0.0,0.0,0.0,0.0,0.0,0.0,0.0,0.0,0.0,0.0,0.0,0.0,0.0,0.0,0.0,0.0,0.0,0.0,0.0,0.0,0.0,0.0,0.0,0.0,0.0,0.0,0.0,0.0,0.0,0.0,0.0,0.0,0.0,0.0,0.0,0.0,0.0,0.0,0.0,3.0331,3.3081,3.5486,0.0,3.7887,3.775,3.6577,3.4457,3.2494,3.0789,0.0,0.0,0.0,0.0,0.0,0.0,0.0,0.0,0.0,0.0,0.0,0.0,0.0,0.0,0.0,0.0,0.0,0.0,0.0,0.0,0.0,0.0,0.0,0.0,0.0,0.0,0.0,0.0,0.0,0.0,0.0,0.0,0.0,0.0,0.0,0.0,0.0,0.0,0.0,0.0,0.0,0.0,0.0,0.0,0.0,0.0,0.0,0.0,0.0,0.0,0.0,0.0,0.0,0.0,0.0,0.0,0.0,0.0,0.0,0.0,0.0,0.0,0.0,0.0,0.0,0.0,0.0,0.0,0.0,0.0,0.0,0.0,0.0,0.0,0.0,0.0,0.0,0.0,0.0,0.0,0.0,0.0,0.0,0.0,0.0,0.0,0.0,0.0,0.0,0.0,0.0,0.0,0.0,0.0,0.0,0.0,0.0,0.0,0.0,0.0,0.0,0.0,3.0331,3.2752,3.4882,3.6531,3.7546,3.773,3.6946,3.5107,3.317,0.0,0.0,0.0,0.0,0.0,0.0,0.0,0.0,0.0,0.0,0.0,0.0,0.0,0.0,0.0,0.0,0.0,0.0,0.0,0.0,0.0,0.0,0.0,0.0,0.0,0.0,0.0,0.0,0.0,0.0,0.0,0.0,0.0,0.0,0.0,0.0,0.0,0.0,0.0,0.0,0.0,0.0,0.0,0.0,0.0,0.0,0.0,0.0,0.0,0.0,0.0,0.0,0.0,0.0,0.0,0.0,0.0,0.0,0.0,0.0,0.0,0.0,0.0,0.0,0.0,0.0,0.0,0.0,0.0,0.0,0.0,0.0,0.0,0.0,0.0,0.0,0.0,0.0,0.0,0.0,0.0,0.0,0.0,0.0,0.0,0.0,0.0,0.0,0.0,0.0,0.0,0.0,0.0,0.0,0.0,0.0,0.0,0.0,0.0,0.0,0.0,0.0,0.0,3.0382,3.2565,3.4494,3.5891,3.6499,3.6324,3.5232,3.3916,3.2302,3.0306,0.0,0.0,0.0,0.0,0.0,0.0,0.0,0.0,0.0,0.0,0.0,0.0,0.0,0.0,0.0,0.0,0.0,0.0,0.0,0.0,0.0,0.0,0.0,0.0,0.0,0.0,0.0,0.0,0.0,0.0,0.0,0.0,0.0,0.0,0.0,0.0,0.0,0.0,0.0,0.0,0.0,0.0,0.0,0.0,0.0,0.0,0.0,0.0,0.0,0.0,0.0,0.0,0.0,0.0,0.0,0.0,0.0,0.0,0.0,0.0,0.0,0.0,0.0,0.0,0.0,0.0,0.0,0.0,0.0,0.0,0.0,0.0,0.0,0.0,0.0,0.0,0.0,0.0,0.0,0.0,0.0,0.0,0.0,0.0,0.0,0.0,0.0,0.0,0.0,0.0,0.0,0.0,0.0,0.0,0.0,0.0,0.0,0.0,0.0,0.0,0.0,0.0,3.0105,3.2148,3.3904,3.4977,3.5679,3.56,3.4371,3.3548,3.2211,3.0132,0.0,0.0,0.0,0.0,0.0,0.0,0.0,0.0,0.0,0.0,0.0,0.0,0.0,0.0,0.0,0.0,0.0,0.0,0.0,0.0,0.0,0.0,0.0,0.0,0.0,0.0,0.0,0.0,0.0,0.0,0.0,0.0,0.0,0.0,0.0,0.0,0.0,0.0,0.0,0.0,0.0,0.0,0.0,0.0,0.0,0.0,0.0,0.0,0.0,0.0,0.0,0.0,0.0,0.0,0.0,0.0,0.0,0.0,0.0,0.0,0.0,0.0,0.0,0.0,0.0,0.0,0.0,0.0,0.0,0.0,0.0,0.0,0.0,0.0,0.0,0.0,0.0,0.0,0.0,0.0,0.0,0.0,0.0,0.0,0.0,0.0,0.0,0.0,0.0,0.0,0.0,0.0,0.0,0.0,0.0,0.0,0.0,0.0,0.0,0.0,0.0,0.0,2.9654,3.1578,3.3122,3.383,3.4941,3.5189,3.4072,3.3681,3.2595,3.0447,0.0,0.0,0.0,0.0,0.0,0.0,0.0,0.0,0.0,0.0,0.0,0.0,0.0,0.0,0.0,0.0,0.0,0.0,0.0,0.0,0.0,0.0,0.0,0.0,0.0,0.0,0.0,0.0,0.0,0.0,0.0,0.0,0.0,0.0,0.0,0.0,0.0,0.0,0.0,0.0,0.0,0.0,0.0,0.0,0.0,0.0,0.0,0.0,0.0,0.0,0.0,0.0,0.0,0.0,0.0,0.0,0.0,0.0,0.0,0.0,3.7209,0.0,0.0,0.0,0.0,0.0,0.0,0.0,0.0,0.0,0.0,0.0,0.0,0.0,0.0,0.0,0.0,0.0,0.0,0.0,0.0,0.0,0.0,0.0,0.0,0.0,0.0,0.0,0.0,0.0,0.0,0.0,0.0,0.0,0.0,0.0,0.0,0.0,0.0,0.0,0.0,0.0,2.9654,3.0851,3.2016,3.3106,3.3596,3.3836,3.3832,3.3248,3.2157,3.0417,0.0,0.0,0.0,0.0,0.0,0.0,0.0,0.0,0.0,0.0,0.0,0.0,0.0,0.0,0.0,0.0,0.0,0.0,0.0,0.0,0.0,0.0,0.0,0.0,0.0,0.0,0.0,0.0,0.0,0.0,0.0,0.0,0.0,0.0,0.0,0.0,0.0,0.0,0.0,0.0,0.0,0.0,0.0,0.0,0.0,0.0,0.0,0.0,0.0,0.0,0.0,0.0,0.0,0.0,0.0,0.0,0.0,0.0,0.0,0.0,0.0,3.9019,0.0,0.0,0.0,0.0,0.0,0.0,0.0,0.0,0.0,0.0,0.0,0.0,0.0,0.0,0.0,0.0,0.0,0.0,0.0,0.0,0.0,0.0,0.0,0.0,0.0,0.0,0.0,0.0,0.0,0.0,0.0,0.0,0.0,0.0,0.0,0.0,0.0,0.0,0.0,0.0,2.9833,3.0842,3.1785,3.2616,3.3298,3.3625,3.3488,3.3165,3.2343,3.0949,3.0347,0.0,0.0,0.0,0.0,0.0,0.0,0.0,0.0,0.0,0.0,0.0,0.0,0.0,0.0,0.0,0.0,0.0,0.0,0.0,0.0,0.0,0.0,0.0,0.0,0.0,0.0,0.0,0.0,0.0,0.0,0.0,0.0,0.0,0.0,0.0,0.0,0.0,0.0,0.0,0.0,0.0,0.0,0.0,0.0,0.0,0.0,0.0,0.0,0.0,0.0,0.0,0.0,0.0,5.0393,5.0745,5.1699,5.1247,5.1297,5.1473,4.6778,4.3689,4.1882,0.0,0.0,0.0,0.0,0.0,0.0,0.0,0.0,0.0,0.0,0.0,0.0,0.0,0.0,0.0,0.0,0.0,0.0,0.0,0.0,0.0,0.0,0.0,0.0,0.0,3.369,3.3438,0.0,0.0,0.0,0.0,0.0,0.0,0.0,0.0,0.0,0.0,0.0,0.0,3.0088,3.1048,3.1871,3.2337,3.3376,3.3818,3.3408,3.3275,3.2763,3.175,3.0941,2.9983,0.0,0.0,0.0,0.0,0.0,0.0,0.0,0.0,0.0,0.0,0.0,0.0,0.0,0.0,0.0,0.0,0.0,0.0,0.0,0.0,0.0,0.0,0.0,0.0,0.0,0.0,0.0,0.0,0.0,0.0,0.0,0.0,3.9572,4.0124,0.0,0.0,0.0,0.0,0.0,0.0,0.0,0.0,0.0,0.0,0.0,0.0,0.0,5.0243,5.1925,5.2955,5.411,5.534,5.5742,5.6294,5.6897,5.6846,5.6846,5.6846,5.5616,0.0,4.7531,4.5547,0.0,0.0,0.0,0.0,0.0,0.0,0.0,0.0,0.0,0.0,0.0,0.0,0.0,0.0,0.0,0.0,0.0,0.0,0.0,0.0,0.0,0.0,3.5207,3.5852,3.5977,3.5927,0.0,3.3746,3.2014,3.2014,3.1135,0.0,0.0,0.0,0.0,0.0,0.0,0.0,3.0253,3.095,3.1638,3.2309,3.3107,3.3819,3.4447,3.3697,3.2942,3.2407,3.121,3.0193,2.9502,2.9472,0.0,0.0,0.0,0.0,0.0,0.0,0.0,0.0,0.0,0.0,0.0,0.0,0.0,0.0,0.0,0.0,0.0,0.0,0.0,0.0,0.0,0.0,0.0,0.0,0.0,0.0,0.0,0.0,0.0,4.0752,4.2208,4.276,4.261,4.2133,0.0,0.0,0.0,0.0,0.0,0.0,0.0,0.0,0.0,5.2151,5.4059,5.6018,5.8001,5.8805,5.991,6.1316,6.124,6.1517,6.2044,6.1743,6.1441,6.114,6.0889,5.8679,5.4913,5.0544,4.7255,4.4794,0.0,0.0,0.0,0.0,4.1304,4.2007,4.2007,4.2359,0.0,0.0,0.0,0.0,0.0,0.0,0.0,0.0,0.0,0.0,0.0,0.0,0.0,3.8115,3.8039,3.7813,3.7813,3.6307,3.465,0.0,3.2014,3.0884,3.0357,0.0,0.0,0.0,0.0,0.0,3.0684,3.1431,3.2128,3.2668,3.3409,3.4065,3.4664,3.3787,3.3181,3.3065,3.178,3.0763,3.0133,3.0103,2.9953,0.0,0.0,0.0,0.0,0.0,0.0,0.0,0.0,0.0,0.0,0.0,0.0,0.0,0.0,0.0,0.0,0.0,0.0,0.0,0.0,0.0,0.0,0.0,0.0,0.0,0.0,0.0,0.0,4.3338,4.507,4.62,4.6075,4.5573,0.0,0.0,0.0,0.0,0.0,0.0,5.1122,5.3155,5.534,5.7826,5.9784,6.1667,6.3475,6.4178,6.5132,6.6338,6.5936,6.5886,6.6137,6.571,6.5233,6.4731,6.4429,6.3274,6.114,5.5365,5.1423,4.8862,4.7029,4.5723,4.4869,4.4719,4.502,4.5497,4.5497,4.5773,4.5924,4.4819,0.0,4.2011,3.9799,0.0,0.0,0.0,0.0,3.7561,3.8743,3.9295,3.9647,4.0199,3.9798,3.9295,3.9295,3.8417,3.701,0.0,3.3169,3.1863,3.1336,0.0,0.0,0.0,0.0,3.0811,3.1011,3.1873,3.2632,3.3094,3.3785,3.4332,3.4731,3.3967,3.3478,3.3514,3.2378,3.1451,3.0791,3.0761,3.0552,3.0073,0.0,0.0,0.0,0.0,0.0,0.0,0.0,0.0,0.0,0.0,0.0,0.0,0.0,0.0,0.0,0.0,0.0,0.0,0.0,0.0,0.0,0.0,0.0,0.0,0.0,0.0,0.0,0.0,0.0,5.0619,4.9992,0.0,0.0,0.0,0.0,4.9967,5.1599,5.3482,5.5767,5.8453,6.0738,6.2446,6.5132,6.6865,6.7493,6.8572,6.915,6.9135,6.92,6.8924,6.8447,6.8422,6.812,6.7543,6.6463,6.5634,6.4655,5.9633,5.6244,5.3984,5.18,5.0569,4.9992,4.9464,4.9615,5.0092,5.0092,5.0092,4.9941,4.8837,4.5974,4.2534,4.0325,3.9195,0.0,0.0,3.9496,3.9898,4.1584,4.158,4.1354,4.1961,4.1204,4.0425,4.0425,3.9572,3.8341,0.0,3.4901,3.3596,3.3043,0.0,3.0583,3.0583,3.0637,3.0823,3.1172,3.2064,3.2917,3.3501,3.4088,3.4501,3.4868,3.4448,3.3955,3.3544,3.2856,3.2138,3.1481,3.1451,3.1451,3.1421,3.1391,0.0,0.0,0.0,0.0,0.0,0.0,0.0,0.0,0.0,0.0,0.0,0.0,0.0,0.0,0.0,0.0,0.0,0.0,0.0,0.0,0.0,0.0,0.0,0.0,0.0,0.0,0.0,0.0,5.416,5.4084,0.0,5.4361,5.3381,5.3557,5.5591,5.7298,5.9207,6.1416,6.3827,6.5911,6.7568,6.9275,7.0606,7.151,7.1912,7.2113,7.2113,7.1736,7.1083,7.0204,6.9828,6.8999,6.7769,6.7367,6.6463,6.5107,6.2647,6.0085,5.7524,5.5315,5.411,5.3507,5.2578,5.2352,5.2477,5.2151,5.18,5.1247,4.9791,4.7657,4.5447,4.4292,4.3062,4.2082,4.2283,4.2333,4.2484,4.3062,4.3062,4.2961,4.3162,4.2108,4.1,4.1,4.0174,3.9019,3.7688,3.6081,3.455,3.3294,3.2416,3.1782,3.1428,3.1617,3.194,3.2326,3.288,3.3437,3.3854,3.4196,3.4534,3.4868,3.441,3.4097,3.4143,3.3514,3.2856,3.2168,3.2138,3.1929,3.1511,3.1511,3.1391,0.0,0.0,0.0,0.0,0.0,0.0,0.0,0.0,0.0,0.0,0.0,0.0,0.0,0.0,0.0,0.0,0.0,0.0,0.0,0.0,0.0,0.0,0.0,0.0,0.0,0.0,5.5641,5.8403,5.888,5.9207,5.9759,5.8981,5.9282,6.1316,6.2847,6.458,6.6589,6.8447,7.0054,7.1334,7.2464,7.3393,7.4146,7.3971,7.387,7.387,7.3092,7.2163,7.1058,7.0706,6.9652,6.807,6.7869,6.694,6.5484,6.4404,6.2747,6.0663,5.8252,5.7097,5.662,5.5315,5.4813,5.4687,5.3808,5.3105,5.2377,5.0695,4.9289,4.8058,4.7129,4.5949,4.4895,4.4694,4.4518,4.4418,4.4593,4.4367,4.4091,4.4091,4.2685,4.1329,4.1436,4.0555,3.9499,3.8463,3.7152,3.5722,3.4281,3.3504,3.2976,3.2634,3.2555,3.2648,3.3061,3.3414,3.3785,3.4162,3.4399,3.4668,3.4968,3.465,3.4424,3.4502,3.4053,3.3544,3.2886,3.2647,3.2288,3.1839,3.163,3.1511,3.1511,0.0,0.0,0.0,0.0,0.0,0.0,0.0,0.0,0.0,0.0,0.0,0.0,0.0,0.0,0.0,0.0,0.0,0.0,0.0,0.0,0.0,0.0,0.0,5.2754,5.5942,5.9483,6.3375,6.4304,6.4856,6.5409,6.4982,6.5358,6.7015,6.8145,6.9476,7.1083,7.2213,7.3067,7.3619,7.4699,7.5276,7.5276,7.4724,7.4423,7.4397,7.3268,7.2163,7.1083,7.1058,7.0129,6.8572,6.7995,6.7116,6.5986,6.4906,6.4153,6.3425,6.0638,5.9533,5.9332,5.7675,5.7022,5.6746,5.5139,5.4185,5.3432,5.185,5.0946,5.0167,4.851,4.7631,4.7079,4.6527,4.5949,4.5623,4.615,4.5447,4.4618,4.4593,4.2911,4.1383,4.16,4.0844,3.9829,3.8956,3.8171,3.7289,3.6121,3.4966,3.4157,3.4157,3.3397,0.0,3.3348,3.3655,3.402,3.4395,3.4702,3.4968,3.5195,3.5195,3.4996,3.4562,3.4533,3.4234,3.3544,3.2916,3.2557,3.2527,3.1899,3.157,3.157,0.0,0.0,0.0,0.0,0.0,0.0,0.0,0.0,0.0,0.0,0.0,0.0,0.0,0.0,0.0,0.0,0.0,0.0,0.0,0.0,0.0,0.0,5.4737,5.5767,5.9131,6.2772,6.6262,6.7493,6.8447,6.9401,6.9351,6.9627,7.048,7.1585,7.2414,7.2891,7.3946,7.4623,7.4774,7.5452,7.5829,7.5829,7.5276,7.4799,7.4397,7.3268,7.2163,7.1058,7.0255,6.92,6.797,6.699,6.6162,6.5434,6.4354,6.3827,6.35,6.1492,6.0713,6.0462,5.8403,5.6897,5.5717,5.4863,5.4185,5.3557,5.2754,5.2101,5.1473,5.0619,4.9414,4.8209,4.7631,4.6803,4.6024,4.5773,4.5171,4.4418,4.3614,4.2359,4.1282,4.1172,4.0565,3.9829,3.8956,3.8914,3.8463,3.6773,3.6051,3.5752,3.571,3.5207,0.0,3.4944,3.4953,3.4922,3.4794,3.4835,3.4968,3.5195,3.5195,3.5204,3.522,3.522,3.4921,3.4264,3.4023,3.3724,3.3245,3.3036,3.2946,0.0,0.0,0.0,0.0,0.0,0.0,0.0,0.0,0.0,0.0,0.0,0.0,0.0,0.0,0.0,0.0,0.0,0.0,0.0,0.0,0.0,0.0,5.539,5.9056,6.124,6.3676,6.6312,6.9175,7.0706,7.1786,7.2414,7.2489,7.2715,7.3268,7.392,7.4372,7.4598,7.5226,7.5578,7.5578,7.5879,7.5954,7.5728,7.5176,7.4623,7.4046,7.2916,7.1937,7.1058,6.9953,6.8848,0.0,6.6589,6.566,6.4881,6.4028,6.355,0.0,0.0,0.0,0.0,0.0,5.662,5.5265,5.4486,5.3984,5.3607,5.3105,5.2553,5.2,5.1448,5.0117,4.8661,4.8083,4.6979,4.5899,4.5573,4.4895,4.4066,4.3187,4.2133,4.1232,4.1099,4.0644,4.0108,3.9705,3.973,0.0,3.8474,3.7554,3.7068,3.7179,3.6536,3.5949,3.5804,3.5629,3.5371,3.506,3.51,3.5195,3.5326,3.5326,0.0,0.0,0.0,3.519,3.4533,3.4503,0.0,0.0,0.0,3.3484,3.3484,0.0,0.0,0.0,3.175,3.1511,0.0,0.0,0.0,0.0,0.0,0.0,0.0,0.0,0.0,0.0,0.0,0.0,0.0,0.0,0.0,0.0,5.9031,6.3375,6.7593,6.8798,7.0003,7.1962,7.3569,7.4523,7.4598,7.4598,7.4799,7.5301,7.5327,7.5552,7.603,0.0,0.0,0.0,0.0,7.5829,7.5327,7.4724,7.4171,7.3669,7.2414,7.1535,7.0958,6.9803,6.8698,6.7643,6.6438,6.5383,6.4429,6.3827,6.3224,6.2546,6.1492,6.0964,6.0487,5.7901,5.6244,5.5139,5.4059,0.0,0.0,5.308,5.2553,5.2,5.1448,5.0117,4.8661,4.8083,4.6728,4.5472,4.5422,4.4543,4.3564,4.2936,4.2007,4.1263,4.1206,4.085,4.064,4.0762,4.059,4.0428,4.054,3.9157,3.8144,3.8587,3.7568,3.6625,3.6274,3.5962,3.5658,3.5373,0.0,0.0,3.5519,3.5519,3.5519,3.5519,3.5519,3.522,3.4653,3.4623,3.4322,3.3724,3.3724,3.3724,3.3724,3.3634,3.3604,3.3574,3.2288,3.172,0.0,0.0,0.0,0.0,0.0,0.0,0.0,0.0,0.0,0.0,0.0,0.0,0.0,0.0,0.0,5.9257,6.3626,6.7442,7.0079,7.2087,7.3443,7.387,7.4598,7.5251,7.5703,7.5728,7.5778,7.5879,7.5904,7.5954,7.6055,7.6055,7.6055,7.6055,7.6055,7.6004,7.5904,7.4925,7.4372,7.4222,0.0,0.0,7.0355,6.8823,6.7769,6.7041,6.5459,6.4655,6.4379,6.34,6.2395,6.1441,6.0763,5.9684,5.8353,5.6897,5.5666,5.4637,5.3934,5.3432,5.3055,5.2955,5.2553,5.2,5.1448,5.0117,0.0,4.8083,4.6728,4.5372,4.492,4.3966,4.2886,4.1882,4.1314,4.092,4.0671,4.0923,4.1091,4.086,4.0903,4.0939,4.1052,4.0092,3.9395,3.9527,3.9169,3.8602,3.7794,3.7192,3.6679,3.629,3.5786,3.5519,3.5519,3.5519,3.5519,3.5519,3.5519,3.5459,3.531,3.531,3.525,3.513,3.51,3.51,3.51,3.4562,3.4324,3.4294,3.3484,3.3125,0.0,0.0,0.0,0.0,0.0,0.0,0.0,0.0,0.0,0.0,0.0,5.0368,5.2854,0.0,5.9885,6.35,6.7091,7.0229,7.2439,7.3946,7.4824,7.4824,7.5301,7.5753,7.603,7.6055,7.6055,7.6055,7.6055,7.6055,7.6055,7.6055,7.6055,7.6055,7.6055,7.5778,7.5251,7.4699,7.4121,7.3544,7.1887,7.0807,7.0204,6.8547,6.7493,6.689,6.5208,6.4454,6.4379,6.3274,6.2169,6.109,6.0236,5.9081,5.7725,5.6319,5.5265,5.4436,5.3607,5.313,5.2879,5.2603,5.2151,5.1523,5.0695,4.9464,4.8234,4.7682,4.6326,4.4995,4.4694,4.3589,4.2359,4.153,4.1115,4.082,4.0568,4.0922,4.1319,4.1425,4.1328,4.1388,4.1781,4.1197,4.0567,4.0144,3.9789,3.9148,3.8216,3.751,3.6956,3.6567,3.5908,3.5519,3.5519,3.5519,3.5519,3.5519,3.5519,3.5519,3.5519,3.5519,3.5519,3.5519,3.5519,3.5519,3.5519,3.516,3.4981,3.4981,3.4651,3.4143,0.0,0.0,0.0,0.0,0.0,0.0,0.0,0.0,4.9439,5.0921,5.3306,5.5867,5.8202,6.119,6.4304,6.7417,7.0079,7.2389,7.4297,7.495,7.5251,7.5251,7.5728,7.6055,7.6055,7.6055,7.6055,7.6055,7.6055,7.6055,7.6055,7.6055,7.6055,7.6055,7.6055,7.5578,7.4598,7.4473,7.3845,7.2715,7.161,7.0681,6.9903,6.8447,6.7367,6.6564,6.5007,6.4254,6.4078,6.3199,6.2169,6.1065,5.9935,5.878,5.7524,5.5842,5.4888,5.426,5.3281,5.2929,5.2829,5.2277,5.1724,5.1071,4.9941,4.8812,4.7807,4.728,4.5924,4.4618,4.4618,4.3313,4.1882,4.1401,4.1039,4.0771,4.0594,4.1047,4.1597,4.2141,4.193,4.1865,4.2452,4.2181,4.1497,4.0597,4.007,3.9467,3.8495,3.7634,3.702,3.6716,3.5968,3.5519,3.5519,3.5519,3.5519,3.5519,3.5519,3.5519,3.5519,3.5519,3.5519,3.5519,3.5519,3.5519,3.5519,3.5519,3.5519,3.5519,3.5519,3.4921,4.4794,4.4292,4.4518,4.5573,4.6652,4.7983,0.0,0.0,5.3808,5.642,5.878,6.1165,6.3877,6.6287,6.8648,7.0983,7.2866,7.4297,7.505,7.5201,7.5251,7.5251,7.5728,7.6055,7.6055,7.6055,7.6055,7.6055,7.6055,7.6055,7.6055,7.6055,7.6055,7.6055,7.6055,7.5753,7.5151,7.4674,7.3845,7.2715,7.161,7.028,6.8773,6.8095,6.694,6.5409,6.4279,6.3475,6.2998,6.2873,6.2169,6.1065,5.9935,5.8529,5.6922,5.5265,5.4285,5.3708,5.313,5.2929,5.2829,5.2277,5.1724,5.1071,4.9941,4.8812,4.7807,4.728,4.5924,4.4618,4.4618,4.3037,4.1351,4.13,4.0893,4.0619,4.0795,4.1471,4.219,4.2679,4.2664,4.2593,4.2716,4.2464,4.1891,4.0803,4.0829,4.0515,3.9397,3.8177,3.734,3.7315,3.6237,3.5519,3.5519,3.5519,3.5519,3.5519,3.5519,3.5519,3.5519,3.5519,3.5519,3.5519,3.5519,3.5519,3.5519,3.5519,3.5519,3.5519,3.5519,3.5429,4.5171,4.5095,4.5949,0.0,4.9515,5.1875,5.411,5.6394,5.8755,6.1215,6.3224,6.5308,6.7744,6.9476,7.1158,0.0,7.4222,7.4975,7.5201,7.495,7.4523,7.3845,7.3694,7.4021,7.5,7.5402,7.5578,7.5578,7.5879,7.6055,7.6055,7.6055,7.6055,7.6055,7.5753,7.5327,7.4774,7.4222,7.3368,7.2238,7.1133,6.9903,6.8597,6.7719,6.6413,6.4781,6.4028,6.3375,6.2797,6.2471,6.1893,6.104,5.9583,5.8001,5.6394,5.5064,5.421,5.3632,5.3105,5.2929,5.2779,5.19,5.1473,5.0946,4.9163,4.8284,4.7732,4.6903,4.5673,4.4618,4.4618,4.293,4.1275,4.1275,4.092,4.0542,4.0643,4.1448,4.2239,4.2582,4.2841,4.2952,4.3012,4.2869,4.2428,4.1578,4.1124,4.0677,4.0061,3.8811,3.7704,3.6956,3.6058,3.5519,3.5519,3.5519,3.5519,3.5519,3.5519,3.5519,3.5519,3.5519,3.5519,3.5519,3.5519,3.5519,3.5519,3.5519,3.5519,3.5519,3.5519,3.5519,4.6075,0.0,0.0,5.0117,5.2955,5.5892,5.8127,6.0663,6.3073,6.5007,6.6714,6.8422,7.0154,7.1384,7.264,7.4171,7.4875,7.5251,7.5251,7.4623,7.372,7.2439,7.1661,7.1636,7.2715,7.387,7.4674,7.5,7.5527,7.5879,7.6055,7.6055,7.6055,7.6055,7.5527,7.4975,7.4423,7.372,7.2791,7.1661,7.0556,6.9451,6.8346,6.6915,6.5534,6.4228,6.3676,6.3224,6.2797,6.2245,6.1667,6.1014,5.9332,5.7675,5.6068,5.4963,5.411,5.3432,5.3055,5.2929,5.2754,5.1649,5.1272,5.0845,4.8586,4.7908,4.7682,4.6602,4.5497,4.4618,4.4618,4.3087,4.153,4.1326,4.0969,4.0645,4.0644,4.1348,4.2141,4.2658,4.3046,4.337,4.3446,4.33,4.3002,4.2543,4.1647,4.0858,4.0442,3.923,3.7913,3.666,3.6058,3.5699,3.5519,3.5519,3.5519,3.5519,3.5519,3.5519,3.5519,3.5519,3.5519,3.5519,3.5519,3.5519,3.5519,3.5519,3.5519,3.5519,3.5519,3.5519,0.0,0.0,5.1774,5.4511,5.7273,5.991,6.2144,6.4379,6.6287,6.7467,6.9024,7.0355,7.0958,7.1962,7.3092,7.4222,7.4875,7.5251,7.5251,7.4297,7.2991,7.1334,7.0179,6.9325,0.0,7.1234,7.3268,7.4347,7.495,7.5502,7.603,7.6055,7.6055,7.6055,7.5527,7.4975,7.4423,7.3318,7.2213,7.1083,7.0003,6.8899,6.7744,6.5559,6.4228,6.3676,6.3099,6.2847,6.2797,6.2245,6.1667,6.1014,5.9357,5.77,5.6068,5.4963,5.3884,5.2955,5.2929,5.2929,5.2754,5.1649,5.1272,5.0845,4.8586,4.7908,4.7682,4.6602,4.5497,4.4618,4.4618,4.3388,4.2062,4.1455,4.1089,4.0899,4.0898,4.1348,4.2043,4.3067,4.3642,4.3985,4.4146,4.383,4.3589,4.3666,4.2541,4.1361,4.0539,3.923,3.7913,3.666,3.6477,3.6207,3.5549,3.5519,3.5519,3.5519,3.5519,3.5519,3.5519,3.5519,3.5519,3.5519,3.5519,3.5519,3.5519,3.5519,3.5519,3.5519,3.5519,3.5519,0.0,0.0,5.4662,5.7424,6.0487,6.3274,6.5157,6.6714,6.7894,6.8271,6.8773,6.9125,6.8924,6.9803,7.0782,7.1535,7.274,7.3569,7.3569,7.2941,7.1861,7.0204,6.8698,0.0,0.0,0.0,0.0,7.2665,7.3946,7.4925,7.5477,7.5854,7.5879,7.5527,7.4975,7.4247,7.3293,7.2565,7.1636,7.0531,6.9049,6.7568,6.6086,6.4982,6.4178,6.3651,6.3073,6.2621,6.2245,6.1692,6.0914,5.9935,5.8679,5.7148,5.5566,5.4838,5.3858,5.2929,5.2929,5.2929,5.2754,5.1649,5.1272,5.0845,4.8586,4.7908,4.7682,4.6602,4.5773,4.5095,4.4719,4.3664,4.2615,4.2007,4.1552,4.1182,4.1158,4.1736,4.2435,4.3088,4.3926,4.4553,4.4624,4.4342,4.39,4.3312,4.2634,4.1739,4.0576,3.9619,3.8571,3.7255,3.6716,3.6207,3.5579,3.5519,3.5519,3.5519,3.5519,3.5519,3.5519,3.5519,3.5519,3.5519,3.5519,3.5519,3.5519,3.5519,3.5519,3.5519,3.5519,3.5519,0.0,5.5641,5.8654,6.1215,6.3927,6.6237,6.7317,6.812,6.8396,6.7593,6.7141,6.6639,6.586,6.6463,6.7442,6.8597,7.0506,7.1987,7.2389,7.2288,7.151,6.9652,6.8346,6.7417,0.0,0.0,0.0,7.151,7.3167,7.4448,7.5201,7.5578,7.5603,7.5251,7.4523,7.3669,7.274,7.1987,7.0857,6.9351,6.7894,6.6438,6.4982,6.4429,6.3902,6.335,6.2772,6.2345,6.1943,6.119,6.0337,5.9382,5.8328,5.6872,5.5315,5.4762,5.3858,5.2929,5.2929,5.2929,5.2754,5.1649,5.1272,5.0845,4.8586,4.7908,4.7682,4.6602,4.5924,4.5397,4.502,4.4231,4.3305,4.2725,4.235,4.2007,4.1699,4.2301,4.302,4.3307,4.4181,4.4978,4.512,4.4705,4.4154,4.3353,4.2962,4.2252,4.0935,4.0187,3.926,3.7913,3.7195,3.6567,3.5908,3.5639,3.5519,3.5519,3.5519,3.5519,3.5519,3.5519,3.5519,3.5519,3.5519,3.5519,3.5519,3.5519,3.5519,3.5519,3.5519,3.5519,5.642,6.0161,6.3601,6.576,6.7493,6.8648,6.8597,6.8497,6.7769,6.5459,6.4128,6.2998,0.0,0.0,6.3249,6.5459,6.8221,7.0506,7.1661,7.2313,7.1912,0.0,0.0,0.0,0.0,0.0,0.0,7.0932,0.0,7.3996,7.5101,7.5176,7.5176,7.5151,7.4121,7.3268,7.264,7.1535,6.9903,6.7794,6.6639,6.5534,6.4454,6.3927,6.3375,6.2797,6.2245,6.1994,6.1868,6.0738,5.9935,5.9307,5.8252,5.6821,5.529,5.4762,5.3858,5.2929,5.2929,5.2929,5.2754,5.1649,5.1272,5.087,4.8636,4.7933,4.7682,4.6652,4.5949,4.5522,4.5497,4.49,4.4224,4.3584,4.3493,4.3307,4.2448,4.3072,4.3748,4.3677,4.4509,4.5247,4.5446,4.5055,4.4457,4.3808,4.3526,4.291,4.1564,4.0846,3.9918,3.8542,3.7823,3.7195,3.6596,3.5968,3.5609,3.5609,3.5579,3.5549,3.5549,3.5519,3.5519,3.5519,3.5519,3.5519,3.5519,3.5519,3.5519,3.5519,3.5519,3.5519,6.0462,6.3877,6.6865,6.8246,6.8924,6.9024,6.8196,6.6714,6.4655,6.1592,5.9784,5.8127,0.0,0.0,0.0,6.1441,6.5183,0.0,7.0405,7.151,0.0,7.0782,0.0,6.9125,6.8848,6.8949,0.0,0.0,7.1861,7.2816,7.3946,7.4397,7.4448,7.4021,7.3318,7.2489,7.151,7.0003,6.8748,6.7794,6.6639,6.5534,6.4454,6.3927,6.3375,6.2797,6.2245,6.1768,6.1316,6.0161,5.9156,5.8227,5.7524,5.6244,5.4762,5.4612,5.3858,5.2929,5.2929,5.2929,5.2754,5.1649,5.1272,5.0946,4.9113,4.8259,4.7782,4.7104,4.6527,4.5999,4.5598,4.5203,4.4751,4.4167,4.4048,4.394,4.3256,4.404,4.4785,4.45,4.5355,4.6078,4.5669,4.562,4.5272,4.4116,4.3964,4.3419,4.1624,4.1235,4.0427,3.8571,3.8242,3.7883,3.7225,3.7015,3.6926,3.6926,3.6477,3.6237,3.6237,3.5759,3.5519,3.5519,3.5519,3.5519,3.5519,3.5519,3.5519,3.5519,3.5519,3.5519,6.4605,6.7442,6.9752,7.038,6.9803,6.8597,6.6764,6.4053,6.0939,5.7349,5.4913,0.0,5.1774,5.3155,0.0,0.0,0.0,0.0,7.0255,7.2012,7.2816,0.0,7.1636,0.0,7.0907,7.0882,7.1133,0.0,7.2087,7.2665,7.3544,7.3895,7.392,7.3594,7.2791,7.1736,7.038,6.8974,6.797,6.7417,6.6036,6.5057,6.4429,6.3676,6.3149,6.2797,0.0,6.1466,6.109,5.9709,5.8654,5.7851,5.7273,5.6018,5.4561,5.4561,5.3858,5.2929,5.2929,5.2929,5.2779,5.1925,5.1473,5.1021,4.9565,4.856,4.7807,4.728,4.6788,4.6355,4.58,4.5686,4.5525,4.5016,4.5068,4.4993,4.4113,4.4985,4.5884,4.5573,4.6106,4.6462,4.6078,4.5986,4.5654,4.4585,4.4333,4.3718,4.2081,4.1602,4.0846,3.9409,3.8751,3.8242,3.7883,3.7584,3.7404,3.7404,3.7075,3.6896,3.6896,3.6537,3.6207,3.5938,3.5938,3.5789,3.5519,3.5519,3.5519,3.5519,3.5519,3.5519,6.8572,7.0606,7.2087,7.1937,7.0079,6.7518,6.458,6.0763,5.6746,5.2854,0.0,4.797,4.7983,4.9439,5.2251,5.7198,0.0,6.6664,7.0154,7.264,7.3971,7.3644,7.3669,7.3494,7.2991,7.2966,7.2916,7.2841,7.2841,7.3042,7.3468,7.3468,7.3418,7.3268,7.2313,7.1008,6.9351,6.8321,6.7518,6.6965,6.5258,6.4454,6.4429,6.3324,6.2822,6.2772,0.0,0.0,6.1065,5.9408,5.8403,5.7851,5.7273,5.6018,5.4561,5.4561,5.3858,5.2929,5.2929,5.2929,5.2829,5.2277,5.1724,5.1096,5.0017,4.8862,4.7807,4.7355,4.7046,4.6679,4.607,4.618,4.629,4.5767,4.6089,4.6286,4.5068,4.5951,4.6886,4.6727,4.6668,4.6668,4.6668,4.6399,4.5934,4.525,4.4762,4.3988,4.283,4.2021,4.1235,4.0487,3.9349,3.8631,3.8542,3.8003,3.7674,3.7674,3.7584,3.7524,3.7524,3.7464,3.7165,3.6626,3.6537,3.6207,3.5639,3.5549,3.5519,3.5519,3.5519,3.5519,7.1535,7.264,7.3067,7.2138,6.92,6.5584,6.1918,5.7022,0.0,0.0,4.5246,4.3495,4.389,4.5723,4.8786,5.3758,5.878,6.3525,6.7769,7.0656,7.2665,0.0,0.0,0.0,0.0,0.0,0.0,0.0,0.0,7.3268,7.2891,7.2891,7.2464,7.156,7.1334,7.043,6.8773,6.812,6.7518,6.6965,6.5258,6.4454,6.4429,6.3324,6.2822,6.2772,6.1667,0.0,6.1065,5.9408,5.8403,5.7851,5.7273,5.6018,5.4561,5.4561,5.3858,5.2929,5.2929,5.2929,5.2829,5.2277,5.1724,5.1147,5.0469,4.9163,4.7883,4.7807,4.7323,4.6679,4.607,4.6295,4.657,4.5741,4.6544,4.722,4.6197,4.6602,4.7148,4.7167,4.7179,4.7179,4.7179,4.7133,4.6877,4.6177,4.5532,4.4855,4.4077,4.294,4.1782,4.0516,4.0187,3.9828,3.929,3.914,3.9044,3.9044,3.8542,3.8212,3.8212,3.7704,3.7375,3.7255,3.6746,3.6417,3.6327,3.5759,3.5519,3.5519,3.5519,3.5519,7.3242,7.382,7.3619,7.1912,6.8346,6.3952,5.8905,0.0,0.0,0.0,4.1781,4.0578,4.0855,4.3363,0.0,5.1272,5.6671,6.1743,6.5911,6.9627,0.0,0.0,0.0,0.0,0.0,0.0,0.0,0.0,0.0,7.3644,7.2765,7.2464,7.1937,7.1108,7.0531,6.9577,6.8221,6.7643,6.7091,6.6513,6.5132,6.4454,6.4429,6.3324,6.2822,6.2772,6.1969,0.0,6.1065,5.9684,5.8654,5.7851,5.7273,5.6018,5.4561,5.4561,5.3858,5.2929,5.2929,5.2929,5.2829,5.2277,5.1859,5.1488,5.121,4.9849,4.8404,4.8404,4.7982,4.7365,4.6772,4.7205,4.7538,4.6649,4.6985,4.7516,4.7701,4.746,4.7299,4.7746,4.7549,4.7309,4.7309,4.7309,4.707,4.6369,4.6052,4.5454,4.4436,4.3778,4.288,4.1602,4.0816,4.0277,3.9948,3.9619,3.9373,3.9373,3.911,3.8931,3.8931,3.8631,3.8302,3.7913,3.7614,3.7315,3.6956,3.6327,3.6028,3.5998,3.5669,3.5519,7.4071,7.4423,7.3845,7.1485,6.7392,6.2345,5.6244,5.0795,0.0,4.0953,3.9019,3.8241,3.8467,4.1279,4.4844,0.0,5.4059,5.9182,6.3299,6.7693,0.0,0.0,0.0,0.0,0.0,0.0,0.0,0.0,0.0,0.0,7.259,7.2138,7.161,7.0932,6.9953,6.8924,6.7819,6.7267,6.6614,6.5936,6.4931,6.4404,6.4279,6.3274,6.2822,6.2797,6.2245,0.0,0.0,6.0085,5.8981,5.7851,5.7399,5.6143,5.4561,5.4561,5.3858,5.2929,5.2929,5.2929,5.2829,5.2345,5.2034,5.1753,5.1626,5.0359,4.8984,4.8984,4.8703,4.8274,4.7639,4.8264,4.8787,4.8151,4.7829,4.7962,4.9055,4.8488,4.7877,4.8238,4.7878,4.7459,4.7339,4.7309,4.713,4.6621,4.6369,4.5891,4.4885,4.4496,4.3928,4.292,4.1594,4.0696,4.0427,3.9918,3.9559,3.9403,3.9373,3.9373,3.9373,3.9373,3.917,3.8631,3.8452,3.8123,3.7614,3.6985,3.6626,3.6477,3.5968,3.5639,7.3971,7.4423,7.377,7.1008,6.6262,6.0638,5.4536,0.0,4.3037,3.9044,3.696,3.611,3.7161,3.8868,4.143,4.5321,4.9364,5.3733,5.8629,6.3124,0.0,0.0,0.0,0.0,0.0,0.0,0.0,0.0,0.0,0.0,7.1987,7.1937,7.141,7.038,6.9752,6.8924,6.7819,6.7267,6.6438,6.5358,6.4756,6.4228,6.3751,6.3124,6.2822,6.2797,6.2245,0.0,0.0,6.0512,5.9307,5.7901,5.7851,5.6495,5.4561,5.4561,5.3858,5.2929,5.2929,5.2929,5.2829,5.2658,5.2235,5.1677,5.1169,5.0205,4.9377,4.9377,4.918,4.8881,4.8239,4.9171,5.0253,5.0284,4.968,4.9213,4.971,4.9736,4.9413,4.8462,4.8237,4.7997,4.7399,4.7309,4.7279,4.7219,4.6711,4.6249,4.61,4.5065,4.4257,4.4137,4.297,4.1722,4.0487,4.0337,4.0068,3.9469,3.9373,3.9373,3.9373,3.9373,3.9379,3.932,3.8721,3.8362,3.8302,3.7644,3.7045,3.6477,3.6417,3.6088,7.2263,7.3393,7.3242,7.048,6.586,6.0236,5.3482,0.0,4.261,3.8391,3.6734,3.6081,3.6182,3.8115,4.0425,4.2635,4.6527,5.0645,5.4662,0.0,0.0,0.0,0.0,0.0,0.0,0.0,0.0,0.0,0.0,0.0,7.0958,7.0907,7.0556,6.9803,6.8924,6.8095,6.7317,6.6739,6.6061,6.5283,6.4731,6.4203,6.3676,6.3099,6.2822,6.2822,6.2596,0.0,0.0,6.0939,5.9684,5.7901,5.7901,5.6545,5.4561,5.4561,5.3858,5.2929,5.3204,5.3273,5.324,5.3263,5.3137,5.2894,5.2296,5.1803,5.1283,5.0937,5.0945,5.0843,5.0017,5.0516,5.1185,5.1146,5.0749,5.0369,5.0443,5.0169,4.9816,4.9508,4.8835,4.8207,4.7938,4.7578,4.7309,4.7309,4.707,4.677,4.6339,4.5801,4.5214,4.4407,4.315,4.2201,4.1662,4.1205,4.0696,4.0038,4.0008,3.9828,3.9439,3.9373,3.9373,3.9373,3.914,3.902,3.902,3.8332,3.7883,3.7614,3.7225,3.6686,6.9401,7.1133,7.1485,6.8874,6.4479,5.9031,0.0,0.0,4.2158,3.804,3.6609,3.6006,3.5583,3.7412,3.9371,4.0651,4.4141,4.7857,5.1222,5.5842,0.0,0.0,0.0,0.0,0.0,0.0,0.0,0.0,0.0,0.0,0.0,6.9953,6.9602,6.9225,6.8296,6.7543,6.699,6.6237,6.5584,6.5032,6.4505,6.3952,6.3425,6.3023,6.2822,6.2822,0.0,0.0,0.0,6.119,5.9885,5.7876,5.77,5.6394,5.4536,5.4386,5.3733,5.2929,5.3341,5.3546,5.3716,5.3904,5.4117,5.424,5.3976,5.347,5.2916,5.2564,5.2569,5.2545,5.1927,5.1953,5.2104,5.219,5.1857,5.1532,5.1238,5.0857,5.0488,5.0285,4.9494,4.8805,4.8626,4.8027,4.7608,4.7608,4.7429,4.713,4.6681,4.6399,4.5963,4.5005,4.3718,4.283,4.244,4.1961,4.1384,4.0726,4.0516,4.0187,3.9738,3.9529,3.9373,3.9373,3.9373,3.9373,3.9373,3.8931,3.8571,3.8392,3.7913,3.7255,6.5283,6.7392,6.8145,6.5886,6.1617,5.647,0.0,4.5748,4.1282,3.7864,3.6307,3.5508,3.5508,3.6458,3.7764,3.9446,4.2032,4.4995,4.836,5.2653,0.0,0.0,0.0,0.0,0.0,0.0,0.0,0.0,0.0,0.0,0.0,6.9225,6.8648,6.8622,6.8095,6.7543,6.699,6.586,6.5032,6.4454,6.3952,6.34,6.2847,6.2822,6.2822,0.0,0.0,0.0,0.0,6.119,5.9885,5.7851,5.7273,5.6018,5.4486,5.3934,5.3381,5.2929,5.3341,5.3725,5.4097,5.4564,5.4954,5.5434,5.6145,5.5085,5.3671,5.3993,5.3839,5.364,5.3803,5.3421,5.3106,5.3663,5.3258,5.2653,5.2288,5.2187,5.1798,5.0435,5.0196,5.0002,4.9419,4.8716,4.8267,4.8267,4.7728,4.7309,4.7309,4.6741,4.6279,4.6249,4.5095,4.3778,4.25,4.2381,4.2111,4.1414,4.0756,4.0397,4.0397,3.9768,3.9373,3.9373,3.9373,3.9373,3.9373,3.9373,3.905,3.8392,3.8392,3.7704,6.0588,6.2546,6.3174,6.1692,5.8152,5.3683,4.8535,4.4367,4.0752,3.7789,3.6609,3.6107,3.6107,3.701,3.8165,3.9496,4.1681,4.4392,0.0,0.0,0.0,0.0,0.0,0.0,0.0,0.0,0.0,0.0,0.0,0.0,0.0,6.8823,6.8447,6.807,6.7518,6.6965,6.6388,6.566,6.5007,6.4454,6.3952,6.34,6.2822,6.2822,0.0,0.0,0.0,0.0,0.0,6.0337,5.9182,5.7801,5.6846,5.5836,5.4865,5.4284,5.3935,5.3725,5.436,5.4805,5.5286,5.6413,5.6576,5.6537,5.7608,5.6963,5.5909,5.6212,5.5445,5.4584,5.5041,5.4694,5.4205,5.4112,5.3893,5.3614,5.3025,5.2516,5.2067,5.1648,5.0794,5.0136,4.9972,4.9404,4.885,4.8356,4.8117,4.7818,4.7369,4.713,4.683,4.6339,4.5891,4.5155,4.3808,4.3299,4.2761,4.2141,4.1901,4.1572,4.1085,4.0876,4.0546,4.0098,4.0098,3.9858,3.9373,3.9373,3.932,3.908,3.8601,3.8182,5.4486,5.6595,5.7223,5.6294,5.3482,4.9891,4.5949,4.2635,3.9798,3.7638,3.6782,3.6405,3.6405,3.7262,3.8366,3.9496,4.153,4.4141,0.0,0.0,0.0,0.0,0.0,0.0,0.0,0.0,0.0,0.0,0.0,0.0,0.0,6.8422,6.807,6.7518,6.7166,6.6589,6.581,6.5258,6.4705,6.4178,6.3626,6.3174,6.2822,6.2822,0.0,0.0,0.0,0.0,0.0,5.996,5.8855,5.7775,5.642,5.5581,5.498,5.429,5.4099,5.4309,5.5006,5.5644,5.6405,5.7761,5.8121,5.8106,5.8581,5.8056,5.7411,5.7458,5.6568,5.563,5.5835,5.5402,5.4887,5.462,5.4581,5.4401,5.3713,5.3234,5.2815,5.2306,5.1528,5.0853,5.0614,5.0062,4.9494,4.9075,4.8596,4.8147,4.7728,4.7459,4.716,4.6741,4.6429,4.595,4.5155,4.4186,4.3419,4.2761,4.253,4.2201,4.1811,4.1504,4.1175,4.0786,4.0516,4.0187,3.9798,3.9493,3.9373,3.9373,3.896,3.8631,0.0,4.9766,5.0619,5.0117,4.7983,4.5447,4.3237,4.0701,0.0,3.7362,3.6757,3.6405,3.6455,3.7287,3.8391,3.9572,4.158,4.4141,0.0,0.0,0.0,0.0,0.0,0.0,0.0,0.0,0.0,0.0,0.0,0.0,0.0,6.8045,6.7467,6.6865,6.6865,6.6363,6.5308,6.4705,6.4178,6.3676,6.3099,6.2822,6.2822,6.2822,0.0,0.0,0.0,0.0,0.0,5.9859,5.8805,5.7725,5.5993,5.5299,5.507,5.3953,5.4064,5.4779,5.5485,5.6405,5.7451,5.8759,5.9585,5.9962,5.9025,5.85,5.8187,5.7897,5.7298,5.6697,5.6354,5.5748,5.5239,5.5209,5.5179,5.5029,5.4401,5.4251,5.3832,5.2576,5.2276,5.2007,5.1379,5.0704,5.0255,5.0196,4.9194,4.8386,4.8297,4.7758,4.7369,4.7309,4.6741,4.6339,4.6279,4.5095,4.4007,4.3409,4.2791,4.247,4.247,4.1901,4.1504,4.1444,4.0816,4.0457,4.0397,3.9798,3.9433,3.9373,3.9373,3.908,4.0777,0.0,4.5623,4.5924,4.4543,4.266,0.0,3.9295,3.7889,3.6832,3.6505,3.6531,3.6958,3.7538,3.8517,4.0074,4.1806,4.4292,0.0,0.0,0.0,0.0,0.0,0.0,0.0,0.0,0.0,0.0,0.0,0.0,0.0,6.7467,6.6714,6.571,6.5685,6.5559,6.5283,6.4354,6.3802,6.3676,6.3099,6.2822,6.2822,6.2822,0.0,0.0,0.0,0.0,6.0412,5.8905,5.8127,5.77,5.5591,5.5228,5.5812,5.4679,5.522,5.6536,5.699,5.7925,5.9076,5.9412,5.9974,6.0244,5.908,5.8773,5.8852,5.8811,5.8304,5.7617,5.7064,5.6406,5.5807,5.5299,5.5179,5.5149,5.4999,5.4551,5.4132,5.3803,5.2905,5.2157,5.2007,5.1439,5.0764,5.0255,4.9927,4.9434,4.8416,4.8147,4.7848,4.7369,4.716,4.686,4.6309,4.5095,4.4257,4.4077,4.3479,4.312,4.312,4.297,4.2641,4.2171,4.1542,4.0905,4.0397,4.0247,3.9918,3.9373,3.9373,3.932,3.8567,4.0174,4.1681,4.2233,4.1304,4.0023,3.912,3.8065,3.7086,3.6531,3.6606,3.6883,3.7136,3.8065,3.9245,4.0651,4.271,0.0,0.0,0.0,0.0,0.0,0.0,0.0,0.0,0.0,0.0,0.0,0.0,0.0,0.0,6.689,6.6187,6.5308,6.4806,6.4555,6.4555,6.3977,6.355,6.3299,6.2973,6.2822,6.2822,6.2571,6.2295,0.0,0.0,0.0,5.9834,5.8453,5.76,5.6947,5.5239,5.5089,5.5727,5.5024,5.5881,5.7468,5.7916,5.9149,6.0454,6.0208,6.0455,6.0555,5.9299,5.8991,5.9099,5.9099,5.862,5.8052,5.7663,5.6885,5.6077,5.5718,5.5418,5.5179,5.5179,5.491,5.4581,5.4281,5.3354,5.2546,5.2247,5.1648,5.1109,5.0704,5.0375,4.9927,4.9284,4.8656,4.8147,4.7788,4.7489,4.716,4.68,4.5843,4.4975,4.4347,4.3947,4.3618,4.329,4.329,4.303,4.241,4.2051,4.1542,4.0846,4.0546,4.0217,3.9858,3.9559,3.9373,3.8492,3.8844,3.9095,3.9772,3.9094,3.8266,3.8266,3.7412,3.6656,3.6656,3.6985,3.7387,3.7638,3.8919,4.0425,0.0,0.0,0.0,0.0,0.0,0.0,0.0,0.0,0.0,0.0,0.0,0.0,0.0,0.0,0.0,0.0,6.6338,6.5735,6.5183,6.4203,6.3651,6.355,6.355,6.3324,6.2822,6.2822,6.2797,6.2697,6.222,6.1918,0.0,0.0,0.0,5.9282,5.8127,5.7072,5.6093,5.4888,5.4835,5.5355,5.5162,5.6275,5.8071,5.8955,6.0287,6.1586,6.0988,6.0939,6.0894,5.9638,5.9189,5.9099,5.9099,5.871,5.8261,5.8141,5.7214,5.6286,5.6248,5.5658,5.5179,5.5179,5.5179,5.5029,5.4461,5.3803,5.3114,5.2456,5.1798,5.1319,5.1229,5.0704,5.0315,5.0196,4.9284,4.8506,4.8297,4.7788,4.7429,4.7309,4.68,4.5891,4.4706,4.4436,4.4018,4.3319,4.329,4.306,4.256,4.256,4.2231,4.1572,4.0965,4.0636,4.0546,3.9978,3.9679,3.7839,3.8492,3.922,4.0701,4.0249,3.9446,3.9446,3.8567,3.7739,3.7739,3.7814,3.8316,3.9747,4.0601,4.2003,0.0,0.0,0.0,0.0,0.0,0.0,0.0,0.0,0.0,0.0,0.0,0.0,0.0,0.0,0.0,0.0,6.5986,6.5157,6.4605,6.4002,6.345,6.2973,6.2948,6.2923,6.2822,6.2822,6.2571,6.2119,6.2044,6.1492,0.0,0.0,5.9332,5.8704,5.7123,5.6369,5.6043,5.4461,5.4687,5.5763,5.5589,5.699,5.9239,6.0955,6.1732,6.1969,6.1896,6.1496,6.0954,6.0176,5.9548,5.9099,5.9099,5.9039,5.883,5.8261,5.7543,5.6825,5.6286,5.5658,5.5179,5.5179,5.5179,5.5149,5.5059,5.4521,5.3832,5.3144,5.2486,5.1858,5.1319,5.1139,5.0823,5.0255,5.0016,4.9523,4.8416,4.8207,4.7908,4.7369,4.7219,4.683,4.601,4.4945,4.4018,4.3319,4.329,4.326,4.314,4.314,4.2851,4.2261,4.2141,4.1811,4.1235,4.1115,4.0786,3.8165,3.9094,4.0099,4.143,4.0953,4.0149,4.0149,3.9747,3.9371,3.9371,3.9848,4.0576,4.1656,0.0,4.5397,4.9615,0.0,0.0,0.0,0.0,0.0,0.0,0.0,0.0,0.0,0.0,0.0,0.0,0.0,0.0,0.0,0.0,6.4605,6.4053,6.35,6.3099,6.2822,6.2822,6.2822,6.2822,6.2521,6.2245,6.1994,6.1366,6.0663,5.9834,0.0,5.8428,5.7298,5.674,5.598,5.5143,5.4708,5.5158,5.6147,5.733,5.8648,5.9981,6.1554,6.2116,6.2116,6.2129,6.1882,6.1463,6.0386,5.9877,5.9548,5.9189,5.9099,5.9039,5.874,5.8141,5.7483,5.6825,5.6196,5.5628,5.5269,5.5179,5.5179,5.5179,5.467,5.3982,5.3294,5.2636,5.1977,5.1319,5.1229,5.1109,5.0764,5.0405,4.9956,4.9404,4.8716,4.8177,4.7848,4.7519,4.701,4.6309,4.5394,4.4556,4.3898,4.3828,4.3648,4.329,4.329,4.314,4.288,4.256,4.2231,4.1931,4.1602,4.1205,3.8265,3.9295,4.04,4.1505,4.143,4.1128,4.1254,4.1505,4.1731,4.1856,4.2635,4.3514,4.4217,4.6476,0.0,5.3984,0.0,0.0,0.0,0.0,0.0,0.0,0.0,0.0,0.0,0.0,0.0,0.0,0.0,0.0,0.0,0.0,6.4103,6.3701,6.3124,6.2822,6.2822,6.2697,6.2647,6.2621,6.222,6.1868,6.1567,6.0588,5.9834,5.9282,5.8604,5.7524,5.6194,5.6378,5.5654,5.4497,5.5005,5.5747,5.6758,5.8899,5.992,6.0348,6.1702,6.2116,6.2145,6.2308,6.2211,6.1912,6.0864,6.0446,6.0236,5.9727,5.9458,5.9308,5.9129,5.862,5.7992,5.7453,5.6735,5.6047,5.5538,5.5299,5.5179,5.5179,5.479,5.4162,5.3324,5.2755,5.2157,5.1349,5.1229,5.1229,5.1229,5.0734,5.0375,5.0196,4.9344,4.8626,4.8327,4.7698,4.71,4.6591,4.5933,4.5244,4.4556,4.4407,4.4077,4.3529,4.3379,4.329,4.329,4.2851,4.262,4.262,4.2073,4.1743,3.7136,3.8115,3.9245,4.035,4.1731,4.2936,4.3438,4.4367,4.5271,4.5799,4.6351,4.7104,4.8159,5.1423,5.4762,0.0,0.0,0.0,0.0,0.0,0.0,0.0,0.0,0.0,0.0,0.0,0.0,0.0,0.0,0.0,0.0,0.0,0.0,6.3701,6.3124,6.2822,6.2822,6.232,6.2069,6.2069,6.2019,6.1466,6.0412,5.9834,5.9257,5.8704,5.7625,5.6796,5.6143,5.5471,5.5013,5.4765,5.4946,5.6013,5.767,5.9149,5.992,6.0348,6.1702,6.2116,6.2204,6.2846,6.26,6.2061,6.1972,6.1523,6.1044,6.0984,6.0505,5.9877,5.9249,5.862,5.8112,5.8052,5.7094,5.6218,5.6158,5.5628,5.5179,5.5179,5.5149,5.47,5.3414,5.3144,5.2665,5.1409,5.1229,5.1229,5.1229,5.1169,5.0853,5.0255,5.0106,4.9568,4.8386,4.7698,4.7279,4.7249,4.6621,4.5933,4.5244,4.4646,4.4287,4.4257,4.3618,4.329,4.329,4.326,4.323,4.323,4.317,4.288,3.7136,3.8015,3.922,4.0676,4.2785,4.4694,4.5221,4.7029,4.8812,4.9715,5.0619,5.1448,5.2226,0.0,5.6821,0.0,0.0,0.0,0.0,0.0,0.0,0.0,0.0,0.0,0.0,0.0,0.0,0.0,0.0,0.0,0.0,0.0,0.0,6.3174,6.2948,6.2672,6.232,6.2119,6.1642,6.0964,6.0964,6.0563,5.9784,5.9257,5.8529,5.7625,5.6846,5.6018,5.5211,5.5178,5.5134,5.5065,5.6682,5.7952,5.9024,5.9981,6.0377,6.0681,6.1761,6.2116,6.2234,6.2905,6.2899,6.263,6.2211,6.1912,6.1642,6.1224,6.0924,6.0565,5.9907,5.9219,5.862,5.8231,5.7752,5.7274,5.6825,5.6256,5.5807,5.5807,5.5478,5.491,5.3982,5.3473,5.2875,5.1977,5.1468,5.1229,5.1229,5.1229,5.1109,5.0823,5.0122,4.9284,4.8356,4.7698,4.7309,4.7309,4.707,4.6621,4.5963,4.5693,4.5155,4.4317,4.4077,4.3708,4.329,4.329,4.329,4.329,4.329,4.317,3.6983,3.7739,3.9044,4.0824,4.3689,4.6376,4.7807,5.0142,5.2352,5.3658,5.4637,5.534,5.5566,0.0,0.0,0.0,0.0,0.0,0.0,0.0,0.0,0.0,0.0,0.0,0.0,0.0,0.0,0.0,0.0,0.0,0.0,0.0,0.0,0.0,6.2395,6.2119,6.1743,6.1567,6.0989,6.006,5.9885,5.9608,5.9232,5.8504,5.7675,5.6746,5.6194,5.5315,5.4401,5.5039,5.561,5.6209,5.8107,5.9329,6.0043,6.0621,6.0923,6.1104,6.1939,6.2234,6.2351,6.2905,6.3079,6.2989,6.254,6.2421,6.2301,6.1852,6.1583,6.1313,6.0835,6.0086,5.9308,5.886,5.8441,5.7992,5.7513,5.6915,5.6406,5.6248,5.5807,5.5239,5.4371,5.3832,5.3204,5.2336,5.1828,5.1439,5.1259,5.1229,5.1229,5.1229,5.0242,4.9314,4.8656,4.7997,4.7519,4.7309,4.7309,4.71,4.6651,4.6399,4.5903,4.4975,4.4736,4.4407,4.3917,4.3917,4.3798,4.3618,4.3618,4.3499,3.6405,3.7161,3.8542,4.0749,4.4209,4.8033,5.1373,5.3833,5.5892,5.76,5.8353,5.8554,5.8027,5.8805,0.0,0.0,0.0,0.0,0.0,0.0,0.0,0.0,0.0,0.0,0.0,0.0,0.0,0.0,0.0,0.0,0.0,0.0,0.0,0.0,6.1466,6.119,6.1165,6.0613,6.0035,5.9483,5.8956,5.8704,5.8654,5.7549,5.6721,5.6168,5.5616,5.4737,5.3778,5.486,5.6478,5.8262,5.8955,5.9825,6.0742,6.1073,6.1404,6.1732,6.2351,6.2615,6.2673,6.3021,6.3079,6.3079,6.3079,6.3079,6.3079,6.3079,6.26,6.2121,6.2121,6.1104,6.0116,6.0086,5.9099,5.8141,5.8141,5.7573,5.6915,5.6368,5.6218,5.5748,5.4431,5.4221,5.3773,5.2426,5.2217,5.1977,5.1319,5.1229,5.1229,5.1229,5.0584,4.9972,4.9389,4.87,4.7997,4.7369,4.7309,4.7309,4.7309,4.6681,4.6279,4.6279,4.5663,4.5304,4.5304,4.5304,4.4975,4.4317,4.4317,4.3917,3.6505,3.7511,3.9245,4.1831,4.5422,4.9364,5.3482,5.6118,5.8504,6.1391,6.1466,6.0839,6.0311,0.0,0.0,0.0,0.0,0.0,0.0,0.0,0.0,0.0,0.0,0.0,0.0,0.0,0.0,0.0,0.0,0.0,0.0,0.0,0.0,0.0,6.1266,6.0989,6.0588,6.001,5.9483,5.893,5.76,5.6947,5.6947,5.662,5.6088,5.5395,5.484,5.4594,5.4584,5.5707,5.7384,5.9273,5.9981,6.0863,6.1702,6.1821,6.188,6.1998,6.2439,6.2615,6.2673,6.3021,6.3079,6.3079,6.3079,6.3079,6.3079,6.3079,6.2929,6.278,6.278,6.2151,6.1253,6.0296,5.9787,5.9368,5.8919,5.8291,5.7633,5.6944,5.6466,5.5897,5.5029,5.4521,5.4072,5.3683,5.3204,5.2665,5.2007,5.1498,5.1229,5.1229,5.0584,5.0106,4.9972,4.8925,4.8207,4.7997,4.7549,4.7309,4.7309,4.713,4.68,4.6279,4.6112,4.5783,4.5304,4.5304,4.5185,4.5005,4.5005,4.4646,3.6985,3.8241,4.03,4.3514,4.738,5.1825,5.7123,5.9558,6.1366,6.3827,6.3601,6.2747,6.1969,0.0,0.0,0.0,0.0,0.0,0.0,0.0,0.0,0.0,0.0,0.0,0.0,0.0,0.0,0.0,0.0,0.0,0.0,0.0,0.0,0.0,6.0437,6.0035,5.9684,5.9131,5.8478,5.77,5.6696,5.5867,5.5214,5.544,5.5303,5.4772,5.4352,5.4509,5.5206,5.6211,5.777,5.9678,6.0409,6.1344,6.2292,6.2292,6.2351,6.2526,6.2731,6.2789,6.2847,6.3021,6.3079,6.3079,6.3079,6.3079,6.3079,6.3079,6.3079,6.3079,6.3079,6.26,6.1822,6.0745,6.0266,5.9907,5.9249,5.88,5.8231,5.7274,5.6795,5.6256,5.5359,5.485,5.4521,5.4251,5.3623,5.2935,5.2276,5.1858,5.1498,5.1259,5.0823,5.0465,5.0226,4.9523,4.8835,4.8327,4.7908,4.7578,4.7309,4.7309,4.713,4.6711,4.6711,4.6501,4.6082,4.6082,4.5963,4.5693,4.5693,4.5334,3.7764,3.9396,4.1681,4.5573,5.0067,5.5164,6.1416,6.3274,6.4002,6.5132,0.0,6.4153,6.3174,0.0,0.0,0.0,0.0,0.0,0.0,0.0,0.0,0.0,0.0,0.0,0.0,0.0,0.0,0.0,0.0,0.0,0.0,0.0,0.0,0.0,5.9156,5.8629,5.8579,5.8027,5.7198,0.0,5.6043,5.5189,5.3708,5.4235,5.4396,5.4283,5.4159,5.4671,5.567,5.634,5.7834,5.9678,6.047,6.1523,6.2615,6.2615,6.2847,6.3079,6.3079,6.3079,6.3079,6.3079,6.3079,6.3079,6.3079,6.3079,6.3079,6.3079,6.3079,6.3079,6.2989,6.254,6.1912,6.1194,6.0535,5.9907,5.9249,5.9099,5.871,5.7363,5.7094,5.6705,5.5418,5.5179,5.497,5.4401,5.3713,5.3025,5.2366,5.2247,5.1947,5.1289,5.1229,5.0913,5.0315,5.0226,4.9687,4.8536,4.8356,4.8027,4.7429,4.7339,4.7309,4.7309,4.7309,4.7309,4.7309,4.7309,4.701,4.6369,4.6369,4.6052,3.8316,4.0526,4.3388,4.728,5.3206,5.8905,6.2094,6.3274,6.4128,6.5634,6.5157,0.0,0.0,0.0,0.0,0.0,0.0,0.0,0.0,0.0,0.0,0.0,0.0,0.0,0.0,0.0,0.0,0.0,0.0,0.0,0.0,0.0,0.0,5.8453,5.8202,5.7851,5.7399,5.6846,5.6244,0.0,5.4662,5.4059,5.3708,5.3833,5.393,5.4108,5.4588,5.5272,5.6039,5.6758,5.8179,6.0075,6.0745,6.185,6.3021,6.3021,6.3021,6.3079,6.3079,6.3079,6.3079,6.3079,6.3079,6.3079,6.3079,6.3079,6.3079,6.3079,6.3079,6.2959,6.245,6.2211,6.1792,6.0595,6.0176,5.9907,5.9249,5.9099,5.871,5.7363,5.7094,5.6705,5.5418,5.5179,5.5149,5.4999,5.4401,5.3743,5.3054,5.2516,5.1947,5.1289,5.1229,5.1169,5.102,5.0495,5.0076,4.9777,4.8835,4.8237,4.8087,4.7578,4.7309,4.7309,4.7309,4.7309,4.7309,4.7309,4.7249,4.71,4.71,4.6741,3.8713,4.1372,4.5069,5.1172,5.6344,6.0487,6.2722,6.3475,6.4002,6.5107,0.0,0.0,0.0,0.0,0.0,0.0,0.0,0.0,0.0,0.0,0.0,0.0,0.0,0.0,0.0,0.0,0.0,0.0,0.0,0.0,0.0,5.9006,5.8353,5.7499,5.7223,5.6821,5.6244,5.5691,5.5139,5.4561,5.3984,5.3582,5.3331,5.3677,5.3912,5.4064,5.4764,5.5472,5.6105,5.6823,5.827,6.0198,6.0865,6.191,6.3079,6.3079,6.3079,6.3079,6.3079,6.3079,6.3079,6.3079,6.3079,6.3079,6.3079,6.3079,6.3079,6.3079,6.3079,6.2929,6.2271,6.1852,6.1373,6.0326,6.0086,5.9907,5.9249,5.9099,5.871,5.7363,5.7094,5.6705,5.5418,5.5179,5.5179,5.5179,5.491,5.4431,5.3773,5.3084,5.2426,5.1768,5.1409,5.1229,5.1229,5.09,5.0524,5.0226,4.9613,4.8955,4.8327,4.7967,4.7638,4.7309,4.7309,4.7309,4.7309,4.7309,4.7309,4.7309,4.7309,4.713,3.9054,4.2426,4.7182,5.4959,5.8554,6.0713,6.2797,6.3249,6.3375,6.3802,0.0,0.0,0.0,0.0,0.0,0.0,0.0,0.0,0.0,0.0,0.0,0.0,0.0,0.0,0.0,0.0,0.0,0.0,0.0,0.0,5.8956,5.8102,5.7298,5.662,5.6168,5.5666,5.5089,5.4637,5.4135,5.3557,5.3557,5.3331,5.2929,5.3725,5.4132,5.4132,5.4898,5.5604,5.6328,5.6952,5.8396,6.0259,6.0865,6.191,6.3079,6.3079,6.3079,6.3079,6.3079,6.3079,6.3079,6.3079,6.3079,6.3079,6.3079,6.3079,6.3079,6.3079,6.2989,6.275,6.2091,6.1433,6.0775,6.0086,5.9907,5.9757,5.9219,5.9099,5.871,5.7363,5.6915,5.6436,5.5359,5.5179,5.5179,5.5179,5.5179,5.497,5.4311,5.3713,5.3054,5.2276,5.1708,5.1349,5.1229,5.1229,5.0943,5.0405,5.0255,4.9717,4.8656,4.8416,4.8027,4.7489,4.7369,4.7309,4.7309,4.7309,4.7309,4.7309,4.7309,4.7309,3.9249,4.4781,5.0922,5.5261,5.7976,5.9935,0.0,0.0,6.1542,0.0,0.0,0.0,0.0,0.0,0.0,0.0,0.0,0.0,0.0,0.0,0.0,0.0,0.0,0.0,0.0,0.0,0.0,0.0,0.0,0.0,5.6721,5.652,5.5968,5.4938,5.4813,5.4511,5.3934,5.3858,5.3557,5.303,5.303,5.3005,5.2929,5.3971,5.4443,5.4511,5.5206,5.6132,5.7109,5.7431,5.8802,6.0563,6.0986,6.191,6.3079,6.3079,6.3079,6.3079,6.3079,6.3079,6.3079,6.3079,6.3079,6.3079,6.3079,6.3079,6.3079,6.3079,6.266,6.2061,6.1433,6.0745,6.0057,5.9398,5.9249,5.9219,5.9129,5.9099,5.871,5.7363,5.6196,5.5388,5.5209,5.5179,5.5179,5.5179,5.5179,5.497,5.4311,5.4132,5.3593,5.2336,5.2127,5.1828,5.1259,5.1229,5.1169,5.1079,5.0495,5.0106,4.9927,4.8895,4.8237,4.8147,4.7608,4.7309,4.7309,4.7309,4.7309,4.7309,4.7309,4.7309,4.0354,4.5263,5.0194,5.3545,5.6269,5.8403,5.9558,0.0,0.0,0.0,0.0,0.0,0.0,0.0,0.0,0.0,0.0,0.0,0.0,0.0,0.0,0.0,0.0,0.0,0.0,0.0,0.0,0.0,0.0,5.6872,5.5817,5.5465,5.4913,5.411,5.4084,5.3808,5.3281,5.3281,5.3155,5.2929,5.2929,5.2929,5.2929,5.4039,5.4619,5.482,5.5973,5.6952,5.7816,5.8297,5.9459,6.0926,6.1226,6.2087,6.3079,6.3079,6.3079,6.3079,6.3079,6.3079,6.3079,6.3079,6.3079,6.3079,6.3079,6.3079,6.3079,6.3079,6.26,6.1942,6.1283,6.0595,5.9907,5.9249,5.9099,5.9099,5.9099,5.88,5.8171,5.6825,5.5837,5.5179,5.5179,5.5179,5.5179,5.5179,5.5179,5.5089,5.479,5.4431,5.3982,5.3384,5.2665,5.2067,5.1798,5.1439,5.1229,5.1229,5.0913,5.0584,5.0196,4.9628,4.9194,4.888,4.7818,4.7309,4.7309,4.7309,4.7309,4.7309,4.7309,4.7309,4.0741,4.4587,4.8223,5.1008,5.3803,5.6166,0.0,0.0,0.0,0.0,0.0,0.0,0.0,0.0,0.0,0.0,0.0,0.0,0.0,0.0,0.0,0.0,0.0,0.0,0.0,0.0,0.0,0.0,0.0,5.5541,5.4988,5.4561,5.4084,5.3532,5.3507,5.3331,5.2929,5.2929,5.2929,5.2929,5.2929,5.2929,5.2929,5.4106,5.4887,5.5326,5.6666,5.7725,5.8515,5.9114,6.0075,6.1226,6.1465,6.2204,6.3079,6.3079,6.3079,6.3079,6.3079,6.3079,6.3079,6.3079,6.3079,6.3079,6.3079,6.3079,6.3079,6.3079,6.248,6.1732,6.1253,6.0475,5.9727,5.9219,5.9099,5.9069,5.889,5.8321,5.7513,5.6376,5.5658,5.5179,5.5179,5.5179,5.5179,5.5179,5.5179,5.5179,5.5179,5.476,5.4401,5.4221,5.3324,5.2576,5.2217,5.1738,5.1409,5.1229,5.1229,5.099,5.0465,5.0285,5.0002,4.9523,4.8386,4.7728,4.7549,4.7549,4.7459,4.7309,4.7309,4.7309,3.9573,4.276,4.6021,4.8034,5.0659,0.0,0.0,0.0,0.0,0.0,0.0,0.0,0.0,0.0,0.0,0.0,0.0,0.0,0.0,0.0,0.0,0.0,0.0,0.0,0.0,0.0,0.0,0.0,0.0,5.4386,5.3808,5.3758,5.3507,5.298,5.298,5.2955,5.2929,5.2929,5.2929,5.2929,5.2929,5.2929,5.2929,5.435,5.5326,5.6078,5.7211,5.8198,5.9142,5.955,6.0381,6.1613,6.1613,6.2204,6.3079,6.3079,6.3079,6.3079,6.3079,6.3079,6.3079,6.3079,6.3079,6.3079,6.3079,6.3079,6.3079,6.3079,6.2151,6.1164,6.1134,6.0146,5.9129,5.9129,5.9099,5.8949,5.8321,5.7633,5.6944,5.6286,5.5658,5.5179,5.5179,5.5179,5.5179,5.5179,5.5179,5.5179,5.5179,5.5149,5.491,5.4281,5.4162,5.3593,5.2306,5.2157,5.1887,5.1259,5.1229,5.1199,5.1169,5.0524,5.0196,5.0136,4.9523,4.8865,4.8237,4.8237,4.7908,4.7309,4.7309,4.7309,3.8266,4.0803,0.0,4.5222,4.7991,5.0576,0.0,0.0,0.0,0.0,0.0,0.0,0.0,0.0,0.0,0.0,0.0,0.0,0.0,0.0,0.0,0.0,0.0,0.0,0.0,0.0,0.0,0.0,0.0,0.0,5.3231,5.3206,5.313,5.2929,5.2929,5.2929,5.2929,5.2929,5.2929,5.2929,5.2929,5.3067,5.3341,5.4485,5.5657,5.6834,5.8333,5.9426,6.0194,6.0955,6.1613,6.2234,6.2234,6.2585,6.3079,6.3079,6.3079,6.3079,6.3079,6.3079,6.3079,6.3079,6.3079,6.3079,6.3079,6.3079,6.3079,6.3079,6.2421,6.1642,6.1224,6.0416,5.9638,5.9189,5.9099,5.8919,5.8261,5.7573,5.6795,5.5748,5.5359,5.5179,5.5179,5.5179,5.5179,5.5179,5.5179,5.5179,5.5179,5.5179,5.5089,5.485,5.4461,5.4012,5.3533,5.2695,5.2097,5.1858,5.1439,5.1229,5.1229,5.0943,5.0823,5.0823,5.0631,5.0002,4.897,4.897,4.885,4.8566,4.8566,4.8566,3.7394,3.9493,0.0,0.0,4.5308,4.7788,0.0,0.0,0.0,0.0,0.0,0.0,0.0,0.0,0.0,0.0,0.0,0.0,0.0,0.0,0.0,0.0,0.0,0.0,0.0,0.0,0.0,0.0,0.0,0.0,5.2955,5.2929,5.2929,5.2929,5.2929,5.2929,5.2929,5.2754,5.2653,5.2653,5.2477,5.2581,5.2987,5.4322,5.5563,5.6922,5.9036,6.0287,6.0923,6.1761,6.2292,6.2615,6.2615,6.2789,6.3079,6.3079,6.3079,6.3079,6.3079,6.3079,6.3079,6.3079,6.3079,6.3079,6.3079,6.3079,6.3079,6.3079,6.26,6.1942,6.1283,6.0446,5.9638,5.9219,5.9099,5.8919,5.8261,5.7573,5.6795,5.5718,5.5329,5.5179,5.5179,5.5179,5.5179,5.5179,5.5179,5.5179,5.5179,5.5179,5.5179,5.5179,5.479,5.4461,5.4221,5.3384,5.2695,5.2217,5.1798,5.1439,5.1229,5.1229,5.1229,5.1229,5.1229,5.078,4.9912,4.9703,4.9494,4.9299,4.9299,4.9299,0.0,0.0,0.0,0.0,0.0,0.0,4.5508,0.0,0.0,0.0,0.0,0.0,0.0,0.0,0.0,0.0,0.0,0.0,0.0,0.0,0.0,0.0,0.0,0.0,0.0,0.0,0.0,0.0,0.0,5.2929,5.2929,5.2929,5.2929,5.2904,5.2904,5.2904,5.2879,5.2352,5.2076,5.2076,5.1548,5.1472,5.1936,5.3805,5.5301,5.6414,5.9362,6.0834,6.1313,6.188,6.2292,6.2615,6.2615,6.2789,6.3079,6.3079,6.3079,6.3079,6.3079,6.3079,6.3079,6.3079,6.3079,6.3079,6.3079,6.3079,6.3079,6.3079,6.263,6.1972,6.1283,6.0116,5.9099,5.9099,5.9099,5.8919,5.8291,5.7603,5.6944,5.6286,5.5658,5.5209,5.5179,5.5179,5.5179,5.5179,5.5179,5.5179,5.5179,5.5179,5.5179,5.5179,5.5179,5.494,5.4281,5.4221,5.3653,5.2336,5.2247,5.1947,5.1319,5.1289,5.1259,5.1259,5.1259,5.1229,5.1229,5.0524,4.9942,4.9359,4.9359,4.9359,3.803,0.0,0.0,0.0,0.0,0.0,4.3388,4.4186,0.0,0.0,0.0,0.0,0.0,0.0,0.0,0.0,0.0,0.0,0.0,0.0,0.0,0.0,0.0,0.0,0.0,0.0,0.0,0.0,5.3005,5.2929,5.2929,5.2929,5.2754,5.2352,5.2327,5.2151,5.1749,5.1599,5.1498,5.1498,5.1614,5.1976,5.2567,5.4546,5.626,5.779,6.0033,6.1434,6.2263,6.2673,6.2905,6.2963,6.2963,6.3021,6.3079,6.3079,6.3079,6.3079,6.3079,6.3079,6.3079,6.3079,6.3079,6.3079,6.3079,6.3079,6.3079,6.3079,6.2959,6.254,6.1403,6.0116,5.9099,5.9099,5.9099,5.9069,5.886,5.8321,5.7513,5.6376,5.6017,5.5748,5.5269,5.5179,5.5179,5.5179,5.5179,5.5179,5.5179,5.5179,5.5179,5.5179,5.5179,5.5119,5.494,5.4491,5.4042,5.3683,5.3174,5.2815,5.2636,5.2636,5.2426,5.1947,5.1917,5.1678,5.1229,5.0973,5.084,5.069,5.069,5.069,3.9022,3.9786,4.0729,0.0,0.0,0.0,4.1768,4.2176,4.2528,0.0,0.0,0.0,0.0,0.0,0.0,0.0,0.0,0.0,0.0,0.0,0.0,0.0,0.0,0.0,0.0,0.0,0.0,5.2578,5.2804,5.2829,5.2603,5.2578,5.2327,5.1774,5.1749,5.1599,5.1272,5.1046,5.0921,5.0921,5.1064,5.1523,5.236,5.4313,5.6197,5.8132,6.0081,6.141,6.2199,6.2545,6.2839,6.3079,6.3079,6.3079,6.3079,6.3079,6.3079,6.3079,6.3079,6.3079,6.3079,6.3079,6.3079,6.3079,6.3079,6.3079,6.3079,6.3079,6.269,6.2002,6.0954,5.9907,5.9099,5.9099,5.9099,5.9099,5.9099,5.88,5.8141,5.6825,5.6346,5.5957,5.5299,5.5179,5.5179,5.5179,5.5179,5.5179,5.5179,5.5179,5.5179,5.5179,5.5179,5.5179,5.5179,5.485,5.4491,5.4221,5.3832,5.3473,5.3204,5.3174,5.2995,5.2606,5.2606,5.2426,5.2037,5.1498,5.1229,5.1229,5.1229,5.1229,4.0229,4.0631,4.1152,0.0,0.0,0.0,4.0819,4.0462,4.0283,0.0,0.0,0.0,0.0,0.0,0.0,0.0,0.0,0.0,0.0,0.0,0.0,0.0,0.0,0.0,0.0,5.1624,5.195,5.2,5.2477,5.2528,5.2051,5.2026,5.1749,5.1197,5.1197,5.1147,5.1096,5.0594,5.0318,5.0318,5.0229,5.0741,5.1747,5.3705,5.5778,5.79,5.9858,6.0997,6.1543,6.1858,6.2331,6.2869,6.2929,6.2959,6.2989,6.3049,6.3079,6.3079,6.3079,6.3079,6.3079,6.3079,6.3079,6.3079,6.2989,6.2959,6.2959,6.2869,6.1972,6.0864,6.0236,5.9608,5.9099,5.9099,5.9099,5.9099,5.9099,5.9099,5.871,5.7363,5.6645,5.6047,5.5329,5.5179,5.5179,5.5179,5.5179,5.5179,5.5179,5.5179,5.5179,5.5179,5.5179,5.5179,5.5179,5.5179,5.494,5.4371,5.4311,5.4042,5.3443,5.3414,5.3384,5.3294,5.3204,5.3174,5.3174,5.2007,5.1439,5.1439,5.1379,5.1319,0.0,0.0,0.0,0.0,0.0,0.0,4.1128,4.035,3.9654,0.0,0.0,0.0,0.0,0.0,0.0,0.0,0.0,0.0,0.0,0.0,0.0,0.0,0.0,0.0,0.0,5.067,5.0946,5.1398,5.1548,5.1548,5.1448,5.1448,5.1172,5.0594,5.0594,5.0368,4.9941,4.9816,4.9766,4.9766,5.0538,5.1283,5.2094,5.4803,5.6632,5.7916,5.9824,6.0832,6.1171,6.1257,6.1373,6.1553,6.2091,6.2301,6.2361,6.2869,6.3079,6.3079,6.3079,6.3079,6.3079,6.3079,6.3079,6.2989,6.245,6.2301,6.2181,6.1642,6.0924,6.0266,6.0116,5.9608,5.9099,5.9099,5.9099,5.9099,5.9099,5.9099,5.871,5.7363,5.7004,5.6555,5.5388,5.5179,5.5179,5.5179,5.5179,5.5179,5.5179,5.5179,5.5179,5.5179,5.5179,5.5179,5.5179,5.5179,5.5149,5.4999,5.4999,5.494,5.482,5.479,5.4551,5.4012,5.3473,5.3174,5.3174,5.2935,5.2785,5.2785,5.2247,5.2007,0.0,0.0,0.0,4.4869,0.0,0.0,0.0,4.1013,3.9963,0.0,0.0,0.0,0.0,0.0,0.0,0.0,0.0,0.0,0.0,0.0,0.0,0.0,0.0,0.0,0.0,4.8686,4.9515,5.0368,5.0444,5.0444,5.0444,5.0444,5.0318,5.0017,5.0017,4.9866,4.959,4.959,4.9654,4.9847,5.0677,5.1721,5.2868,5.4952,5.6762,5.8376,5.9578,6.0317,6.0595,6.0595,6.0416,6.0206,6.1224,6.1822,6.2121,6.248,6.278,6.3079,6.3079,6.3079,6.3019,6.269,6.26,6.248,6.1792,6.1613,6.1463,6.0805,6.0356,5.9997,5.9668,5.9338,5.9099,5.9099,5.9099,5.9099,5.9099,5.9099,5.871,5.7363,5.7094,5.6705,5.5418,5.5179,5.5179,5.5179,5.5179,5.5179,5.5179,5.5179,5.5179,5.5179,5.5179,5.5179,5.5179,5.5179,5.5179,5.5179,5.5179,5.5179,5.5179,5.5179,5.5029,5.47,5.4371,5.4192,5.4192,5.4192,5.3832,5.3174,5.2845,5.2695,0.0,0.0,0.0,0.0,0.0,4.4555,0.0,0.0,0.0,0.0,0.0,0.0,0.0,0.0,0.0,0.0,0.0,0.0,0.0,0.0,0.0,0.0,0.0,0.0,0.0,4.6376,4.7707,4.8736,4.8912,4.9012,4.9113,4.9213,4.9264,4.9264,4.9264,4.9378,4.9568,4.9568,4.981,5.0295,5.1057,5.213,5.3631,5.506,5.6738,5.8654,5.9299,5.9687,5.9907,5.9907,5.9578,5.9219,6.0446,6.1313,6.1912,6.2061,6.251,6.3079,6.3079,6.3079,6.2959,6.2301,6.1912,6.1613,6.1074,6.0835,6.0595,6.0057,5.9907,5.9787,5.9249,5.9099,5.9099,5.9099,5.9099,5.9099,5.9099,5.9099,5.874,5.7543,5.7304,5.6855,5.5418,5.5179,5.5179,5.5179,5.5179,5.5179,5.5179,5.5179,5.5179,5.5179,5.5179,5.5179,5.5179,5.5179,5.5179,5.5179,5.5179,5.5179,5.5179,5.5179,5.5179,5.5179,5.5179,5.5179,5.5179,5.5179,5.464,5.3563,5.3443,5.3384,0.0,0.0,0.0,0.0,4.8383,0.0,0.0,0.0,0.0,0.0,0.0,0.0,0.0,0.0,0.0,0.0,0.0,0.0,0.0,0.0,0.0,0.0,0.0,0.0,0.0,0.0,4.5271,4.5899,4.6401,4.6903,4.738,4.7857,4.8109,4.8109,4.8109,4.8485,4.9305,4.9305,4.9875,5.0994,5.197,5.2956,5.4019,5.5818,5.7107,5.7953,5.8783,5.9164,5.9219,5.9219,5.9159,5.9189,5.9907,6.0625,6.1313,6.1882,6.251,6.3079,6.3079,6.3079,6.2959,6.2301,6.1283,6.0296,6.0236,5.9787,5.9308,5.9249,5.9219,5.9189,5.9129,5.9099,5.9099,5.9099,5.9099,5.9099,5.9099,5.9099,5.889,5.8141,5.8022,5.7393,5.5508,5.5179,5.5179,5.5179,5.5179,5.5179,5.5179,5.5179,5.5179,5.5179,5.5179,5.5179,5.5179,5.5179,5.5179,5.5179,5.5179,5.5179,5.5179,5.5179,5.5179,5.5179,5.5179,5.5179,5.5179,5.5179,5.5119,5.494,5.4371,5.4102,0.0,0.0,0.0,0.0,0.0,0.0,0.0,0.0,4.3974,0.0,0.0,0.0,0.0,0.0,0.0,0.0,0.0,0.0,0.0,0.0,0.0,0.0,0.0,0.0,0.0,0.0,0.0,0.0,0.0,4.4769,4.5623,4.6502,4.7129,4.7456,4.7757,4.8158,4.8785,4.9302,5.0245,5.147,5.2585,5.3932,5.544,5.6537,5.7528,5.8335,5.8882,5.9099,5.9099,5.9099,5.9099,5.9129,5.9398,5.9937,6.0595,6.1283,6.1942,6.257,6.2959,6.2839,6.2331,6.1283,6.0296,5.9518,5.9518,5.9308,5.9099,5.9099,5.9099,5.9099,5.9099,5.9099,5.9099,5.9099,5.9099,5.9099,5.9099,5.9099,5.8919,5.8261,5.8112,5.7752,5.6496,5.5987,5.5748,5.5748,5.5448,5.5179,5.5179,5.5179,5.5179,5.5179,5.5179,5.5179,5.5179,5.5179,5.5179,5.5179,5.5179,5.5179,5.5179,5.5179,5.5359,5.5748,5.5748,5.5748,5.5748,5.5748,5.5568,5.5179,5.491,5.479,5.3856,0.0,0.0,0.0,0.0,0.0,0.0,0.0,0.0,0.0,0.0,0.0,0.0,0.0,0.0,0.0,0.0,0.0,0.0,0.0,0.0,0.0,0.0,0.0,0.0,0.0,0.0,0.0,0.0,0.0,4.389,4.502,4.5949,4.6652,4.7054,4.7565,4.8324,4.9292,5.0577,5.1984,5.3332,5.4884,5.6595,5.7247,5.8003,5.8719,5.8991,5.9099,5.9099,5.9099,5.9099,5.9099,5.9099,5.9518,6.0176,6.0864,6.1523,6.2181,6.2839,6.254,6.1642,6.0475,5.9638,5.9099,5.9099,5.9099,5.9099,5.9099,5.9099,5.9099,5.9099,5.9099,5.9099,5.9099,5.9099,5.9099,5.9099,5.9099,5.8949,5.8471,5.8381,5.8231,5.7723,5.6974,5.6376,5.6248,5.5777,5.5388,5.5209,5.5179,5.5179,5.5179,5.5179,5.5269,5.5448,5.5448,5.5538,5.5688,5.5718,5.5718,5.5718,5.5718,5.5927,5.6406,5.6436,5.6436,5.6436,5.6436,5.6196,5.5688,5.5359,5.5179,0.0,0.0,0.0,5.3611,0.0,0.0,0.0,0.0,4.6901,0.0,0.0,0.0,0.0,0.0,0.0,4.176,0.0,0.0,0.0,0.0,0.0,0.0,0.0,0.0,0.0,0.0,0.0,0.0,0.0,0.0,4.2238,4.3288,4.4392,4.5497,4.5547,4.6374,4.8102,4.9308,5.0823,5.2669,5.446,5.5905,5.6936,5.7751,5.839,5.8719,5.8991,5.9099,5.9099,5.9099,5.9099,5.9099,5.9099,5.9518,6.0176,6.0864,6.1523,6.2181,6.2839,6.2241,6.1014,6.0326,5.9638,5.9099,5.9099,5.9099,5.9099,5.9099,5.9099,5.9099,5.9099,5.9099,5.9099,5.9099,5.9099,5.9099,5.9099,5.9099,5.9099,5.9069,5.9069,5.9069,5.9039,5.7932,5.6855,5.6308,5.6166,5.5897,5.5269,5.5179,5.5179,5.5179,5.5179,5.5448,5.6077,5.6188,5.6406,5.7004,5.7034,5.7034,5.7034,5.7034,5.7034,5.7064,5.7064,5.7064,5.7064,5.7064,5.7064,5.7004,5.5748,5.5179,0.0,0.0,5.4583,5.4161,0.0,0.0,0.0,0.0,0.0,0.0,0.0,0.0,0.0,0.0,4.3957,4.2882,4.1139,0.0,0.0,0.0,0.0,0.0,0.0,0.0,0.0,0.0,0.0,0.0,0.0,0.0,0.0,4.176,4.3212,4.4342,4.5095,4.6121,4.7487,4.8711,5.0537,5.2773,5.4397,5.6079,5.7751,5.828,5.8664,5.8936,5.9045,5.9099,5.9099,5.9099,5.9099,5.9159,5.9578,5.9877,6.0176,6.0864,6.1523,6.2061,6.1852,6.1493,6.0924,5.9787,5.9279,5.9099,5.9099,5.9099,5.9099,5.9099,5.9099,5.9099,5.9099,5.9099,5.9099,5.9099,5.9099,5.9099,5.9099,5.9099,5.9099,5.9099,5.9099,5.9099,5.9099,5.871,5.8201,5.7573,5.6735,5.6128,5.5867,5.5448,5.5179,5.5179,5.5598,5.5927,5.6188,5.6555,5.6885,5.7094,5.7094,5.7094,5.7094,5.7094,5.7304,5.7752,5.7782,5.7782,5.7782,5.7782,5.7543,5.7094,5.6645,5.6226,5.5445,5.5142,0.0,5.4511,5.2588,0.0,5.1403,0.0,0.0,0.0,0.0,0.0,0.0,0.0,0.0,4.3735,4.184,0.0,0.0,3.6688,0.0,0.0,0.0,0.0,0.0,0.0,0.0,0.0,0.0,0.0,0.0,0.0,4.2368,4.3765,4.481,4.5935,4.7205,4.878,5.0654,5.2816,5.4601,5.6441,5.8195,5.8664,5.8936,5.9099,5.9099,5.9099,5.9099,5.9099,5.9099,5.9159,5.9817,6.0236,6.0535,6.1224,6.1882,6.2361,6.1702,6.1313,6.0924,5.9817,5.9308,5.9099,5.9099,5.9099,5.9099,5.9099,5.9099,5.9099,5.9099,5.9099,5.9099,5.9099,5.9099,5.9099,5.9099,5.9099,5.9099,5.9099,5.9099,5.9099,5.9099,5.9099,5.889,5.8231,5.7184,5.6406,5.6248,5.5598,5.5269,5.5508,5.5927,5.6346,5.6825,5.7453,5.7812,5.7812,5.7812,5.7812,5.7812,5.7812,5.8022,5.8471,5.8471,5.8471,5.8471,5.8471,5.8231,5.7812,5.7573,5.7244]}]]